     2.10           OBSERVATION DATA    G (GPS)             RINEX VERSION / TYPE
teqc 2005May6 SOPAC 20050707 00:23:19UTC                    PGM / RUN BY / DATE
Linux 2.4.20-8|Pentium IV|gcc|Linux|486/DX+                 COMMENT
BIT 2 OF LLI FLAGS DATA COLLECTED UNDER A/S CONDITION       COMMENT
HPGN D CA 01 XD                                             MARKER NAME
01XD                                                        MARKER NUMBER
Ben Sanchez                                                 OBSERVER / AGENCY
0440100455 TRIMBLE 5700 2.01                                REC # / TYPE / VERS
12214400 TRM41249.00 NONE                                   ANT # / TYPE
 -2649075.0000 -3950523.0000  4235373.0000                  APPROX POSITION XYZ
        1.8000        0.0000        0.0000                  ANTENNA: DELTA H/E/N
     1     1                                                WAVELENGTH FACT L1/2
     6    L1    L2    C1    P2    P1    D1                  # / TYPES OF OBSERV
    15.0000                                                 INTERVAL
Northern California Height Modernization 2004               COMMENT
                                                            COMMENT
SOPAC - Scripps Orbit and Permanent Array Center            COMMENT
IGPP - Institute of Geophysics and Planetary Physics        COMMENT
SIO - Scripps Institution of Oceanography                   COMMENT
UCSD - University of California, San Diego                  COMMENT
                                                            COMMENT
email: archive@gpsmail.ucsd.edu                             COMMENT
ftp://garner.ucsd.edu                                       COMMENT
http://sopac.ucsd.edu                                       COMMENT
                                                            COMMENT
                                                            COMMENT
Approximate Lat, Lon : 41.875, -123.844                     COMMENT
                                                            COMMENT
SNR is mapped to RINEX snr flag value [0-9]                 COMMENT
L1 & L2: 2-19 dBHz = 1, 20-27 dBHz = 2, 28-31 dBHz = 3      COMMENT
32-35 dBHz = 4, 36-38 dBHz = 5, 39-41 dBHz = 6              COMMENT
42-44 dBHz = 7, 45-48 dBHz = 8, >= 49 dBHz = 9              COMMENT
  2004     9     7    21    29   45.0000000     GPS         TIME OF FIRST OBS
                                                            END OF HEADER
 04  9  7 21 29 45.0000000  0  6G 3G 8G13G19G23G27
     -8237.99257     -8850.61752  23068003.7274   23068002.5044

    -92024.63358    -51467.29754  22235989.1564   22235986.9614
     43031.78558
     17614.37156                  20321552.6954   20321549.1954

    -74001.43756    -44862.10952  23741497.2974   23741495.5664

    141631.00058     68830.16454  22278068.5634   22278062.9774
    -31852.38359
    -21571.85556                  21141855.6024   21141853.1604

 04  9  7 21 30  0.0000000  0  6G 3G 8G13G19G23G27
    -11392.32847    -11308.51243  23067403.7424   23067402.3444
       210.2894
   -122987.05548    -75593.84444  22230096.6024   22230095.0354
      2064.1614
     57075.45748     28557.47346  20324225.3984   20324221.7664
      -936.2454
   -105942.55947    -69751.26243  23735420.1484   23735416.8204
      2129.4084
    188857.37148    105629.91044  22287055.3444   22287050.5944
     -3148.4254
    -43084.15249    -30323.89146  21139718.3984   21139715.4654
       748.7854
 04  9  7 21 30 15.0000000  0  6G 3G 8G13G19G23G27
    -14572.78547    -13786.78542  23066798.5234   23066797.0004
       212.0304
   -154065.80948    -99811.03944  22224182.9454   22224181.1214
      2071.9174
     71071.03148     39463.10246  20326888.6484   20326885.6294
      -933.0384
   -137980.49247    -94715.84442  23729323.2194   23729319.9924
      2135.8624
    235994.18048    142359.83244  22296024.8134   22296020.6604
     -3142.4544
    -54431.50849    -39165.98446  21137558.6174   21137556.1644
       756.4904
 04  9  7 21 30 30.0000000  0  6G 3G 8G13G19G23G27
    -17765.95747    -16274.94942  23066190.5554   23066189.7114
       212.8784
   -185247.73048   -124108.61744  22218249.0784   22218247.9064
      2078.7954
     85031.84848     50341.64846  20329545.0634   20329542.2544
      -930.7214
   -170101.52347   -119745.17643  23723210.3754   23723208.2154
      2141.4024
    283054.69948    179030.32844  22304980.3914   22304975.6954
     -3137.3684
    -65881.19149    -48087.81646  21135380.0474   21135377.3794
       763.3124
 04  9  7 21 30 45.0000000  0  6G 3G 8G13G19G23G27
    -20950.59447    -18756.49242  23065585.4694   23065583.5554
       212.3094
   -216511.71547   -148470.13744  22212300.1094   22212298.4184
      2084.2664
     98979.15648     61209.67646  20332199.3914   20332196.0314
      -929.8214
   -202284.22746   -144822.55143  23717086.5704   23717083.5274
      2145.5144
    330059.70348    215657.57444  22313924.6644   22313920.5824
     -3133.6674
    -77412.12149    -57072.95746  21133185.5554   21133183.1604
       768.7294
 04  9  7 21 31  0.0000000  0  6G 3G 8G13G19G23G27
    -24109.55947    -21218.03142  23064983.6334   23064982.7424
       210.5984
   -247840.38748   -172882.07444  22206337.7894   22206336.1914
      2088.5784
    112929.89848     72080.37146  20334854.2034   20334850.6644
      -930.0494
   -234511.22746   -169934.47342  23710953.3444   23710950.7974
      2148.4674
    377026.26248    252254.84444  22322861.9144   22322858.2344
     -3131.1044
    -89007.16849    -66108.07446  21130978.9304   21130976.5634
       773.0034
 04  9  7 21 31 15.0000000  0  6G 3G 8G13G19G23G27
    -27231.98847    -23651.07843  23064389.7584   23064387.8444
       208.1624
   -279223.13747   -197336.15644  22200366.7424   22200364.4494
      2092.1834
    126894.94149     82962.21146  20337511.2814   20337507.9064
      -931.0034
   -266771.35546   -195072.20742  23704814.8204   23704811.7194
      2150.6754
    423964.93048    288830.37544  22331794.7034   22331790.4534
     -3129.2454
   -100655.69148    -75184.83646  21128762.1024   21128759.9924
       776.5684
 04  9  7 21 31 30.0000000  0  7G10G 3G 8G13G19G23G27
   -105313.57056    -73015.26652  24155104.1484   24155102.4224

    -30309.78147    -26049.39142  23063803.6564   23063802.5744
       205.1864
   -310652.19948   -221826.31244  22194385.3364   22194383.9224
      2095.2714
    140882.24249     93861.39146  20340173.4144   20340169.7544
      -932.4874
   -299056.46147   -220229.39543  23698671.0474   23698668.6724
      2152.3404
    470883.33248    325390.13344  22340722.7894   22340719.1334
     -3127.8934
   -112349.70349    -84297.06246  21126537.1564   21126534.6804
       779.6014
 04  9  7 21 31 45.0000000  0  7G10G 3G 8G13G19G23G27
   -138197.90646    -98639.41442  24148846.5634   24148844.6214
      2192.2894
    -33340.14147    -28410.68743  23063226.8134   23063225.7894
       202.0244
   -342124.46948   -246350.14144  22188396.4064   22188394.7344
      2098.1514
    154894.49248    104780.02046  20342839.7814   20342836.0234
      -934.1504
   -331363.36347   -245403.53542  23692522.9064   23692520.7304
      2153.7934
    517784.03948    361936.09444  22349647.7114   22349643.4844
     -3126.7144
   -124086.59049    -93442.67646  21124303.4694   21124300.8094
       782.4594
 04  9  7 21 32  0.0000000  0  7G10G 3G 8G13G19G23G27
   -171062.51245   -124248.15242  24142591.9694   24142590.9804
      2190.9744
    -36319.44147    -30732.21542  23062659.7274   23062658.4414
       198.6204
   -373636.57448   -270905.02744  22182399.8674   22182398.0864
      2100.8074
    168935.43048    115720.99646  20345511.6484   20345508.3984
      -936.0624
   -363688.20746   -270591.65242  23686371.7734   23686369.6484
      2154.9904
    564670.43848    398470.89844  22358570.2814   22358565.6174
     -3125.7604
   -135862.82049   -102618.96946  21122062.8524   21122060.1954
       785.0824
 04  9  7 21 32 15.0000000  0  7G10G 3G 8G13G19G23G27
   -203902.61345   -149837.84442  24136342.9454   24136341.2934
      2189.3404
    -39243.26647    -33010.52343  23062103.5234   23062101.8714
       194.9224
   -405184.00448   -295487.39544  22176396.8444   22176394.5354
      2103.1624
    183009.13748    126687.50846  20348189.4844   20348186.3754
      -938.2474
   -396026.37546   -295790.18743  23680217.6644   23680214.9844
      2155.8784
    611546.69148    434997.83244  22367489.3674   22367486.1604
     -3125.0844
   -147674.07048   -111822.53946  21119815.1884   21119812.2974
       787.4174
 04  9  7 21 32 30.0000000  0  7G10G 3G 8G13G19G23G27
   -236714.03146   -175405.15242  24130101.0394   24130098.0634
      2187.4284
    -42107.43047    -35242.33243  23061558.2274   23061557.4804
       190.9444
   -436762.74648   -320094.21144  22170386.9304   22170384.7274
      2105.2494
    197119.74648    137682.78146  20350874.7274   20350871.8634
      -940.7074
   -428373.44147   -320995.63742  23674062.3204   23674060.1214
      2156.4714
    658416.80548    471519.94144  22376409.6884   22376404.7424
     -3124.6744
   -159516.37549   -121050.29746  21117561.7194   21117558.9574
       789.4874
 04  9  7 21 32 45.0000000  0  7G10G 3G 8G13G19G23G27
   -269491.36746   -200945.91842  24123863.3134   24123860.6604
      2185.1564
    -44906.74247    -37423.59843  23061025.6254   23061024.7734
       186.6214
   -468367.88348   -344721.57044  22164373.0864   22164370.8794
      2107.0094
    211272.41848    148710.82846  20353568.3594   20353564.7624
      -943.5114
   -460723.96946   -346203.81642  23667905.8054   23667903.6414
      2156.7024
    705285.55948    508040.99644  22385328.3364   22385324.5554
     -3124.5844
   -171384.55149   -130298.23046  21115303.5234   21115301.0004
       791.2124
 04  9  7 21 33  0.0000000  0  7G10G 3G 8G13G19G23G27
   -302231.87546   -226457.97742  24117632.1564   24117630.6334
      2182.7014
    -47638.49247    -39552.23843  23060506.3364   23060505.7504
       182.1174
   -499996.64848   -369367.35944  22158354.3204   22158352.1644
      2108.5844
    225469.74648    159773.67646  20356269.2894   20356266.0634
      -946.4894
   -493075.07846   -371412.42242  23661750.4064   23661747.8554
      2156.7414
    752155.32848    544562.87544  22394247.3444   22394242.9454
     -3124.6514
   -183276.14849   -139564.42246  21113039.9844   21113037.9844
       792.7734
 04  9  7 21 33 15.0000000  0  7G10G 3G 8G13G19G23G27
   -334930.84846   -251937.69542  24111410.6484   24111408.2074
      2179.9324
    -50298.22347    -41624.75843  23060000.3364   23059999.3914
       177.3154
   -531644.73047   -394028.19544  22152331.7734   22152329.8204
      2109.8724
    239716.11348    170874.72346  20358981.2424   20358977.3404
      -949.7584
   -525422.03947   -396617.77342  23655594.7194   23655591.9454
      2156.4644
    799030.43848    581088.88344  22403167.0704   22403162.8594
     -3125.0074
   -195186.78948   -148845.43746  21110773.9454   21110770.9734
       794.0434
 04  9  7 21 33 30.0000000  0  7G10G 3G 8G13G19G23G27
   -367586.61345   -277383.74641  24105195.7344   24105193.4654
      2177.0514
    -52884.42647    -43639.98843  23059508.2344   23059506.8834
       172.4144
   -563310.64148   -418702.91444  22146305.7504   22146303.7814
      2111.0614
    254013.14848    182015.24246  20361701.4844   20361698.1024
      -953.1364
   -557762.96947   -421818.43443  23649440.8984   23649438.2894
      2156.0624
    845912.13348    617620.04744  22412088.9304   22412084.2624
     -3125.4464
   -207115.00049   -158140.14546  21108504.0704   21108501.2114
       795.2144
 04  9  7 21 33 45.0000000  0  7G10G 3G 8G13G19G23G27
   -400197.23445   -302794.62141  24098990.3674   24098986.9734
      2174.0414
    -55395.43747    -45596.58242  23059029.7344   23059029.1484
       167.4014
   -594992.54748   -443390.09044  22140276.9384   22140274.6454
      2112.1274
    268362.46149    193196.52746  20364432.6024   20364428.5634
      -956.6214
   -590095.94947   -447012.93042  23643287.6564   23643284.7734
      2155.5324
    892801.86748    654157.46544  22421011.8674   22421007.1294
     -3125.9824
   -219059.21948   -167447.32846  21106231.3204   21106228.3134
       796.2814
 04  9  7 21 34  0.0000000  0  7G10G 3G 8G13G19G23G27
   -432757.48945   -328166.18441  24092793.6484   24092790.1024
      2170.6844
    -57825.96947    -47490.50442  23058567.4534   23058566.2664
       162.0354
   -626685.58648   -468085.94144  22134246.1644   22134243.0944
      2112.8694
    282768.91049    204422.32846  20367173.5394   20367170.6334
      -960.4304
   -622415.63747   -472197.06242  23637137.0474   23637134.2154
      2154.6464
    939704.44548    690704.86744  22429937.0864   22429933.1334
     -3126.8394
   -231014.31648   -176762.98846  21103955.7814   21103953.1254
       797.0074
 04  9  7 21 34 15.0000000  0  7G10G 3G 8G13G19G23G27
   -465264.19945   -353496.09842  24086607.3444   24086604.2114
      2167.1144
    -60173.23047    -49319.54342  23058121.0084   23058119.8204
       156.4844
   -658386.93748   -492788.28544  22128213.5784   22128211.4184
      2113.4234
    297235.21949    215694.77046  20369926.5004   20369923.0784
      -964.4214
   -654718.94147   -497368.43742  23630990.4304   23630987.0354
      2153.5544
    986622.38748    727264.27344  22438864.7504   22438861.3014
     -3127.8634
   -242977.80149   -186085.18446  21101679.4694   21101676.7584
       797.5664
 04  9  7 21 34 30.0000000  0  7G10G 3G 8G13G19G23G27
   -497713.69545   -378781.43742  24080433.3284   24080430.1374
      2163.3004
    -62433.63747    -51080.88742  23057691.1414   23057688.9454
       150.6944
   -690092.94547   -517494.25444  22122179.8364   22122178.5704
      2113.7344
    311765.17649    227016.79346  20372691.2894   20372687.6294
      -968.6644
   -687001.93446   -522523.89842  23624845.9144   23624843.5234
      2152.1994
   1033559.19148    763838.36344  22447797.3054   22447792.6454
     -3129.1204
   -254946.06649   -195411.09446  21099402.3674   21099399.1644
       797.8844
 04  9  7 21 34 45.0000000  0  7G10G 3G 8G13G19G23G27
   -530103.96545   -404020.61742  24074269.0634   24074267.4734
      2159.3514
    -64605.27747    -52773.09042  23057276.8594   23057275.9574
       144.7764
   -721801.96947   -542202.52744  22116145.9384   22116144.7934
      2113.9354
    326360.32849    238389.63746  20375469.0394   20375465.2074
      -973.0104
   -719262.56246   -547662.03542  23618707.8914   23618704.3554
      2150.7094
   1080516.30948    800428.28144  22456732.4304   22456728.8244
     -3130.4744
   -266917.31249   -204739.33646  21097123.9064   21097120.8444
       798.0834
 04  9  7 21 35  0.0000000  0  7G10G 3G 8G13G19G23G27
   -562433.08245   -429212.07842  24068116.8284   24068115.1254
      2155.2744
    -66686.44147    -54394.78142  23056881.7274   23056879.9264
       138.7444
   -753512.15247   -566911.76244  22110111.2974   22110109.6954
      2114.0124
    341022.43848    249814.64546  20378258.6804   20378255.5354
      -977.4744
   -751498.82446   -572781.12543  23612572.7584   23612569.9614
      2149.0844
   1127495.38748    837035.30944  22465672.0314   22465668.1294
     -3131.9394
   -278889.86748   -214068.59846  21094845.6254   21094842.6094
       798.1704
 04  9  7 21 35 15.0000000  0  7G10G 3G 8G13G19G23G27
   -594699.37946   -454354.64141  24061977.0704   24061974.9804
      2151.0864
    -68675.66447    -55944.82043  23056503.0084   23056501.9494
       132.6154
   -785222.18048   -591620.85544  22104078.2974   22104075.4384
      2114.0024
    355752.88348    261292.91046  20381061.7504   20381058.6994
      -982.0304
   -783708.99246   -597879.93743  23606443.9454   23606440.7704
      2147.3454
   1174497.42648    873660.24244  22474615.9384   22474612.7584
     -3133.4694
   -290862.46948   -223397.89546  21092566.8754   21092564.3134
       798.1734
 04  9  7 21 35 30.0000000  0  7G10G 3G 8G13G19G23G27
   -626898.39545   -479444.73041  24055849.8204   24055847.3874
      2146.6014
    -70568.56647    -57419.81643  23056143.1564   23056141.6134
       126.1934
   -816927.95348   -616326.64144  22098044.1564   22098042.1844
      2113.7184
    370555.93849    272827.74646  20383878.7734   20383875.4774
      -986.8704
   -815888.64846   -622954.94542  23600319.9304   23600318.0554
      2145.3104
   1221526.67648    910306.35544  22483566.0314   22483562.0864
     -3135.2834
   -302830.94548   -232723.98046  21090289.6644   21090287.1764
       797.8984
 04  9  7 21 35 45.0000000  0  7G10G 3G 8G13G19G23G27
   -659030.24245   -504482.53142  24049735.3984   24049732.3554
      2142.1234
    -72365.57447    -58820.07043  23055801.1254   23055799.5274
       119.8014
   -848629.71548   -641029.29344  22092011.1644   22092008.9964
      2113.4514
    385431.14148    284418.79746  20386709.3594   20386706.3244
      -991.6804
   -848037.77346   -648006.17642  23594202.1804   23594199.2304
      2143.2754
   1268582.41048    946973.14843  22492520.0314   22492515.2234
     -3137.0494
   -314795.64548   -242047.12546  21088012.7114   21088010.3714
       797.6474
 04  9  7 21 36  0.0000000  0  7G10G 3G 8G13G19G23G27
   -691090.66046   -529464.70342  24043634.7974   24043631.6484
      2137.3614
    -74062.48847    -60142.33642  23055477.5704   23055476.3054
       113.1284
   -880323.54348   -665725.76244  22085979.9844   22085978.5434
      2112.9224
    400382.60949    296069.27346  20389554.6254   20389551.1174
      -996.7654
   -880152.00847   -673030.23043  23588092.2194   23588088.9024
      2140.9494
   1315668.42648    983663.50444  22501480.1884   22501476.0354
     -3139.0684
   -326752.64548   -251364.26246  21085737.3834   21085734.8204
       797.1334
 04  9  7 21 36 15.0000000  0  7G10G 3G 8G13G19G23G27
   -723077.70744   -554389.64841  24037547.1254   24037544.1724
      2132.4704
    -75657.49647    -61385.20742  23055174.3134   23055173.1054
       106.3344
   -912007.40248   -690414.46544  22079951.0634   22079948.0514
      2112.2574
    415411.92649    307780.41846  20392414.4454   20392411.4024
     -1001.9544
   -912229.29346   -698025.44943  23581987.1334   23581984.7894
      2138.4864
   1362786.35548   1020378.73843  22510446.5554   22510442.1094
     -3141.1954
   -338700.16449   -260674.02346  21083464.1254   21083461.3134
       796.5014
 04  9  7 21 36 30.0000000  0  7G10G 3G 8G13G19G23G27
   -754989.64544   -579256.12941  24031475.1954   24031471.3594
      2127.4634
    -77149.21947    -62547.59442  23054890.4454   23054889.1644
        99.4484
   -943680.09048   -715094.46544  22073923.9774   22073922.0744
      2111.5134
    430520.58249    319553.39146  20395289.8054   20395286.4454
     -1007.2444
   -944267.80946   -722990.46943  23575889.5164   23575888.4104
      2135.9014
   1409937.38347   1057119.74643  22519419.3754   22519414.5084
     -3143.4024
   -350636.86348   -269975.34446  21081192.7894   21081189.3714
       795.7804
 04  9  7 21 36 45.0000000  0  7G10G 3G 8G13G19G23G27
   -786826.20745   -604063.83641  24025417.8364   24025412.6294
      2122.4384
    -78537.22346    -63629.16842  23054626.2974   23054624.7424
        92.5344
   -975341.56648   -739765.72744  22067898.8444   22067896.6214
      2110.7654
    445708.83649    331388.38346  20398179.8984   20398176.6024
     -1012.5504
   -976267.06246   -747924.92643  23569801.0784   23569798.9384
      2133.2844
   1457121.55548   1093886.61744  22528398.3054   22528394.5784
     -3145.6114
   -362562.50048   -279268.04346  21078923.7194   21078920.5664
       795.0424
 04  9  7 21 37  0.0000000  0  7G10G 3G 8G13G19G23G27
   -818585.56245   -628811.36342  24019372.6644   24019369.7664
      2117.2904
    -79820.12146    -64628.82042  23054381.6484   23054380.8444
        85.5274
  -1006989.88748   -764426.73844  22061876.3834   22061873.7854
      2109.8884
    460978.13749    343286.52346  20401085.5864   20401082.2274
     -1017.9534
  -1008225.30946   -772827.39142  23563718.9694   23563716.7854
      2130.5504
   1504340.15247   1130680.28944  22537383.4224   22537379.9884
     -3147.9074
   -374475.70748   -288551.05946  21076655.9454   21076653.4304
       794.2144
 04  9  7 21 37 15.0000000  0  7G10G 3G 8G13G19G23G27
   -850264.02745   -653495.87542  24013345.3284   24013342.2194
      2111.8984
    -80994.19547    -65543.64842  23054159.0704   23054157.5124
        78.2724
  -1038621.66848   -789074.86744  22055857.6094   22055854.0474
      2108.7854
    476331.94549    355250.52346  20404007.4924   20404003.9924
     -1023.5874
  -1040138.71946   -797694.97742  23557646.3594   23557643.6524
      2127.5614
   1551596.44948   1167503.33643  22546376.3444   22546372.7894
     -3150.4204
   -386373.14549   -297821.77746  21074392.2734   21074389.8444
       793.1634
 04  9  7 21 37 30.0000000  0  7G10G 3G 8G13G19G23G27
   -881861.85546   -678117.55542  24007331.4064   24007329.5274
      2106.5224
    -82060.01646    -66374.18042  23053956.1724   23053954.4104
        71.0554
  -1070237.54348   -813710.58644  22049840.7114   22049838.7344
      2107.7254
    491769.72748    367279.94946  20406944.9384   20406941.7624
     -1029.1854
  -1072007.47747   -822527.76643  23551582.4064   23551579.9924
      2124.5844
   1598889.73448   1204355.21143  22555376.1254   22555371.6374
     -3152.8864
   -398255.18748   -307080.51246  21072131.2034   21072128.6374
       792.1364
 04  9  7 21 37 45.0000000  0  7G10G 3G 8G13G19G23G27
   -913378.39845   -702675.86742  24001334.8754   24001331.5984
      2101.1034
    -83017.31247    -67120.14542  23053773.8054   23053772.2194
        63.8204
  -1101837.38348   -838333.82044  22043827.6724   22043825.3364
      2106.6564
    507291.84449    379375.10246  20409898.8984   20409895.5044
     -1034.8084
  -1103830.94147   -847325.22742  23545527.3524   23545523.7074
      2121.5644
   1646220.03548   1241235.91844  22564382.7034   22564379.6644
     -3155.3534
   -410121.60548   -316327.06646  21069873.0234   21069870.4384
       791.0954
 04  9  7 21 38  0.0000000  0  7G10G 3G 8G13G19G23G27
   -944812.12146   -727169.68442  23995352.9304   23995349.7894
      2095.5824
    -83864.64147    -67780.36343  23053612.3444   23053611.1644
        56.4894
  -1133419.81648   -862943.48444  22037816.9534   22037815.4144
      2105.4964
    522899.51649    391536.91046  20412868.8674   20412865.5554
     -1040.5114
  -1135607.46147   -872086.11743  23539479.5084   23539476.0554
      2118.4354
   1693588.66847   1278146.50043  22573396.5394   22573392.8914
     -3157.9094
   -421971.05949   -325560.41446  21067618.2344   21067615.6804
       789.9644
 04  9  7 21 38 15.0000000  0  7G10G 3G 8G13G19G23G27
   -976159.25445   -751596.00042  23989387.7194   23989385.9964
      2089.8094
    -84598.28146    -68352.03543  23053472.5634   23053471.4144
        48.9094
  -1164980.79748   -887536.43444  22031811.4924   22031809.0124
      2104.0654
    538596.39848    403768.23446  20415855.6564   20415852.6954
     -1046.4594
  -1167333.19146   -896807.43442  23533442.2974   23533438.8714
      2115.0494
   1740998.83647   1315089.43843  22582418.5704   22582414.8484
     -3160.6784
   -433800.03948   -334777.79746  21065367.1024   21065364.3794
       788.5994
 04  9  7 21 38 30.0000000  0  7G10G 3G 8G13G19G23G27
  -1007419.44946   -775954.60242  23983439.4694   23983436.9024
      2084.0134
    -85218.15646    -68835.03943  23053355.0084   23053354.0124
        41.3254
  -1196520.48448   -912112.82044  22025810.3284   22025807.2424
      2102.6464
    554382.43849    416069.03546  20418859.6564   20418856.4654
     -1052.4034
  -1199007.74246   -921488.85242  23527414.5084   23527411.2814
      2111.6374
   1788450.63347   1352064.82443  22591447.9844   22591444.1414
     -3163.4534
   -445608.49248   -343979.18746  21063119.7344   21063117.3834
       787.2304
 04  9  7 21 38 45.0000000  0  7G10G 3G 8G13G19G23G27
  -1038591.04746   -800244.13742  23977507.6644   23977504.3204
      2078.1074
    -85722.62947    -69228.12942  23053258.9774   23053258.3834
        33.6324
  -1228037.61748   -936671.58244  22019812.2584   22019809.2664
      2101.1424
    570259.18449    428440.52046  20421881.0164   20421878.0084
     -1058.4504
  -1230629.09846   -946128.85242  23521397.5234   23521393.9884
      2108.0904
   1835945.32447   1389073.60543  22600486.1724   22600482.0514
     -3166.3134
   -457394.88748   -353163.38746  21060877.1644   21060874.6174
       785.7604
 04  9  7 21 39  0.0000000  0  7G10G 3G 8G13G19G23G27
  -1069674.43046   -824464.94542  23971592.4384   23971590.0634
      2072.2264
    -86112.26647    -69531.75042  23053185.1094   23053183.6954
        25.9764
  -1259532.52348   -961213.05144  22013818.7664   22013816.4494
      2099.6604
    586226.05548    440882.22746  20424919.1484   20424916.3674
     -1064.4584
  -1262197.78946   -970727.78943  23515390.0394   23515386.7424
      2104.5794
   1883482.07047   1426115.19543  22609531.6254   22609528.1294
     -3169.1164
   -469159.89548   -362330.92646  21058638.6334   21058635.5234
       784.3344
 04  9  7 21 39 15.0000000  0  7G10G 3G 8G13G19G23G27
  -1100665.94146   -848614.14142  23965694.6254   23965693.1564
      2066.1014
    -86383.70347    -69743.24242  23053133.0394   23053131.4884
        18.0964
  -1291001.72748   -985734.46944  22007830.8364   22007827.9884
      2097.9474
    602286.35549    453396.73446  20427975.7664   20427972.4774
     -1070.6874
  -1293710.10546   -995282.81242  23509393.1334   23509390.8364
      2100.8214
   1931063.96147   1463191.94943  22618586.0554   22618582.4924
     -3172.1264
   -480900.32048   -371479.30146  21056404.2344   21056401.8524
       782.6954
 04  9  7 21 39 30.0000000  0  7G10G 3G 8G13G19G23G27
  -1131566.40646   -872692.41042  23959814.5864   23959812.7974
      2060.0314
    -86537.91047    -69863.39542  23053104.0084   23053102.3014
        10.2804
  -1322446.29748  -1010236.74244  22001847.0314   22001843.7704
      2096.3054
    618438.97749    465983.17246  20431049.2424   20431046.0744
     -1076.8414
  -1325166.58247  -1019794.31243  23503407.7194   23503405.4774
      2097.0984
   1978689.80147   1500302.95743  22627649.8524   22627645.7034
     -3175.0564
   -492617.11748   -380609.27346  21054174.1094   21054171.6484
       781.1204
 04  9  7 21 39 45.0000000  0  7G10G 3G 8G13G19G23G27
  -1162374.73846   -896698.86342  23953951.1484   23953949.0004
      2053.8894
    -86574.00446    -69891.49242  23053096.6024   23053095.9454
         2.4064
  -1353865.51248  -1034719.22344  21995867.8284   21995864.6844
      2094.6144
    634684.90249    478642.33246  20434140.9694   20434137.7464
     -1083.0624
  -1356566.32847  -1044261.60242  23497432.6954   23497429.8714
      2093.3164
   2026360.14147   1537448.62143  22636721.6094   22636717.2934
     -3178.0234
   -504309.48048   -389720.20346  21051949.4144   21051946.6564
       779.4914
 04  9  7 21 40  0.0000000  0  7G10G 3G 8G13G19G23G27
  -1193089.71145   -920632.59442  23948106.6804   23948103.8984
      2047.6654
    -86490.84447    -69826.71142  23053113.1884   23053111.5664
        -5.5444
  -1385258.39548  -1059181.18444  21989894.2974   21989891.6914
      2092.8594
    651025.12149    491374.96146  20437250.3444   20437247.3204
     -1089.3484
  -1387907.77047  -1068683.49642  23491468.2664   23491465.1914
      2089.4294
   2074075.90647   1574629.69943  22645801.1644   22645797.7384
     -3181.0514
   -515976.42648   -398811.33646  21049729.3754   21049726.7934
       777.7964
 04  9  7 21 40 15.0000000  0  7G10G 3G 8G13G19G23G27
  -1223710.72746   -944493.12142  23942279.9694   23942277.0164
      2041.4014
    -86288.05147    -69668.70342  23053151.4534   23053149.7704
       -13.5204
  -1416624.52348  -1083622.31244  21983925.9304   21983922.9414
      2091.0754
    667459.96549    504181.31646  20440377.9384   20440374.8324
     -1095.6564
  -1419190.27346  -1093059.46543  23485515.0554   23485511.4344
      2085.5004
   2121837.37947   1611846.41843  22654889.3284   22654886.0394
     -3184.0984
   -527617.60948   -407882.38346  21047514.4774   21047511.4774
       776.0794
 04  9  7 21 40 30.0000000  0  7G10G 3G 8G13G19G23G27
  -1254238.35546   -968280.89542  23936471.1174   23936468.8134
      2035.1754
    -85966.49647    -69418.12142  23053212.8284   23053210.9024
       -21.4374
  -1447964.69948  -1108043.21144  21977961.2584   21977959.2344
      2089.3454
    683988.47349    517060.66846  20443523.2114   20443520.1724
     -1101.9014
  -1450414.34447  -1117389.88743  23479573.4844   23479570.4494
      2081.6054
   2169643.28947   1649097.71543  22663987.2114   22663983.1294
     -3187.0614
   -539233.91049   -416934.04346  21045303.5634   21045301.6604
       774.4204
 04  9  7 21 40 45.0000000  0  7G10G 3G 8G13G19G23G27
  -1284666.72746   -991991.27042  23930680.6174   23930677.8484
      2028.5584
    -85520.64147    -69070.66443  23053297.4224   23053296.2304
       -29.7244
  -1479273.27048  -1132439.46144  21972003.5004   21972001.2664
      2087.2384
    700616.15249    530017.28946  20446687.5704   20446683.8524
     -1108.5124
  -1481574.21947  -1141670.26243  23473644.2274   23473641.2624
      2077.3254
   2217499.04347   1686387.87943  22673093.3984   22673090.3244
     -3190.3844
   -550819.76649   -425961.98046  21043099.3134   21043096.6484
       772.3904
 04  9  7 21 41  0.0000000  0  7G10G 3G 8G13G19G23G27
  -1314999.45345  -1015627.14842  23924907.3134   23924905.2504
      2022.1824
    -84953.98046    -68629.10242  23053404.9144   23053404.0904
       -37.7774
  -1510553.95348  -1156814.00444  21966050.5944   21966048.9384
      2085.3794
    717339.37548    543048.35946  20449869.3364   20449866.3444
     -1114.8824
  -1512673.21947  -1165903.21143  23467726.1414   23467723.0664
      2073.2674
   2265400.91447   1723713.97743  22682208.9224   22682205.8404
     -3193.4584
   -562378.87948   -434969.08646  21040899.0784   21040896.5044
       770.6084
 04  9  7 21 41 15.0000000  0  7G10G 3G 8G13G19G23G27
  -1345236.84046  -1039188.75442  23919154.7344   23919152.0944
      2015.8264
    -84266.98447    -68093.78142  23053535.8674   23053534.9224
       -45.8004
  -1541807.28148  -1181167.22744  21960102.9224   21960102.0394
      2083.5554
    734157.57048    556153.43046  20453069.8054   20453066.7304
     -1121.2134
  -1543711.52047  -1190088.90243  23461820.0784   23461816.7814
      2069.2204
   2313348.17647   1761075.42643  22691332.5474   22691329.7274
     -3196.4844
   -573911.93049   -443955.87546  21038704.9614   21038702.3054
       768.8704
 04  9  7 21 41 30.0000000  0  7G10G 3G 8G13G19G23G27
  -1375375.54346  -1062673.44942  23913419.6804   23913416.5204
      2009.2474
    -83456.64547    -67462.36342  23053690.0864   23053688.7974
       -54.0234
  -1573030.14548  -1205496.72344  21954161.9384   21954160.3984
      2081.5244
    751073.79349    569334.88746  20456289.0704   20456285.5124
     -1127.7484
  -1574685.82847  -1214224.65643  23455926.1254   23455923.2974
      2064.9544
   2361343.50047   1798474.32043  22700467.4454   22700463.3674
     -3199.6884
   -585415.82048   -452919.94546  21036515.6254   21036512.5864
       766.9264
 04  9  7 21 41 45.0000000  0  7G10G 3G 8G13G19G23G27
  -1405414.03546  -1086080.03142  23907702.4614   23907699.9844
      2002.5664
    -82521.45747    -66733.63342  23053867.6094   23053866.2894
       -62.3464
  -1604221.14848  -1229801.39144  21948226.4144   21948224.1094
      2079.4004
    768089.37148    582593.77346  20459527.0864   20459524.1524
     -1134.3724
  -1605594.43047  -1238309.23843  23450043.2344   23450040.7034
      2060.5734
   2409388.05947   1835911.60243  22709609.7664   22709605.2734
     -3202.9714
   -596889.19148   -461860.24246  21034331.9694   21034329.7734
       764.8914
 04  9  7 21 42  0.0000000  0  7G10G 3G 8G13G19G23G27
  -1435353.16446  -1109409.19942  23902005.4064   23902002.8444
      1995.9424
    -81462.56647    -65908.53942  23054069.2664   23054067.6484
       -70.5934
  -1635381.42648  -1254082.10544  21942296.6804   21942295.0594
      2077.3524
    785203.23448    595929.24646  20462783.6804   20462780.2154
     -1140.9244
  -1636438.05547  -1262343.19542  23444174.0164   23444170.6804
      2056.2424
   2457480.66847   1873386.31344  22718761.3834   22718757.7034
     -3206.1744
   -608333.19148   -470777.62546  21032154.6644   21032151.8284
       762.9334
 04  9  7 21 42 15.0000000  0  7G10G 3G 8G13G19G23G27
  -1465192.10546  -1132660.32842  23896328.0234   23896324.4884
      1989.2634
    -80279.36747    -64986.53542  23054294.1804   23054293.5394
       -78.8804
  -1666510.48848  -1278338.49244  21936373.2814   21936370.9924
      2075.2714
    802415.84448    609341.65646  20466059.0634   20466055.9304
     -1147.5074
  -1667215.86347  -1286325.87142  23438317.3364   23438314.7624
      2051.8544
   2505621.58247   1910898.66043  22727922.2344   22727918.3364
     -3209.3944
   -619747.26649   -479671.70746  21029982.6644   21029979.7584
       760.9384
 04  9  7 21 42 30.0000000  0  7G10G 3G 8G13G19G23G27
  -1494929.16845  -1155832.05942  23890668.6094   23890666.8954
      1982.4714
    -78970.35947    -63966.51642  23054543.9454   23054542.3364
       -87.2674
  -1697606.75848  -1302569.35244  21930455.4064   21930453.2504
      2073.0854
    819728.67648    622832.18046  20469353.3364   20469350.2734
     -1154.1894
  -1697926.12147  -1310255.89842  23432473.3914   23432469.9534
      2047.3514
   2553812.07847   1948449.68044  22737092.2814   22737089.0904
     -3212.7004
   -631129.91048   -488541.31246  21027816.2274   21027813.7344
       758.8434
 04  9  7 21 42 45.0000000  0  7G10G 3G 8G13G19G23G27
  -1524563.46146  -1178923.73042  23885030.2194   23885027.1564
      1975.6204
    -77534.62947    -62847.77042  23054817.2504   23054815.6564
       -95.7154
  -1728669.62948  -1326774.17244  21924544.2034   21924543.5634
      2070.8584
    837142.53948    636401.41446  20472667.5554   20472664.2584
     -1160.9244
  -1728567.59447  -1334132.31242  23426642.4144   23426638.1454
      2042.7654
   2602052.78547   1986039.80143  22746272.1414   22746267.8524
     -3216.0474
   -642480.49248   -497385.91446  21025655.8754   21025653.8244
       756.7054
 04  9  7 21 43  0.0000000  0  7G10G 3G 8G13G19G23G27
  -1554095.85946  -1201935.92242  23879410.2664   23879405.9414
      1968.8274
    -75973.48047    -61631.27342  23055113.6644   23055112.5904
      -104.0774
  -1759699.88748  -1350953.55544  21918639.9304   21918637.9224
      2068.6844
    854656.27048    650048.46546  20475999.8754   20475996.9264
     -1167.5824
  -1759141.32447  -1357955.98842  23420824.9454   23420820.0704
      2038.2494
   2650342.31347   2023667.94143  22755461.0004   22755457.7544
     -3219.3024
   -653800.12948   -506206.41046  21023502.5394   21023500.1764
       754.6424
 04  9  7 21 43 15.0000000  0  7G10G 3G 8G13G19G23G27
  -1583527.06646  -1224869.30542  23873809.0704   23873805.4414
      1962.0804
    -74287.67247    -60317.64842  23055434.2344   23055433.5434
      -112.3874
  -1790698.84848  -1375108.59844  21912741.1094   21912739.1174
      2066.5974
    872268.64548    663772.38746  20479352.2194   20479348.4774
     -1174.1584
  -1789647.89547  -1381727.30942  23415019.0704   23415015.6564
      2033.7714
   2698679.55147   2061333.26243  22764659.8594   22764655.4184
     -3222.4834
   -665089.89548   -515003.63346  21021354.0554   21021351.2384
       752.6514
 04  9  7 21 43 30.0000000  0  7G10G 3G 8G13G19G23G27
  -1612855.80147  -1247722.91842  23868228.8524   23868224.7814
      1955.2494
    -72476.13747    -58906.05943  23055779.6484   23055778.6454
      -120.7694
  -1821665.22748  -1399238.22744  21906847.8524   21906846.7504
      2064.4254
    889980.78948    677574.04746  20482722.0164   20482719.0554
     -1180.8104
  -1820085.92646  -1405445.16043  23409226.7274   23409223.9184
      2029.2024
   2747065.38747   2099036.48443  22773867.1954   22773864.0314
     -3225.7224
   -676348.59448   -523776.64846  21019211.6484   21019208.9924
       750.5804
 04  9  7 21 43 45.0000000  0  7G10G 3G 8G13G19G23G27
  -1642079.31246  -1270494.46542  23862666.7424   23862662.4884
      1948.2344
    -70536.33247    -57394.53542  23056148.0784   23056147.3364
      -129.3204
  -1852596.41048  -1423340.40644  21900962.1564   21900960.5784
      2062.0794
    907795.35948    691455.51246  20486112.7274   20486109.3674
     -1187.6384
  -1850452.42645  -1429107.33643  23403448.2194   23403445.5354
      2024.4334
   2795502.10247   2136779.32043  22783084.3134   22783080.9414
     -3229.1144
   -687573.87548   -532523.60946  21017075.8054   21017073.0984
       748.3524
 04  9  7 21 44  0.0000000  0  7G10G 3G 8G13G19G23G27
  -1671199.69946  -1293185.68442  23857126.5474   23857121.6524
      1941.3594
    -68470.61747    -55784.85942  23056542.2894   23056539.6564
      -137.7144
  -1883494.92248  -1447417.15244  21895082.2894   21895081.1454
      2059.9014
    925709.85548    705414.85546  20489521.4534   20489518.1644
     -1194.3004
  -1880749.63746  -1452715.52342  23397682.7274   23397679.9534
      2019.8144
   2843986.98047   2174559.72744  22792310.9384   22792306.9104
     -3232.3254
   -698768.03548   -541246.33646  21014945.6174   21014942.6454
       746.2774
 04  9  7 21 44 15.0000000  0  7G10G 3G 8G13G19G23G27
  -1700214.44946  -1315794.57842  23851603.8444   23851599.9264
      1934.3174
    -66276.60247    -54075.23042  23056959.3204   23056956.6644
      -146.2684
  -1914358.20748  -1471466.44944  21889209.2584   21889207.5164
      2057.5524
    943726.67248    719453.93046  20492949.7274   20492946.6724
     -1201.1214
  -1910974.77347  -1476267.53143  23391931.8284   23391928.6644
      2015.0094
   2892522.42647   2212379.48443  22801547.2274   22801543.1724
     -3235.6964
   -709928.75448   -549942.99646  21012821.7664   21012819.0784
       744.0484
 04  9  7 21 44 30.0000000  0  7G10G 3G 8G13G19G23G27
  -1729123.76646  -1338321.29742  23846103.5944   23846099.9924
      1927.2884
    -63954.82047    -52266.01642  23057401.0944   23057399.3674
      -154.7854
  -1945186.78948  -1495488.72344  21883342.3444   21883341.2234
      2055.2394
    961845.12548    733572.19946  20496397.8914   20496394.5784
     -1207.8974
  -1941128.09447  -1499763.54743  23386193.5004   23386191.1454
      2010.2214
   2941107.60547   2250238.03943  22810791.4454   22810787.7624
     -3239.0124
   -721056.54348   -558614.00046  21010704.1884   21010701.1484
       741.8534
 04  9  7 21 44 45.0000000  0  7G10G 3G 8G13G19G23G27
  -1757927.76246  -1360765.94142  23840622.1094   23840618.9964
      1920.2664
    -61505.48446    -50357.46542  23057867.0314   23057866.2304
      -163.2894
  -1975980.94948  -1519484.14544  21877482.9924   21877480.9694
      2052.9444
    980064.94948    747769.45746  20499864.6564   20499861.6414
     -1214.6554
  -1971209.59047  -1523203.63743  23380469.4304   23380466.1804
      2005.4334
   2989742.05147   2288134.96143  22820047.3444   22820043.5744
     -3242.2964
   -732151.78548   -567259.64146  21008592.6334   21008589.9574
       739.6834
 04  9  7 21 45  0.0000000  0  7G10G 3G 8G13G19G23G27
  -1786625.61346  -1383127.87142  23835160.9384   23835157.3054
      1913.1904
    -58927.96947    -48348.98042  23058357.6024   23058356.2274
      -171.8344
  -2006740.09848  -1543452.28944  21871629.5634   21871627.3244
      2050.6104
    998386.88748    762046.27746  20503351.1564   20503347.5164
     -1221.4624
  -2001218.26247  -1546586.97343  23374759.1954   23374755.6684
      2000.5784
   3038426.18847   2326070.59443  22829311.4144   22829308.2584
     -3245.6094
   -743213.81648   -575879.39846  21006487.5474   21006484.9414
       737.4694
 04  9  7 21 45 15.0000000  0  7G10G 3G 8G13G19G23G27
  -1815218.14146  -1405407.75842  23829720.7034   23829716.7274
      1906.1684
    -56223.12147    -46241.33242  23058873.5474   23058870.5164
      -180.3234
  -2037465.13348  -1567393.87544  21865782.6094   21865780.9064
      2048.3364
   1016809.81648    776401.80546  20506856.8134   20506853.8204
     -1228.1954
  -2031154.77047  -1569914.09843  23369062.1954   23369058.5824
      1995.7674
   3087158.80147   2364043.99243  22838585.0474   22838581.8794
     -3248.8414
   -754243.59048   -584474.01646  21004388.5314   21004385.9344
       735.3184
 04  9  7 21 45 30.0000000  0  7G10G 3G 8G13G19G23G27
  -1843702.76646  -1427603.55942  23824299.6254   23824296.2114
      1898.9754
    -53388.86747    -44032.77343  23059411.3834   23059409.6684
      -188.9504
  -2068154.03548  -1591307.27044  21859942.9224   21859940.4924
      2045.9274
   1035336.00048    790837.78546  20510382.5314   20510379.1844
     -1235.0794
  -2061016.59047  -1593183.01643  23363379.7974   23363375.8634
      1990.7884
   3135941.98446   2402056.80943  22847868.7424   22847864.6374
     -3252.2124
   -765239.01248   -593041.88346  21002296.1644   21002293.4224
       733.0284
 04  9  7 21 45 45.0000000  0  7G10G 3G 8G13G19G23G27
  -1872081.20346  -1449716.60542  23818898.7974   23818896.6524
      1891.8964
    -50426.88747    -41724.74242  23059974.8444   23059974.0944
      -197.4654
  -2098808.35548  -1615193.75044  21854109.3984   21854107.5434
      2043.6214
   1053963.46948    805352.68846  20513927.4384   20513923.7814
     -1241.8314
  -2090805.28547  -1616394.93043  23357710.2034   23357707.7584
      1985.9134
   3184773.57447   2440107.38743  22857159.9224   22857156.6844
     -3255.4394
   -776201.85548   -601584.35946  21000210.3754   21000207.3594
       730.8564
 04  9  7 21 46  0.0000000  0  7G10G 3G 8G13G19G23G27
  -1900353.20346  -1471746.71542  23813519.1884   23813516.9924
      1884.8004
    -47337.17647    -39317.18042  23060564.1174   23060562.1374
      -205.9814
  -2129428.00448  -1639053.20744  21848282.6174   21848279.8164
      2041.3104
   1072692.36748    819946.61346  20517490.9384   20517487.9574
     -1248.5934
  -2120520.43746  -1639549.57042  23352054.9534   23352052.5044
      1981.0104
   3233653.50047   2478195.58643  22866462.1254   22866458.5124
     -3258.6624
   -787132.00848   -610101.35946  20998130.3594   20998127.4614
       728.6774
 04  9  7 21 46 15.0000000  0  7G10G 3G 8G13G19G23G27
  -1928517.07446  -1493692.59042  23808160.1174   23808156.7814
      1877.5914
    -44118.27346    -36808.91442  23061175.3834   23061174.5474
      -214.5934
  -2160011.60248  -1662884.55944  21842462.7974   21842460.5784
      2038.9074
   1091523.96148    834620.57446  20521074.6724   20521071.6134
     -1255.4404
  -2150160.35547  -1662645.56243  23346415.5784   23346412.9964
      1975.9954
   3282583.02747   2516322.45343  22875773.3134   22875769.7504
     -3261.9684
   -798028.21148   -618591.90246  20996056.4454   20996054.0474
       726.4144
 04  9  7 21 46 30.0000000  0  7G10G 3G 8G13G19G23G27
  -1956571.26246  -1515552.96942  23802821.2114   23802818.6484
      1870.2794
    -40768.80146    -34198.95342  23061813.6174   23061811.6994
      -223.2984
  -2190557.75848  -1686686.74244  21836650.3914   21836648.1914
      2036.4104
   1110459.64848    849375.62946  20524678.3134   20524674.9304
     -1262.3794
  -2179723.44147  -1685681.66043  23340789.7664   23340788.2894
      1970.8724
   3331563.29347   2554488.85243  22885093.1724   22885089.9654
     -3265.3514
   -808889.07448   -627054.91446  20993990.2894   20993987.0984
       724.0584
 04  9  7 21 46 45.0000000  0  7G10G 3G 8G13G19G23G27
  -1984517.22346  -1537329.02342  23797503.7344   23797501.5984
      1863.0644
    -37290.35946    -31488.45342  23062474.9454   23062473.2854
      -231.8964
  -2221068.18448  -1710461.09044  21830844.1334   21830841.4494
      2034.0284
   1129497.76648    864210.53146  20528300.7274   20528297.7194
     -1269.2084
  -2209210.74647  -1708658.77742  23335178.7424   23335175.2814
      1965.8204
   3380592.44146   2592693.33643  22894424.0634   22894419.8444
     -3268.6104
   -819716.15248   -635491.59445  20991930.0314   20991926.8094
       721.8054
 04  9  7 21 47  0.0000000  0  7G10G 3G 8G13G19G23G27
  -2012354.21946  -1559020.16042  23792205.6414   23792203.6954
      1855.8004
    -33682.59446    -28677.16842  23063161.6094   23063159.6724
      -240.5184
  -2251542.40248  -1734207.20744  21825045.3284   21825043.1844
      2031.6154
   1148638.61348    879125.45346  20531943.1804   20531940.0664
     -1276.0574
  -2238621.75046  -1731576.37543  23329582.2274   23329578.9024
      1960.7344
   3429670.70747   2630936.10543  22903762.2974   22903759.1994
     -3271.8844
   -830509.15248   -643901.72346  20989875.8054   20989873.2774
       719.5334
 04  9  7 21 47 15.0000000  0  7G10G 3G 8G13G19G23G27
  -2040079.69946  -1580624.42242  23786929.7974   23786926.7664
      1848.3654
    -29943.06646    -25763.26642  23063873.3984   23063871.9774
      -249.3024
  -2281977.80148  -1757923.10544  21819253.8754   21819251.1604
      2029.0274
   1167884.61748    894122.32846  20535605.5164   20535602.6524
     -1283.0674
  -2267953.71146  -1754432.42642  23323999.6724   23323996.4884
      1955.4644
   3478800.35947   2669218.86343  22913112.0944   22913108.6454
     -3275.3104
   -841265.59848   -652283.37546  20987829.0864   20987826.0944
       717.0964
 04  9  7 21 47 30.0000000  0  7G10G 3G 8G13G19G23G27
  -2067694.64846  -1602142.53542  23781675.2734   23781672.0354
      1840.9974
    -26072.98846    -22747.60942  23064609.2734   23064608.2934
      -258.0054
  -2312375.62148  -1781609.71144  21813469.0944   21813466.8914
      2026.5214
   1187234.46548    909200.11746  20539287.5314   20539284.7464
     -1289.9904
  -2297207.67647  -1777227.68443  23318433.7034   23318430.9494
      1950.2644
   3527979.84847   2707540.50843  22922470.6804   22922466.6414
     -3278.6334
   -851986.89548   -660637.62546  20985789.1884   20985785.8404
       714.7534
 04  9  7 21 47 45.0000000  0  7G10G 3G 8G13G19G23G27
  -2095197.40646  -1623573.23842  23776441.2584   23776438.5084
      1833.5174
    -22070.90246    -19629.07842  23065371.1644   23065369.9454
      -266.8064
  -2342734.50848  -1805265.96944  21807692.3754   21807689.9534
      2023.9264
   1206689.57048    924359.92646  20542989.9144   20542986.6954
     -1297.0074
  -2326381.73847  -1799960.66843  23312881.9064   23312878.4384
      1944.9384
   3577210.48047   2745901.94943  22931839.4454   22931835.4654
     -3282.0424
   -862671.44948   -668963.25446  20983755.0314   20983752.7544
       712.3044
 04  9  7 21 48  0.0000000  0  7G10G 3G 8G13G19G23G27
  -2122587.91045  -1644916.44142  23771228.3834   23771226.1094
      1826.0344
    -17936.91447    -16407.78542  23066158.1954   23066155.8834
      -275.5994
  -2373054.70348  -1828892.07044  21801921.9304   21801919.5744
      2021.3464
   1226249.86748    939601.70346  20546712.6024   20546708.9804
     -1304.0204
  -2355475.78547  -1822631.29343  23307344.9924   23307340.8874
      1939.6034
   3626491.75046   2784302.90243  22941217.8594   22941213.6764
     -3285.4184
   -873319.49248   -677260.43446  20981729.3984   20981726.7274
       709.8704
 04  9  7 21 48 15.0000000  0  7G10G 3G 8G13G19G23G27
  -2149866.16846  -1666172.21542  23766038.3754   23766035.0784
      1818.5514
    -13671.19947    -13083.86742  23066969.5634   23066968.2114
      -284.3814
  -2403336.30548  -1852488.10544  21796159.5474   21796157.4344
      2018.7734
   1245915.07048    954925.23046  20550454.4144   20550451.2154
     -1311.0144
  -2384489.60947  -1845239.44943  23301823.7114   23301820.8054
      1934.2554
   3675823.39147   2822743.11743  22950604.3444   22950601.0554
     -3288.7764
   -883931.17648   -685529.25846  20979710.1954   20979707.0904
       707.4464
 04  9  7 21 48 30.0000000  0  7G10G 3G 8G13G19G23G27
  -2177031.91846  -1687340.32442  23760868.8054   23760865.7114
      1811.0504
     -9273.76647     -9657.27342  23067807.1254   23067805.5664
      -293.1624
  -2433579.07448  -1876053.88744  21790404.5234   21790402.5204
      2016.1854
   1265685.15648    970330.48446  20554216.4614   20554213.3714
     -1318.0064
  -2413423.00046  -1867784.90643  23296317.3754   23296314.9344
      1928.8934
   3725205.23847   2861222.43443  22960001.9224   22959997.5314
     -3292.1234
   -894506.56648   -693769.82046  20977697.5164   20977694.7464
       705.0264
 04  9  7 21 48 45.0000000  0  7G10G 3G 8G13G19G23G27
  -2204085.63746  -1708421.12142  23755721.0944   23755717.3364
      1803.5814
     -4745.12147     -6128.45742  23068668.2274   23068667.1844
      -301.9104
  -2463783.68448  -1899589.93744  21784657.0234   21784653.9614
      2013.6414
   1285559.43048    985816.91446  20557998.3364   20557995.2544
     -1324.9524
  -2442276.22347  -1890267.91443  23290827.9534   23290824.3484
      1923.5484
   3774636.39147   2899740.15643  22969408.8444   22969404.7384
     -3295.4104
   -905046.23848   -701982.55946  20975691.6094   20975689.0944
       702.6454
 04  9  7 21 49  0.0000000  0  7G10G 3G 8G13G19G23G27
  -2231027.61745  -1729414.87942  23750592.5864   23750590.5554
      1796.1324
       -85.64546     -2497.66843  23069555.1564   23069553.1094
      -310.6324
  -2493950.44948  -1923096.50444  21778916.3284   21778914.0744
      2011.1184
   1305537.56348   1001384.28146  20561800.0314   20561797.2544
     -1331.8764
  -2471049.32047  -1912688.45743  23285352.3594   23285350.5124
      1918.2074
   3824116.33647   2938295.91443  22978824.6094   22978820.4774
     -3298.6634
   -915550.48848   -710167.68746  20973693.5084   20973690.2584
       700.2834
 04  9  7 21 49 15.0000000  0  7G10G 3G 8G13G19G23G27
  -2257856.38746  -1750320.42642  23745487.6024   23745484.5554
      1788.5854
      4705.64846      1235.81642  23070466.2034   23070464.7464
      -319.4204
  -2524078.49648  -1946572.87944  21773183.6254   21773181.4494
      2008.5364
   1325620.51248   1017033.31646  20565621.9064   20565618.9064
     -1338.8634
  -2499740.97347  -1935045.55143  23279892.3364   23279889.8874
      1912.7774
   3873645.99647   2976890.40243  22988249.1954   22988245.5984
     -3301.9774
   -926018.43748   -718324.52346  20971700.7584   20971697.9344
       697.8634
 04  9  7 21 49 30.0000000  0  8G10G 3G 8G28G13G19G23G27
  -2284572.58246  -1771138.19942  23740404.0944   23740401.0704
      1781.0804
      9627.98846      5071.40642  23071403.1884   23071401.5044
      -328.1564
  -2554168.50848  -1970019.62944  21767457.3834   21767455.1454
      2006.0014
   -149589.88715                  24318572.664

   1345807.44148   1032763.39546  20569463.3364   20569460.1564
     -1345.7954
  -2528351.58647  -1957339.49243  23274448.6024   23274445.0044
      1907.3744
   3923224.34047   3015522.81643  22997684.1564   22997680.3794
     -3305.2234
   -936450.77748   -726453.61746  20969715.7274   20969713.4614
       695.4894
 04  9  7 21 49 45.0000000  0  8G10G 3G 8G28G13G19G23G27
  -2311177.31246  -1791869.18042  23735341.1564   23735338.4614
      1773.6494
     14680.07046      9008.08642  23072365.2734   23072363.3404
      -336.8054
  -2584221.85248  -1993437.81244  21761738.3364   21761735.3674
      2003.5564
   -199413.031 5                  24309091.430
      3321.543
   1366096.98848   1048573.42646  20573324.2894   20573321.2074
     -1352.6364
  -2556882.36347  -1979571.25043  23269018.3284   23269015.1884
      1902.0524
   3972849.64147   3054191.85944  23007127.4774   23007124.0554
     -3308.3534
   -946849.00048   -734556.13346  20967737.0864   20967734.3164
       693.2154
 04  9  7 21 50  0.0000000  0  8G10G 3G 8G28G13G19G23G27
  -2337668.85246  -1812511.93042  23730300.0394   23730296.6724
      1766.1034
     19863.34846     13047.03542  23073351.0394   23073349.5704
      -345.5524
  -2614236.81248  -2016826.08244  21756026.4844   21756024.2194
      2000.9974
   -249214.816 5                  24299614.922
      3320.119
   1386490.64848   1064464.57446  20577205.3284   20577201.6764
     -1359.5774
  -2585331.28147  -2001739.19543  23263604.9614   23263601.4654
      1896.5954
   4022523.41447   3092898.64543  23016580.5474   23016576.9614
     -3311.5854
   -957211.45348   -742630.76646  20965765.2034   20965762.5514
       690.8304
 04  9  7 21 50 15.0000000  0  8G10G 3G 8G28G13G19G23G27
  -2364049.93446  -1833068.57042  23725280.1724   23725276.5314
      1758.7394
     25174.87946     17185.91442  23074361.2344   23074360.5004
      -354.1024
  -2644216.21948  -2040186.65244  21750322.0634   21750319.3984
      1998.6274
   -298998.027 5                  24290141.367
      3318.881
   1406985.44948   1080434.53146  20581105.1094   20581101.9654
     -1366.3204
  -2613700.88348  -2023845.36343  23258206.7274   23258202.5984
      1891.3074
   4072242.57847   3131640.78943  23026040.6254   23026037.3954
     -3314.6114
   -967541.07048   -750679.81646  20963799.3914   20963796.8524
       688.6414
 04  9  7 21 50 30.0000000  0  8G10G 3G 8G28G13G19G23G27
  -2390318.09847  -1853537.26242  23720281.6484   23720277.6484
      1751.2114
     30617.15246     21426.60942  23075397.2814   23075395.9224
      -362.8184
  -2674158.01248  -2063517.88344  21744624.4454   21744621.9184
      1996.1204
   -348760.172 5                  24280671.445
      3317.476
   1427583.67248   1096485.06646  20585025.1024   20585021.6214
     -1373.2154
  -2641988.84047  -2045887.88343  23252822.6804   23252819.6914
      1885.8644
   4122009.12547   3170419.87143  23035511.5944   23035507.6214
     -3317.7704
   -977835.59048   -758701.52346  20961840.1094   20961837.7304
       686.3014
 04  9  7 21 50 45.0000000  0  8G10G 3G 8G28G13G19G23G27
  -2416472.52746  -1873917.35942  23715304.7584   23715301.1764
      1743.6294
     36190.53946     25769.53542  23076457.2734   23076456.7584
      -371.5594
  -2704061.37948  -2086819.20344  21738933.9224   21738931.2504
      1993.5584
   -398500.449 6                  24271205.391
      3316.018
   1448285.71948   1112616.53146  20588964.2584   20588960.9574
     -1380.1364
  -2670194.09847  -2067865.95743  23247455.8444   23247452.4654
      1880.3514
   4171823.46947   3209236.20743  23044990.6724   23044987.6214
     -3320.9564
   -988094.44948   -766695.44146  20959888.3284   20959886.0044
       683.9244
 04  9  7 21 51  0.0000000  0  8G10G 3G 8G28G13G19G23G27
  -2442513.38746  -1894208.89142  23710349.1024   23710346.6024
      1736.0574
     41894.59446     30214.22743  23077543.7194   23077542.1804
      -380.2704
  -2733926.88348  -2110091.01644  21733250.4224   21733247.5984
      1991.0344
   -448219.043 5                  24261743.305
      3314.573
   1469091.14848   1128828.53146  20592923.9384   20592920.3324
     -1387.0294
  -2698316.73847  -2089779.67243  23242104.4454   23242100.9144
      1874.8434
   4221684.94546   3248089.25843  23054479.0554   23054476.3714
     -3324.0984
   -998318.11748   -774661.93746  20957942.5784   20957939.7034
       681.5784
 04  9  7 21 51 15.0000000  0  8G10G 3G 8G28G13G19G23G27
  -2468440.71146  -1914412.02742  23705415.8054   23705412.9104
      1728.4884
     47729.16846     34760.66842  23078653.5084   23078652.3284
      -388.9724
  -2763754.55148  -2133333.35545  21727574.6644   21727572.0784
      1988.5114
   -497916.145 6                  24252288.070
      3313.140
   1489999.75848   1145120.94946  20596902.4064   20596899.0744
     -1393.9074
  -2726356.75447  -2111628.99643  23236768.6174   23236765.8674
      1869.3344
   4271593.11747   3286978.68043  23063975.8204   23063972.6914
     -3327.2114
  -1008506.67648   -782601.07046  20956004.1254   20956001.2114
       679.2374
 04  9  7 21 51 30.0000000  0  8G10G 3G 8G28G13G19G23G27
  -2494253.19146  -1934525.62542  23700504.2734   23700500.3404
      1720.8324
     53695.27747     39409.59443  23079789.2344   23079787.3134
      -397.7414
  -2793543.41448  -2156545.43445  21721906.1174   21721904.8984
      1985.9244
   -547590.42645   -418541.17252  24242835.3204   24242837.0164
      3311.6194
   1511012.64148   1161494.61746  20600900.8204   20600897.8554
     -1400.8594
  -2754312.86747  -2133412.97343  23231448.3284   23231445.3444
      1863.7414
   4321548.84047   3325905.16443  23073482.7814   23073479.2074
     -3330.3824
  -1018659.14148   -790512.08246  20954072.5554   20954069.3954
       676.8314
 04  9  7 21 51 45.0000000  0  8G10G 3G 8G28G13G19G23G27
  -2519951.06646  -1954549.93742  23695612.9224   23695609.2464
      1713.1924
     59792.56647     44160.75442  23080949.6804   23080947.9264
      -406.4864
  -2823293.60548  -2179727.37544  21716244.3204   21716241.9144
      1983.3464
   -597242.00445   -457230.64841  24233385.8674   24233387.3794
      3310.1054
   1532129.33648   1177949.18046  20604919.3284   20604916.1724
     -1407.7804
  -2782185.09447  -2155131.52743  23226144.7274   23226142.0204
      1858.1484
   4371551.60947   3364868.33243  23082998.0784   23082994.9734
     -3333.5184
  -1028775.91048   -798395.28146  20952146.8914   20952144.1454
       674.4514
 04  9  7 21 52  0.0000000  0  8G10G 3G 8G28G13G19G23G27
  -2545532.84445  -1974483.77042  23690745.2664   23690741.4264
      1705.4524
     66022.35946     49015.13342  23082133.8134   23082133.3324
      -415.3204
  -2853003.77348  -2202878.15244  21710590.3444   21710588.3674
      1980.6784
   -646869.34045   -495901.24241  24223942.4774   24223943.3834
      3308.4894
   1553351.04349   1194485.55946  20608957.6414   20608954.5634
     -1414.7804
  -2809971.68448  -2176783.41443  23220857.6414   23220854.0744
      1852.4394
   4421602.55147   3403869.01643  23092522.4844   23092519.2194
     -3336.7294
  -1038855.72748   -806249.68746  20950228.9384   20950226.0704
       671.9884
 04  9  7 21 52 15.0000000  0  8G10G 3G 8G28G13G19G23G27
  -2570999.70346  -1994328.08642  23685899.3054   23685895.8054
      1697.7914
     72383.28147     53971.70343  23083345.6954   23083343.9104
      -424.0614
  -2882675.39148  -2225998.87544  21704944.0164   21704942.1134
      1978.1084
   -696473.84846   -534553.99642  24214504.2664   24214503.7234
      3306.9674
   1574676.41448   1211102.72346  20613015.8054   20613012.8714
     -1421.6914
  -2837673.82447  -2198369.46143  23215585.4924   23215582.3054
      1846.8094
   4471700.03147   3442905.94943  23102055.3284   23102052.2344
     -3339.8324
  -1048899.85948   -814076.27046  20948316.9774   20948314.5984
       669.6094
 04  9  7 21 52 30.0000000  0  8G10G 3G 8G28G13G19G23G27
  -2596350.58246  -2014081.99642  23681075.0944   23681072.1844
      1690.0594
     78876.20747     59031.12143  23084580.6954   23084579.9304
      -432.8624
  -2912307.62948  -2249088.90245  21699305.0314   21699303.5004
      1975.4834
   -746054.19545   -573187.93441  24205067.2814   24205068.6804
      3305.3574
   1596106.28549   1227801.30946  20617093.6414   20617090.6564
     -1428.6584
  -2865290.18747  -2219888.69543  23210330.2974   23210326.2774
      1841.0914
   4521844.73447   3481979.70343  23111597.6564   23111594.1254
     -3342.9804
  -1058907.43448   -821874.38346  20946412.6884   20946410.6484
       667.1724
 04  9  7 21 52 45.0000000  0  8G10G 3G 8G28G13G19G23G27
  -2621585.48446  -2033745.58642  23676272.3834   23676269.9144
      1682.3274
     85500.72747     64193.07043  23085841.6334   23085840.4454
      -441.6354
  -2941900.75848  -2272148.46945  21693674.2504   21693671.2384
      1972.8754
   -795610.70346   -611803.29341  24195637.5944   24195638.3714
      3303.7674
   1617640.28549   1244581.04746  20621191.3204   20621188.1484
     -1435.6004
  -2892820.94148  -2241341.18443  23205091.7814   23205088.1884
      1835.3844
   4572036.23447   3521089.90643  23121149.3284   23121146.0434
     -3346.1004
  -1068878.83648   -829644.30546  20944515.6724   20944512.7344
       664.7604
 04  9  7 21 53  0.0000000  0  8G10G 3G 8G28G13G19G23G27
  -2646703.64146  -2053318.17242  23671492.6334   23671490.1604
      1674.5444
     92257.44547     69458.06343  23087127.8674   23087125.9384
      -450.4484
  -2971454.05948  -2295177.00845  21688050.2344   21688048.5474
      1970.2204
   -845142.37946   -650399.34842  24186212.8674   24186212.1294
      3302.1124
   1639279.02049   1261442.39146  20625309.1954   20625305.7304
     -1442.5824
  -2920265.03547  -2262726.18443  23199869.2734   23199865.6214
      1829.6064
   4622274.70747   3560236.73043  23130709.8834   23130706.4774
     -3349.2324
  -1078813.37948   -837385.52046  20942625.3204   20942622.2154
       662.3034
 04  9  7 21 53 15.0000000  0  8G10G 3G 8G28G13G19G23G27
  -2671704.79746  -2072799.59442  23666734.8984   23666732.3364
      1666.7444
     99146.63747     74826.26243  23088438.2894   23088436.2234
      -459.2794
  -3000967.18048  -2318174.22744  21682434.0704   21682431.9024
      1967.5414
   -894648.97346   -688975.85242  24176791.3444   24176791.8054
      3300.4404
   1661022.66449   1278385.48846  20629446.6254   20629443.8244
     -1449.5764
  -2947622.09447  -2284043.34043  23194663.1954   23194659.9534
      1823.8044
   4672560.21147   3599420.17243  23140277.8594   23140275.5004
     -3352.3674
  -1088710.91048   -845097.87146  20940741.3674   20940738.7074
       659.8354
 04  9  7 21 53 30.0000000  0  8G10G 3G 8G28G13G19G23G27
  -2696586.04345  -2092187.55542  23662000.1174   23661997.4264
      1658.7504
    106170.77047     80299.61743  23089774.8524   23089772.7814
      -468.2764
  -3030437.72748  -2341138.28145  21676825.8204   21676823.5784
      1964.7034
   -944127.74245   -727530.62542  24167376.0474   24167376.5434
      3298.5854
   1682873.57449   1295412.15246  20633604.6954   20633601.7624
     -1456.7274
  -2974889.24248  -2305290.43743  23189474.3284   23189470.4924
      1817.8104
   4722895.26247   3638642.21543  23149856.9144   23149853.5744
     -3355.6704
  -1098568.84848   -852779.38346  20938865.9844   20938862.8914
       657.1964
 04  9  7 21 53 45.0000000  0  8G10G 3G 8G28G13G19G23G27
  -2721350.19946  -2111484.28942  23657288.4844   23657284.7154
      1650.9444
    113326.96947     85875.91042  23091135.8284   23091134.4844
      -477.0804
  -3059868.47348  -2364071.31245  21671225.9454   21671223.3094
      1962.0504
   -993581.22745   -766065.69941  24157964.4844   24157964.7774
      3296.8994
   1704828.77749   1312520.08646  20637782.6174   20637780.1684
     -1463.6804
  -3002069.03147  -2326469.45343  23184302.0634   23184299.1254
      1811.9864
   4773276.68046   3677900.41443  23159443.4774   23159440.8714
     -3358.7614
  -1108390.14848   -860432.34846  20936996.4534   20936994.0664
       654.7534
 04  9  7 21 54  0.0000000  0  8G10G 3G 8G28G13G19G23G27
  -2745995.89545  -2130688.70742  23652598.1724   23652594.9414
      1643.0464
    120616.38747     91555.97343  23092523.0554   23092521.6294
      -485.9614
  -3089258.32848  -2386972.48044  21665632.4924   21665630.5164
      1959.3244
  -1043008.19145   -804580.13341  24148559.4304   24148558.5204
      3295.1314
   1726889.35549   1329710.13346  20641980.9534   20641977.6844
     -1470.7054
  -3029159.95347  -2347579.24643  23179146.5314   23179144.3874
      1806.0614
   4823705.31346   3717195.38743  23169039.6644   23169037.2384
     -3361.9094
  -1118173.64148   -868055.84446  20935134.5314   20935132.3014
       652.2334
 04  9  7 21 54 15.0000000  0  8G10G 3G 8G28G13G19G23G27
  -2770519.90245  -2149798.32042  23647932.3754   23647929.2424
      1634.9344
    128041.85247     97342.06642  23093936.5314   23093934.8364
      -495.0314
  -3118604.15248  -2409839.35544  21660048.7664   21660046.1644
      1956.3884
  -1092405.50846   -843071.48441  24139158.8284   24139159.3054
      3293.1544
   1749058.27749   1346984.60946  20646199.9454   20646196.6994
     -1477.9284
  -3056158.93447  -2368617.35543  23174008.9924   23174005.7464
      1799.9324
   4874184.03147   3756529.38743  23178645.9924   23178642.8634
     -3365.2484
  -1127916.35249   -875647.55946  20933281.0784   20933278.1524
       649.5144
 04  9  7 21 54 30.0000000  0  8G10G 3G 8G28G13G19G23G27
  -2794926.21145  -2168816.22742  23643286.6024   23643284.2894
      1627.0874
    135599.25846    103230.94143  23095374.4384   23095373.9304
      -503.8274
  -3147910.27348  -2432675.27345  21654471.4694   21654470.4494
      1953.7414
  -1141777.07046   -881542.77742  24129763.7504   24129764.6524
      3291.4384
   1771331.39149   1364340.26246  20650438.1094   20650435.0744
     -1484.8744
  -3083069.66447  -2389586.74643  23168887.8364   23168884.7664
      1794.0494
   4924708.34047   3795898.94943  23188260.1094   23188257.7544
     -3368.2874
  -1137622.46948   -883210.77346  20931434.2424   20931431.1564
       647.0744
 04  9  7 21 54 45.0000000  0  8G10G 3G 8G28G13G19G23G27
  -2819213.17246  -2187741.11342  23638665.2814   23638663.2304
      1619.1314
    143290.00047    109223.73842  23096838.5944   23096837.8014
      -512.7164
  -3177174.96548  -2455478.89845  21648903.3134   21648900.6414
      1950.9794
  -1191121.37946   -919992.78142  24120374.9144   24120374.9064
      3289.6214
   1793710.19549   1381778.28546  20654696.9304   20654693.4574
     -1491.9204
  -3109890.49647  -2410486.05543  23163783.1174   23163780.5554
      1788.0554
   4975279.66446   3835305.11342  23197883.6804   23197880.5704
     -3371.4224
  -1147290.46948   -890744.27346  20929593.9384   20929591.5904
       644.5334
 04  9  7 21 55  0.0000000  0  8G10G 3G 8G28G13G19G23G27
  -2843381.49245  -2206573.55542  23634065.4534   23634063.7624
      1611.2214
    151113.13347    115319.69143  23098327.0944   23098326.5354
      -521.5424
  -3206399.19548  -2478251.03945  21643341.7274   21643339.0664
      1948.2824
  -1240439.03146   -958422.04742  24110989.2504   24110989.1804
      3287.8434
   1816193.66049   1399297.85946  20658975.2194   20658972.0434
     -1498.8984
  -3136622.00847  -2431315.78943  23158697.3284   23158694.0004
      1782.1014
   5025896.80147   3874747.01243  23207516.5864   23207511.7544
     -3374.4764
  -1156921.18448   -898248.72346  20927761.8914   20927758.9264
       642.0484
 04  9  7 21 55 15.0000000  0  8G10G 3G 8G28G13G19G23G27
  -2867431.97745  -2225314.16042  23629489.1334   23629487.5634
      1603.3664
    159067.75047    121518.09843  23099841.4224   23099839.1524
      -530.3084
  -3235583.80548  -2500992.26645  21637787.9304   21637785.7544
      1945.6414
  -1289730.74646   -996831.12542  24101610.0864   24101608.4734
      3286.1144
   1838780.78549   1416898.19946  20663273.4534   20663270.3134
     -1505.8084
  -3163264.77747  -2452076.32843  23153627.0554   23153624.3164
      1776.1854
   5076558.75446   3914223.77043  23217156.4384   23217152.6024
     -3377.4644
  -1166515.66848   -905724.94946  20925935.7584   20925933.0554
       639.6324
 04  9  7 21 55 30.0000000  0  8G10G 3G 8G28G13G19G23G27
  -2891361.48845  -2243960.52342  23624934.9064   23624934.1214
      1595.3014
    167156.69947    127821.16042  23101380.0784   23101378.5084
      -539.2634
  -3264726.02048  -2523700.46545  21632242.5944   21632240.5984
      1942.8144
  -1338993.46946  -1035217.57841  24092234.9534   24092234.0204
      3284.1824
   1861474.21548   1434581.40246  20667591.2274   20667588.5664
     -1512.8954
  -3189815.70348  -2472765.35943  23148575.2504   23148571.3634
      1770.0624
   5127268.01247   3953737.46143  23226807.1564   23226803.5004
     -3380.6174
  -1176071.02349   -913170.66846  20924117.3914   20924114.7854
       637.0244
 04  9  7 21 55 45.0000000  0  8G10G 3G 8G28G13G19G23G27
  -2915169.27745  -2262512.04342  23620405.2504   23620402.8914
      1587.1864
    175380.56347    134229.37543  23102944.8834   23102943.2544
      -548.2584
  -3293825.14148  -2546375.09445  21626704.7664   21626703.0354
      1939.9414
  -1388226.44545  -1073580.85941  24082866.4694   24082865.1294
      3282.1984
   1884274.64149   1452347.94546  20671930.6724   20671927.2894
     -1520.0284
  -3216273.89547  -2493382.07043  23143539.8524   23143536.7344
      1763.8794
   5178025.14547   3993288.39143  23236465.7114   23236462.3594
     -3383.8094
  -1185586.62948   -920585.42646  20922307.0084   20922303.7154
       634.3744
 04  9  7 21 56  0.0000000  0  8G10G 3G 8G28G13G19G23G27
  -2938856.44145  -2280969.56242  23615897.5084   23615894.5634
      1579.1444
    183738.00847    140741.68443  23104535.4694   23104533.2304
      -557.1634
  -3322882.27048  -2569016.98444  21621175.5474   21621172.7814
      1937.1424
  -1437430.78545  -1111921.82041  24073502.7504   24073500.5514
      3280.2894
   1907180.69948   1470196.80946  20676289.0634   20676285.9264
     -1527.0714
  -3242640.23048  -2513927.25843  23138523.0004   23138518.7664
      1757.7564
   5228828.48447   4032875.35543  23246132.9774   23246130.0434
     -3386.8894
  -1195063.79748   -927970.22746  20920503.1644   20920500.4924
       631.8114
 04  9  7 21 56 15.0000000  0  8G10G 3G 8G28G13G19G23G27
  -2962422.69146  -2299332.85242  23611413.9454   23611411.4104
      1571.0834
    192229.11347    147358.13343  23106150.6414   23106149.5274
      -566.0744
  -3351897.32448  -2591626.10945  21615654.2424   21615651.8874
      1934.3374
  -1486606.16846  -1150240.21541  24064145.6644   24064143.4264
      3278.3594
   1930192.35949   1488127.94946  20680668.6954   20680665.1334
     -1534.1114
  -3268914.41047  -2534400.61343  23133523.1414   23133520.2034
      1751.6124
   5279677.91047   4072498.24642  23255809.3284   23255806.3954
     -3389.9624
  -1204502.34848   -935324.94146  20918707.1804   20918704.1764
       629.2374
 04  9  7 21 56 30.0000000  0  8G10G 3G 8G28G13G19G23G27
  -2985866.48046  -2317600.70342  23606952.2664   23606949.1294
      1562.9194
    200855.09046    154079.68442  23107792.5004   23107790.6524
      -575.0654
  -3380869.09848  -2614201.51245  21610141.2274   21610138.7584
      1931.4524
  -1535751.10246  -1188534.89141  24054792.2814   24054792.3444
      3276.3294
   1953310.95348   1506142.41846  20685067.5234   20685064.1334
     -1541.2404
  -3295094.76647  -2554800.85543  23128540.6884   23128537.4344
      1745.3574
   5330574.60946   4112157.93043  23265494.4384   23265491.4884
     -3393.1134
  -1213901.07449   -942648.62946  20916918.5394   20916915.5474
       626.5824
 04  9  7 21 56 45.0000000  0  8G10G 3G 8G28G13G19G23G27
  -3009187.21146  -2335772.71942  23602514.2344   23602511.0704
      1554.7154
    209616.39547    160906.69142  23109459.6644   23109458.0394
      -584.0874
  -3409797.01248  -2636742.72745  21604636.3524   21604634.3014
      1928.5284
  -1584864.99646  -1226805.35942  24045446.7504   24045446.5354
      3274.2604
   1976536.94149   1524240.57846  20689487.5784   20689484.2894
     -1548.3994
  -3321180.60247  -2575127.43743  23123576.6954   23123572.6174
      1739.0564
   5381518.87947   4151854.71943  23275188.8834   23275186.3914
     -3396.2854
  -1223259.39148   -949940.81646  20915137.8594   20915135.1134
       623.8884
 04  9  7 21 57  0.0000000  0  8G10G 3G 8G28G13G19G23G27
  -3032386.73446  -2353850.27042  23598100.0084   23598096.8014
      1546.6354
    218510.82447    167837.41042  23111152.4454   23111151.1764
      -592.9624
  -3438683.20348  -2659251.41844  21599139.0944   21599136.6994
      1925.7464
  -1633949.63746  -1265053.02342  24036105.9844   24036106.1604
      3272.3094
   1999868.27349   1542420.83246  20693927.2114   20693924.1844
     -1555.4224
  -3347173.65247  -2595381.74243  23118630.7424   23118626.3914
      1732.8704
   5432508.36747   4191586.72743  23284892.0944   23284889.2664
     -3399.2994
  -1232579.43748   -957203.18446  20913364.2974   20913361.5744
       621.3364
 04  9  7 21 57 15.0000000  0  8G10G 3G 8G28G13G19G23G27
  -3055463.27346  -2371831.95742  23593708.2584   23593705.0124
      1538.4364
    227540.16447    174873.26642  23112870.7974   23112869.4884
      -601.9564
  -3467525.72348  -2681726.09044  21593650.6564   21593647.4804
      1922.8354
  -1683003.12546  -1303276.44142  24026772.1334   24026771.2034
      3270.2334
   2023306.53148   1560684.40246  20698387.3284   20698384.2034
     -1562.5514
  -3373071.91047  -2615562.18742  23113702.6024   23113698.5634
      1726.5514
   5483544.63347   4231355.19543  23294603.7034   23294601.0554
     -3402.4184
  -1241859.53948   -964434.44146  20911598.4694   20911595.8714
       618.6734
 04  9  7 21 57 30.0000000  0  8G10G 3G 8G28G13G19G23G27
  -3078416.48847  -2389717.59042  23589341.2194   23589337.6724
      1530.2144
    236704.63346    182014.40642  23114614.2274   23114613.2704
      -610.9654
  -3496324.48048  -2704166.68045  21588170.3364   21588167.5164
      1919.9174
  -1732025.10946  -1341475.35941  24017443.5004   24017442.2774
      3268.1324
   2046851.71548   1579031.29346  20702867.5084   20702865.0744
     -1569.6794
  -3398874.93047  -2635668.38343  23108792.1254   23108788.1724
      1720.2014
   5534627.64547   4271160.10542  23304325.2114   23304321.4494
     -3405.5344
  -1251099.38348   -971634.31246  20909839.9614   20909837.2234
       615.9904
 04  9  7 21 57 45.0000000  0  8G10G 3G 8G28G13G19G23G27
  -3101248.74246  -2407508.95342  23584996.0944   23584992.6844
      1522.1504
    246001.50046    189258.72742  23116383.5554   23116382.4844
      -619.7914
  -3525081.90248  -2726575.06245  21582698.1024   21582696.5124
      1917.1614
  -1781018.01246  -1379651.57041  24008120.5314   24008117.9884
      3266.1934
   2070501.14549   1597459.39546  20707367.9694   20707365.0944
     -1576.6294
  -3424585.07847  -2655702.22743  23103899.8134   23103896.0864
      1714.0104
   5585754.53147   4310999.18043  23314054.5554   23314050.5354
     -3408.4594
  -1260301.59449   -978804.86346  20908088.8444   20908086.1914
       613.4814
 04  9  7 21 58  0.0000000  0  8G10G 3G 8G28G13G19G23G27
  -3123956.49246  -2425203.27042  23580674.8524   23580671.8914
      1513.8504
    255434.26246    196608.92242  23118178.4064   23118177.1844
      -628.8514
  -3553794.74648  -2748948.66845  21577234.0634   21577233.0164
      1914.1904
  -1829978.38346  -1417802.43741  23998803.2114   23998801.6604
      3264.0254
   2094258.20749   1615971.38346  20711888.9694   20711886.1214
     -1583.8044
  -3450198.53947  -2675660.75843  23099025.7664   23099021.9734
      1707.5644
   5636928.52347   4350874.95743  23323792.4304   23323788.7974
     -3411.5994
  -1269462.80549   -985943.47746  20906345.6954   20906342.8204
       610.7474
 04  9  7 21 58 15.0000000  0  8G10G 3G 8G28G13G19G23G27
  -3146539.79747  -2442800.66842  23576377.1484   23576374.2774
      1505.5544
    265002.34846    204064.60542  23119999.7504   23119997.4264
      -637.8724
  -3582463.09848  -2771287.63345  21571778.9384   21571776.5274
      1911.2234
  -1878906.20346  -1455927.98441  23989492.8834   23989491.1024
      3261.8554
   2118122.44149   1634566.86746  20716430.8284   20716427.5004
     -1590.9494
  -3475715.57847  -2695544.10943  23094169.1954   23094166.2034
      1701.1364
   5688148.99647   4390786.96942  23333539.4924   23333536.0984
     -3414.6984
  -1278583.43748   -993050.46146  20904609.8054   20904607.0904
       608.0424
 04  9  7 21 58 30.0000000  0  8G10G 3G 8G28G13G19G23G27
  -3168999.75446  -2460301.93042  23572102.7974   23572098.5944
      1497.3304
    274704.54346    211624.76642  23121846.1174   23121844.2194
      -646.8134
  -3611088.26248  -2793592.94145  21566331.4384   21566328.2274
      1908.3444
  -1927802.53947  -1494028.97342  23980188.6094   23980187.1724
      3259.7564
   2142092.57049   1653244.89146  20720991.6334   20720988.5944
     -1598.0094
  -3501137.00847  -2715353.00043  23089332.1414   23089328.5354
      1694.7624
   5739414.62147   4430734.16042  23343294.2194   23343291.7464
     -3417.7084
  -1287664.63749  -1000126.71946  20902882.0474   20902879.0084
       605.4134
 04  9  7 21 58 45.0000000  0  8G10G 3G 8G28G13G19G23G27
  -3191336.95747  -2477707.53542  23567852.6484   23567849.2384
      1489.1474
    284539.97746    219288.72342  23123716.7424   23123715.3244
      -655.6964
  -3639671.07048  -2815865.26245  21560892.2344   21560890.2774
      1905.5214
  -1976668.09447  -1532105.96542  23970889.3134   23970887.8834
      3257.7044
   2166167.81349   1672004.81346  20725573.2664   20725569.8284
     -1605.0164
  -3526463.37547  -2735087.78543  23084512.4614   23084508.7074
      1688.4244
   5790724.19547   4470715.59043  23353058.2034   23353055.6564
     -3420.6384
  -1296707.21948  -1007172.89146  20901161.1094   20901158.4694
       602.8394
 04  9  7 21 59  0.0000000  0  8G10G 3G 8G28G13G19G23G27
  -3213549.69547  -2495016.13342  23563625.2034   23563622.1134
      1480.8494
    294510.18046    227057.70742  23125614.9694   23125612.8634
      -664.6804
  -3668209.87948  -2838103.27045  21555461.4534   21555459.4804
      1902.5874
  -2025500.99246  -1570157.53942  23961596.2894   23961596.0984
      3255.5274
   2190349.54749   1690847.71146  20730174.8364   20730171.2274
     -1612.1164
  -3551692.73047  -2754747.00843  23079711.5554   23079707.5084
      1681.9574
   5842079.27747   4510732.48443  23362831.3204   23362828.6254
     -3423.6724
  -1305709.50448  -1014187.64146  20899448.1484   20899445.5904
       600.1524
 04  9  7 21 59 15.0000000  0  8G10G 3G 8G28G13G19G23G27
  -3235637.69546  -2512227.57842  23559421.9144   23559417.3134
      1472.5334
    304615.02045    234931.62942  23127537.3594   23127534.8284
      -673.6564
  -3696704.51648  -2860306.86345  21550039.1644   21550037.0434
      1899.6424
  -2074301.07846  -1608183.49642  23952308.9224   23952309.6024
      3253.3394
   2214637.84049   1709773.64546  20734796.5864   20734793.3094
     -1619.2204
  -3576824.95747  -2774330.49643  23074929.0164   23074926.2234
      1675.4824
   5893479.60547   4550784.65643  23372612.6724   23372609.9654
     -3426.6894
  -1314671.49248  -1021171.02046  20897742.9384   20897739.9494
       597.4664
 04  9  7 21 59 30.0000000  0  8G10G 3G 8G28G13G19G23G27
  -3257602.33647  -2529342.87542  23555242.9384   23555238.3284
      1464.3094
    314853.22346    242909.41441  23129484.9924   23129483.3484
      -682.5474
  -3725156.52348  -2882477.24645  21544625.4384   21544622.4064
      1896.8014
  -2123069.62146  -1646184.85542  23943029.1884   23943029.3754
      3251.2364
   2239031.27349   1728781.51246  20739438.8134   20739435.6914
     -1626.2294
  -3601860.93446  -2793839.02743  23070164.1174   23070161.8134
      1669.0654
   5944923.61346   4590870.82442  23382401.6644   23382400.2194
     -3429.6014
  -1323594.71549  -1028124.17246  20896044.8204   20896041.7854
       594.8824
 04  9  7 21 59 45.0000000  0  8G10G 3G 8G28G13G19G23G27
  -3279442.97746  -2546361.55942  23551086.3204   23551083.1254
      1456.0434
    325225.18845    250991.46941  23131459.2344   23131457.5864
      -691.4644
  -3753565.31648  -2904613.94945  21539219.1484   21539216.7304
      1893.9204
  -2171805.82047  -1684161.02342  23933755.3204   23933754.8874
      3249.0804
   2263530.16049   1747871.53946  20744100.5164   20744097.6804
     -1633.2594
  -3626799.94947  -2813271.99643  23065418.4454   23065416.0234
      1662.6014
   5996411.59446   4630991.25042  23392199.2424   23392197.7544
     -3432.5324
  -1332478.52748  -1035046.62946  20894354.2504   20894351.0784
       592.2544
 04  9  7 22  0  0.0000000  0  8G10G 3G 8G28G13G19G23G27
  -3301157.39146  -2563281.87142  23546954.1644   23546950.7774
      1447.6284
    335732.65644    259179.07041  23133458.1254   23133456.9024
      -700.4984
  -3781928.77348  -2926715.35245  21533821.7114   21533819.6684
      1890.8974
  -2220507.61746  -1722110.41042  23924487.2114   23924487.4734
      3246.7864
   2288136.28549   1767045.12146  20748782.7584   20748779.8484
     -1640.4084
  -3651639.76647  -2832627.69143  23060691.8834   23060688.4064
      1655.9884
   6047945.19546   4671147.25042  23402006.3524   23402004.1564
     -3435.5734
  -1341321.00848  -1041936.86746  20892671.9844   20892668.5704
       589.4994
 04  9  7 22  0 15.0000000  0  8G10G 3G 8G28G13G19G23G27
  -3322747.75047  -2580105.53142  23542845.7114   23542842.1564
      1439.3574
    346373.50445    267470.75041  23135484.0234   23135482.5004
      -709.3904
  -3810249.23848  -2948783.23045  21528432.7194   21528430.9414
      1888.0314
  -2269177.00846  -1760034.53942  23915225.8524   23915224.6844
      3244.6264
   2312847.47349   1786300.57846  20753485.3524   20753482.2544
     -1647.4124
  -3676382.45747  -2851907.65243  23055983.7664   23055980.5634
      1649.5134
   6099521.98846   4711336.91442  23411821.0944   23411817.5824
     -3438.4534
  -1350124.44948  -1048796.68446  20890996.2424   20890993.3674
       586.8964
 04  9  7 22  0 30.0000000  0  8G10G 3G 8G28G13G19G23G27
  -3344213.93046  -2596832.41042  23538760.4144   23538756.9574
      1431.0794
    357147.54344    275866.09041  23137533.7344   23137532.2704
      -718.2694
  -3838526.67249  -2970817.56245  21523051.4384   21523048.6254
      1885.1624
  -2317813.91847  -1797933.32442  23905970.2664   23905968.9494
      3242.4614
   2337663.71149   1805637.89145  20758207.2814   20758204.7424
     -1654.4164
  -3701027.71147  -2871111.72743  23051294.2424   23051290.1994
      1643.0174
   6151141.64846   4751559.94143  23421643.3524   23421641.5084
     -3441.3114
  -1358888.86348  -1055626.09846  20889328.2734   20889325.8014
       584.2944
 04  9  7 22  0 45.0000000  0  8G10G 3G 8G28G13G19G23G27
  -3365551.84046  -2613459.36742  23534700.6334   23534697.2424
      1422.5274
    368058.36344    284368.01241  23139610.2584   23139608.1844
      -727.3884
  -3866757.15249  -2992815.33645  21517679.4064   21517676.1764
      1882.0324
  -2366414.28546  -1835803.59442  23896721.4304   23896720.8914
      3240.0244
   2362588.55549   1825059.83246  20762950.9774   20762947.3634
     -1661.6564
  -3725571.38347  -2890236.62143  23046623.2344   23046619.9694
      1636.2454
   6202807.95347   4791819.35543  23431475.8754   23431473.6334
     -3444.4204
  -1367610.26649  -1062421.99646  20887668.4534   20887665.8954
       581.4274
 04  9  7 22  1  0.0000000  0  8G10G 3G 8G28G13G19G23G27
  -3386762.77046  -2629987.32042  23530664.3444   23530660.5274
      1414.0624
    379104.91045    292975.62541  23141713.2664   23141710.0704
      -736.4364
  -3894942.22748  -3014777.72345  21512316.2034   21512313.9494
      1879.0054
  -2414979.29146  -1873646.46142  23887479.8284   23887478.8444
      3237.6674
   2387620.48049   1844565.21146  20767714.1334   20767710.9344
     -1668.7954
  -3750014.65648  -2909283.30943  23041972.2344   23041968.4024
      1629.5524
   6254519.28546   4832113.83242  23441316.1884   23441313.5744
     -3447.4224
  -1376290.15648  -1069185.53946  20886017.3754   20886014.0204
       578.6594
 04  9  7 22  1 15.0000000  0  8G10G 3G 8G28G13G19G23G27
  -3407845.79346  -2646415.66842  23526652.0944   23526649.3244
      1405.5354
    390287.58245    301689.39541  23143840.5864   23143837.8204
      -745.5114
  -3923080.99648  -3036704.02045  21506961.3524   21506959.0634
      1875.9184
  -2463508.05546  -1911460.98041  23878245.3524   23878244.2934
      3235.2514
   2412760.34449   1864154.69146  20772498.2734   20772495.3874
     -1675.9914
  -3774356.53147  -2928250.95743  23037339.7194   23037335.5984
      1622.7924
   6306276.12547   4872443.80543  23451165.3284   23451162.3754
     -3450.4564
  -1384927.64849  -1075916.04346  20884373.3284   20884370.5514
       575.8334
 04  9  7 22  1 30.0000000  0  8G10G 3G 8G28G13G19G23G27
  -3428800.41846  -2662743.91842  23522664.3754   23522660.9774
      1396.9754
    401606.80544    310509.60941  23145994.0554   23145991.9774
      -754.6154
  -3951172.98448  -3058593.87145  21501615.7584   21501613.2774
      1872.7994
  -2512000.00446  -1949246.80942  23869018.0084   23869017.5514
      3232.7974
   2438008.37149   1883828.46946  20777302.5474   20777299.6214
     -1683.2024
  -3798596.15646  -2947138.97343  23032727.2274   23032723.7464
      1615.9754
   6358078.82447   4912809.47343  23461023.3524   23461020.3324
     -3453.5134
  -1393522.49648  -1082613.33646  20882737.9224   20882734.4884
       572.9904
 04  9  7 22  1 45.0000000  0  8G10G 3G 8G28G13G19G23G27
  -3449627.25046  -2678972.62942  23518701.7424   23518698.8984
      1388.4554
    413061.69945    319435.55941  23148174.5634   23148172.1954
      -763.6604
  -3979218.90649  -3080447.81645  21496278.7504   21496276.3714
      1869.7284
  -2560455.59846  -1987004.36342  23859797.1724   23859796.9494
      3230.3734
   2463363.77049   1903585.91846  20782127.3284   20782124.7934
     -1690.3604
  -3822734.27047  -2965947.85943  23028133.7114   23028129.6724
      1609.2084
   6409926.18446   4953209.94943  23470889.2504   23470886.9384
     -3456.4914
  -1402075.45748  -1089277.96946  20881110.2664   20881107.4884
       570.1974
 04  9  7 22  2  0.0000000  0  8G10G 3G 8G28G13G19G23G27
  -3470324.78546  -2695100.58642  23514762.0634   23514760.5044
      1379.8364
    424653.69144    328468.19541  23150379.8284   23150377.7154
      -772.7994
  -4007217.28948  -3102264.72345  21490950.7664   21490948.6454
      1866.5594
  -2608873.44946  -2024732.46142  23850583.5944   23850583.2154
      3227.8574
   2488827.78549   1923427.98046  20786973.1024   20786970.6374
     -1697.6014
  -3846769.10247  -2984676.27043  23023559.3364   23023556.4064
      1602.3224
   6461819.29346   4993646.09042  23480763.8284   23480761.6094
     -3459.5414
  -1410585.11348  -1095908.87546  20879491.1254   20879488.4024
       567.3104
 04  9  7 22  2 15.0000000  0  8G10G 3G 8G28G13G19G23G27
  -3490894.59846  -2711128.98442  23510848.8524   23510845.4264
      1371.3214
    436380.76243    337606.26241  23152610.9454   23152609.5164
      -781.8054
  -4035170.01248  -3124046.05145  21485631.4064   21485629.1684
      1863.5154
  -2657255.27045  -2062432.50442  23841376.8134   23841376.1644
      3225.4554
   2514398.55149   1943353.23846  20791839.0784   20791836.1644
     -1704.7184
  -3870702.10947  -3003325.34043  23019005.5004   23019002.3054
      1595.5344
   6513756.25446   5034116.37942  23490647.9144   23490644.5664
     -3462.4644
  -1419053.28548  -1102507.44546  20877879.4304   20877876.6214
       564.5454
 04  9  7 22  2 30.0000000  0  8G10G 3G 8G28G13G19G23G27
  -3511335.05546  -2727056.56242  23506958.8754   23506956.1054
      1362.6974
    448244.53544    346850.70741  23154868.4144   23154866.9654
      -790.9184
  -4063075.57049  -3145790.64145  21480321.0084   21480318.9144
      1860.3714
  -2705599.20745  -2100103.09441  23832175.6884   23832176.4844
      3222.9294
   2540077.59049   1963362.86746  20796725.9454   20796722.7464
     -1711.9364
  -3894531.59446  -3021893.73043  23014470.4844   23014467.0784
      1588.6324
   6565738.35246   5074621.84042  23500539.7974   23500536.3164
     -3465.4734
  -1427478.40648  -1109072.47746  20876276.2034   20876273.4534
       561.6754
 04  9  7 22  2 45.0000000  0  8G10G 3G 8G28G13G19G23G27
  -3531646.60246  -2742883.74242  23503092.5474   23503091.0704
      1354.1034
    460244.06344    356200.95341  23157152.1094   23157150.5394
      -799.9684
  -4090934.26648  -3167498.69945  21475019.7114   21475017.5434
      1857.2464
  -2753905.66844  -2137744.43441  23822983.0234   23822984.3054
      3220.4314
   2565863.89149   1983456.09046  20801632.8674   20801629.8014
     -1719.0874
  -3918257.92247  -3040381.75443  23009956.0554   23009952.4734
      1581.7554
   6617764.69546   5115161.77342  23510439.3134   23510436.1374
     -3468.4234
  -1435861.15248  -1115604.48046  20874681.3984   20874678.4304
       558.8504
 04  9  7 22  3  0.0000000  0  8G10G 3G 8G28G13G19G23G27
  -3551827.53546  -2758609.17642  23499252.5474   23499251.0634
      1345.3964
    472380.78545    365658.12141  23159461.3594   23159459.8164
      -809.1154
  -4118744.82448  -3189169.23845  21469727.4224   21469724.8634
      1854.0374
  -2802173.06644  -2175355.28141  23813797.2034   23813798.7234
      3217.8274
   2591759.05549   2003634.12946  20806560.3054   20806557.6884
     -1726.3444
  -3941879.33647  -3058788.03143  23005460.6414   23005457.7584
      1574.7614
   6669836.63046   5155737.23042  23520348.3444   23520345.5354
     -3471.4624
  -1444200.00449  -1122102.30146  20873094.4534   20873091.4884
       555.9234
 04  9  7 22  3 15.0000000  0  8G10G 3G 8G28G13G19G23G27
  -3571878.55146  -2774233.28942  23495437.3444   23495435.1294
      1336.7344
    484654.00844    375221.69141  23161797.6484   23161795.5514
      -818.2154
  -4146507.80948  -3210802.73045  21464444.9534   21464441.9804
      1850.8664
  -2850401.82845  -2212936.05541  23804621.1954   23804621.4454
      3215.2514
   2617762.19949   2023896.30146  20811509.2194   20811505.6454
     -1733.5434
  -3965396.27747  -3077112.88344  23000985.5944   23000982.9024
      1567.7964
   6721953.18046   5196347.48042  23530266.5704   23530263.4414
     -3474.4374
  -1452495.55548  -1128566.35246  20871515.5864   20871513.0514
       553.0374
 04  9  7 22  3 30.0000000  0  8G10G 3G 8G28G13G19G23G27
  -3591800.11346  -2789756.60242  23491646.3364   23491643.5704
      1328.1044
    497062.930 4                  23164158.977
      -827.261
  -4174223.96548  -3232399.71945  21459170.1414   21459168.2934
      1847.7444
  -2898592.62946  -2250487.27041  23795452.1564   23795450.8554
      3212.7204
   2643872.65649   2044242.09846  20816477.2274   20816474.4654
     -1740.6974
  -3988809.16847  -3095356.67243  22996530.3754   22996527.2114
      1560.8594
   6774113.39847   5236991.74242  23540192.4384   23540189.3914
     -3477.3484
  -1460748.66448  -1134997.34446  20869945.1094   20869942.6174
       550.2074
 04  9  7 22  3 45.0000000  0  7G10G 8G28G13G19G23G27
  -3611592.30946  -2805179.09442  23487880.4774   23487877.1484
      1319.4804
  -4201893.56248  -3253960.43745  21453904.9924   21453902.2584
      1844.6404
  -2946745.47746  -2288008.90641  23786287.9924   23786288.4734
      3210.1904
   2670090.07849   2064671.23846  20821466.4224   20821463.7074
     -1747.8284
  -4012117.91847  -3113519.29743  22992095.1254   22992091.2274
      1553.9174
   6826316.77746   5277669.64542  23550125.9534   23550124.2234
     -3480.2254
  -1468959.58648  -1141395.46146  20868382.8054   20868379.7814
       547.3954
 04  9  7 22  4  0.0000000  0  7G10G 8G28G13G19G23G27
  -3631255.32046  -2820500.87542  23484138.0704   23484135.2734
      1310.8674
  -4229516.59448  -3275484.85945  21448648.2734   21448645.9184
      1841.5354
  -2994860.52344  -2325501.04741  23777131.6174   23777131.0004
      3207.6704
   2696414.06649   2085183.41446  20826475.9774   20826473.0004
     -1754.9334
  -4035322.63347  -3131600.88743  22987679.6884   22987675.8674
      1546.9814
   6878562.82046   5318380.80542  23560067.7034   23560065.2854
     -3483.0704
  -1477128.38348  -1147760.75446  20866828.1094   20866825.1764
       544.5864
 04  9  7 22  4 15.0000000  0  7G10G 8G28G13G19G23G27
  -3650789.12546  -2835722.04742  23480421.6564   23480417.6884
      1302.2544
  -4257093.44148  -3296973.30945  21443400.7344   21443398.0594
      1838.4574
  -3042937.60245  -2362963.65241  23767982.8674   23767980.8444
      3205.1394
   2722844.34049   2105778.43446  20831505.4924   20831502.3794
     -1762.0184
  -4058423.21947  -3149601.29744  22983283.1254   22983280.5784
      1540.0394
   6930851.23446   5359124.94942  23570018.6174   23570015.3984
     -3485.8944
  -1485255.30549  -1154093.42246  20865281.3524   20865278.9924
       541.7954
 04  9  7 22  4 30.0000000  0  7G10G 8G28G13G19G23G27
  -3670192.88746  -2850841.83642  23476729.2114   23476725.6844
      1293.5844
  -4284623.39548  -3318425.19545  21438161.4694   21438160.1524
      1835.3304
  -3090975.84445  -2400395.96541  23758841.9694   23758839.8984
      3202.5494
   2749381.66049   2126456.84046  20836554.9454   20836552.5004
     -1769.1554
  -4081418.57447  -3167519.71544  22978906.8444   22978904.6484
      1533.0244
   6983182.68846   5399902.63742  23579976.3284   23579974.1804
     -3488.7644
  -1493339.62948  -1160392.89846  20863743.5314   20863740.5234
       538.9554
 04  9  7 22  4 45.0000000  0  8G10G 3G 8G28G13G19G23G27
  -3689464.91047  -2865858.98042  23473061.1954   23473059.2304
      1284.8024
      9082.67614                  23176353.586

  -4312104.69548  -3339839.16445  21432932.3054   21432929.8484
      1832.0874
  -3138973.51245  -2437796.63341  23749708.2894   23749706.3594
      3199.8454
   2776027.32049   2147219.68446  20841625.4844   20841622.7704
     -1776.3774
  -4104306.85547  -3185354.73044  22974552.5784   22974549.2894
      1525.8854
   7035558.41446   5440714.83643  23589943.7504   23589941.5434
     -3491.7154
  -1501379.69949  -1166657.88346  20862213.3984   20862210.6884
       536.0054
 04  9  7 22  5  0.0000000  0  8G10G 3G 8G28G13G19G23G27
  -3708606.91046  -2880774.84442  23469419.2734   23469416.3594
      1276.1334
     22304.270 4                  23178868.367
      -881.440
  -4339538.85549  -3361216.44145  21427712.0704   21427709.2584
      1828.9444
  -3186932.24645  -2475167.00841  23740581.4064   23740579.9534
      3197.2494
   2802779.46149   2168065.49645  20846715.9844   20846713.3634
     -1783.4764
  -4127089.81647  -3203107.66043  22970217.3754   22970212.8754
      1518.8644
   7087976.39846   5481559.94543  23599918.2814   23599916.6454
     -3494.5324
  -1509377.33248  -1172889.79746  20860691.7274   20860688.9804
       533.1764
 04  9  7 22  5 15.0000000  0  8G10G 3G 8G28G13G19G23G27
  -3727619.35546  -2895589.70742  23465800.8134   23465797.7854
      1267.4964
     35660.242 3                  23181409.641
      -890.398
  -4366926.65648  -3382557.57045  21422499.8914   21422498.2074
      1825.8534
  -3234852.51645  -2512507.41441  23731462.1414   23731461.5234
      3194.6854
   2829637.46549   2188993.80146  20851827.2344   20851824.1644
     -1790.5344
  -4149767.67248  -3220778.70344  22965901.6414   22965896.8094
      1511.8574
   7140435.71147   5522437.25443  23609901.3914   23609898.5744
     -3497.2874
  -1517333.16449  -1179089.14846  20859177.4384   20859174.6214
       530.3894
 04  9  7 22  5 30.0000000  0  7G10G 8G28G13G19G23G27
  -3746498.76646  -2910300.93442  23462208.0164   23462205.7424
      1258.6274
  -4394264.91449  -3403860.09045  21417297.8364   21417295.7034
      1822.5514
  -3282730.89845  -2549815.16441  23722352.3284   23722351.4614
      3191.8924
   2856604.33249   2210006.93046  20856958.7504   20856956.1994
     -1797.7914
  -4172336.97747  -3238365.13344  22961606.2814   22961602.5634
      1504.6204
   7192939.30947   5563349.12142  23619892.3284   23619890.1094
     -3500.2404
  -1525244.03948  -1185253.45746  20857671.6174   20857669.2304
       527.3924
 04  9  7 22  5 45.0000000  0  8G10G 3G 8G28G13G19G23G27
  -3765247.80546  -2924910.56242  23458640.4774   23458636.6024
      1249.9364
      6196.53114                  23186586.969

  -4421556.36748  -3425126.15645  21412104.2114   21412101.8984
      1819.4304
  -3330569.89844  -2587092.23041  23713248.4144   23713247.2854
      3189.2674
   2883677.49249   2231102.89546  20862110.7894   20862107.8244
     -1804.8774
  -4194800.23447  -3255868.93744  22957331.5394   22957328.1414
      1497.5514
   7245484.40647   5604293.26642  23629891.6024   23629888.9964
     -3503.0074
  -1533112.60549  -1191384.80946  20856174.7584   20856171.9844
       524.5714
 04  9  7 22  6  0.0000000  0  8G10G 3G 8G28G13G19G23G27
  -3783866.94946  -2939418.96942  23455097.3984   23455094.1414
      1241.2764
     19958.453 3                  23189189.914
      -917.461
  -4448801.45748  -3446356.07445  21406919.8914   21406918.2384
      1816.3394
  -3378369.96945  -2624339.00041  23704152.3364   23704150.5514
      3186.6714
   2910856.16449   2252281.06346  20867282.3674   20867279.9694
     -1811.9114
  -4217157.63347  -3273290.25844  22953076.7114   22953073.3984
      1490.4934
   7298070.16447   5645269.11742  23639898.9534   23639895.6414
     -3505.7174
  -1540939.27348  -1197483.49646  20854685.3594   20854682.5594
       521.7784
 04  9  7 22  6 15.0000000  0  8G10G 3G 8G28G13G19G23G27
  -3802356.80146  -2953826.65642  23451578.4924   23451575.9734
      1232.6574
     33853.484 3                  23191832.852
      -926.335
  -4476000.69948  -3467550.27745  21401743.3754   21401741.9884
      1813.2834
  -3426131.71545  -2661555.92241  23695063.5004   23695062.5824
      3184.1164
   2938139.39849   2273540.72746  20872474.3754   20872471.4494
     -1818.8824
  -4239409.70347  -3290629.49643  22948842.3914   22948838.8134
      1483.4714
   7350695.48047   5686275.78942  23649913.2974   23649910.3164
     -3508.3544
  -1548724.99648  -1203550.29746  20853204.2664   20853200.8594
       519.0484
 04  9  7 22  6 30.0000000  0  8G10G 3G 8G28G13G19G23G27
  -3820714.75446  -2968131.56242  23448085.4614   23448082.2704
      1223.8644
     47883.770 4                  23194503.227
      -935.352
  -4503151.88348  -3488707.03545  21396577.2114   21396575.4774
      1810.0794
  -3473852.57046  -2698740.95342  23685983.1804   23685981.9924
      3181.3904
   2965529.42249   2294883.59045  20877687.0004   20877683.6294
     -1826.0024
  -4261553.85247  -3307884.64843  22944629.0554   22944624.4844
      1476.2774
   7403362.55146   5727315.03542  23659934.7974   23659931.8164
     -3511.1384
  -1556467.25848  -1209583.21946  20851730.5704   20851727.4924
       516.1514
 04  9  7 22  6 45.0000000  0  8G10G 3G 8G28G13G19G23G27
  -3838942.10546  -2982334.70342  23444617.2974   23444613.6884
      1215.1574
     62047.949 4                  23197197.953
      -944.279
  -4530256.58248  -3509827.56645  21391419.3834   21391417.0234
      1806.9804
  -3521533.71945  -2735894.96542  23676909.1024   23676908.9414
      3178.7434
   2993024.87549   2316308.60945  20882918.6954   20882916.0354
     -1833.0304
  -4283591.26647  -3325056.63343  22940434.6174   22940430.9654
      1469.1614
   7456069.84046   5768385.62142  23669964.0474   23669961.7424
     -3513.8194
  -1564167.46948  -1215583.37546  20850264.9924   20850262.2274
       513.3474
 04  9  7 22  7  0.0000000  0  8G10G 3G 8G28G13G19G23G27
  -3857039.79746  -2996436.78142  23441172.5784   23441170.4844
      1206.5134
                                  23199921.703
      -953.205
  -4557315.37548  -3530912.32045  21386270.1804   21386268.5554
      1803.9204
  -3569176.02745  -2773018.74242  23667842.9064   23667841.3984
      3176.1544
   3020624.65249   2337814.90645  20888171.2034   20888168.1214
     -1839.9854
  -4305522.50447  -3342145.89543  22936262.0394   22936258.1094
      1462.0834
   7508816.16446   5809486.55542  23680001.4064   23679998.6414
     -3516.4224
  -1571826.61749  -1221551.55146  20848807.8594   20848804.5394
       510.6104
 04  9  7 22  7 15.0000000  0  7G10G 8G28G13G19G23G27
  -3875005.55947  -3010436.09442  23437754.9924   23437752.2074
      1197.7174
  -4584326.16448  -3551959.68745  21381129.9924   21381127.3444
      1800.7194
  -3616777.16446  -2810110.44942  23658784.3914   23658782.5664
      3173.4094
   3048330.67249   2359403.99646  20893443.0944   20893440.4774
     -1847.0684
  -4327345.40647  -3359150.73843  22932108.8754   22932104.9614
      1454.8604
   7561603.32846   5850619.35242  23690046.9614   23690044.3954
     -3519.1444
  -1579442.64548  -1227486.11346  20847358.0314   20847355.8404
       507.7354
 04  9  7 22  7 30.0000000  0  7G10G 8G28G13G19G23G27
  -3892838.73047  -3024332.05142  23434361.6564   23434358.9924
      1188.8784
  -4611288.34448  -3572969.16045  21375999.5164   21375997.3364
      1797.4794
  -3664336.34446  -2847169.47742  23649734.4924   23649732.8164
      3170.6124
   3076143.46149   2381076.27746  20898736.1024   20898733.4414
     -1854.1864
  -4349059.10947  -3376070.46543  22927976.6884   22927973.0434
      1447.5804
   7614431.58646   5891784.18842  23700099.8834   23700097.6094
     -3521.8844
  -1587014.93748  -1233386.60946  20845917.6334   20845914.5204
       504.8204
 04  9  7 22  7 45.0000000  0  7G10G 8G28G13G19G23G27
  -3910540.10547  -3038125.35242  23430992.5554   23430990.3914
      1180.0924
  -4638202.85548  -3593941.50045  21370877.9064   21370875.3524
      1794.3014
  -3711854.36345  -2884196.44142  23640690.9694   23640691.3324
      3167.8684
   3104062.07449   2402831.02346  20904048.6174   20904045.7234
     -1861.2414
  -4370664.13346  -3392905.53543  22923864.8674   22923862.1374
      1440.3354
   7667299.90246   5932980.22742  23710159.9614   23710157.8714
     -3524.5544
  -1594544.35248  -1239253.66446  20844484.6644   20844481.6414
       501.9614
 04  9  7 22  8  0.0000000  0  7G10G 8G28G13G19G23G27
  -3928109.09046  -3051815.44142  23427649.2504   23427645.9654
      1171.2664
  -4665069.28948  -3614876.37945  21365765.2034   21365762.9734
      1791.0964
  -3759330.65246  -2921190.91442  23631657.0084   23631656.3204
      3165.0864
   3132086.64148   2424668.32046  20909381.7664   20909378.7774
     -1868.3044
  -4392159.95747  -3409655.46543  22919774.7344   22919770.4414
      1433.0554
   7720208.40646   5974207.56642  23720227.9454   23720226.4264
     -3527.2344
  -1602030.45348  -1245087.00446  20843059.8834   20843057.4654
       499.0734
 04  9  7 22  8 15.0000000  0  7G10G 8G28G13G19G23G27
  -3945543.84846  -3065400.97742  23424331.6804   23424328.6844
      1162.3174
  -4691885.80148  -3635772.33645  21360662.1644   21360660.0784
      1787.7674
  -3806763.41046  -2958151.44542  23622631.6024   23622629.3164
      3162.1844
   3160218.89149   2446589.55545  20914735.0554   20914732.5704
     -1875.4834
  -4413544.56647  -3426318.78143  22915705.7344   22915701.5354
      1425.6414
   7773158.66846   6015467.44542  23730304.9614   23730302.4844
     -3530.0174
  -1609471.57849  -1250885.27046  20841644.2734   20841641.3794
       496.0754
 04  9  7 22  8 30.0000000  0  7G10G 8G28G13G19G23G27
  -3962846.23046  -3078883.34442  23421038.6884   23421036.0434
      1153.4924
  -4718654.39548  -3656630.98045  21355568.3984   21355566.0514
      1784.5734
  -3854154.20346  -2995079.27342  23613612.6174   23613610.2504
      3159.3864
   3188456.79349   2468593.08245  20920108.7504   20920106.1684
     -1882.5274
  -4434819.68047  -3442896.78143  22911657.0394   22911653.3984
      1418.3414
   7826148.60246   6056758.22342  23740388.6724   23740386.2304
     -3532.6624
  -1616869.56249  -1256649.94146  20840236.5864   20840233.5634
       493.1994
 04  9  7 22  8 45.0000000  0  7G10G 8G28G13G19G23G27
  -3980016.44546  -3092262.72342  23417771.9924   23417768.1174
      1144.6814
  -4745375.12548  -3677452.30945  21350483.4614   21350481.3014
      1781.3824
  -3901503.25845  -3031974.56642  23604601.5084   23604600.3364
      3156.6044
   3216799.81649   2490678.54346  20925502.1724   20925499.2464
     -1889.5354
  -4455985.41847  -3459389.50443  22907629.2664   22907625.8954
      1411.0494
   7879177.64845   6098079.47342  23750479.3364   23750478.1094
     -3535.2704
  -1624224.69549  -1262381.20346  20838836.9924   20838834.2734
       490.3424
 04  9  7 22  9  0.0000000  0  7G10G 8G28G13G19G23G27
  -3997052.39846  -3105537.47742  23414529.5704   23414527.2034
      1135.7304
  -4772046.16848  -3698234.91445  21345408.5944   21345406.0744
      1778.0704
  -3948808.44546  -3068835.66442  23595600.8364   23595599.6094
      3153.6794
   3245249.93849   2512847.46946  20930915.6884   20930913.1564
     -1896.6754
  -4477039.43047  -3475795.20743  22903622.7814   22903618.6564
      1403.6014
   7932247.39545   6139432.46942  23760579.0474   23760577.1094
     -3537.9834
  -1631535.09849  -1268077.61346  20837445.4064   20837442.7194
       487.3604
 04  9  7 22  9 15.0000000  0  7G10G 8G28G13G19G23G27
  -4013955.96145  -3118709.05542  23411312.2894   23411310.8484
      1126.9044
  -4798669.62948  -3718980.46545  21340342.2584   21340339.7034
      1774.8974
  -3996071.53546  -3105664.01242  23586607.8674   23586606.3484
      3150.8734
   3273805.01649   2535098.16046  20936349.7584   20936346.8914
     -1903.6724
  -4497983.64847  -3492115.35543  22899637.2974   22899632.5904
      1396.2814
   7985355.73846   6180815.53542  23770684.8524   23770682.5434
     -3540.5564
  -1638802.67649  -1273740.66046  20836062.9304   20836059.8674
       484.5054
 04  9  7 22  9 30.0000000  0  7G10G 8G28G13G19G23G27
  -4030729.06646  -3131779.00042  23408120.1954   23408118.3524
      1118.2074
  -4825247.55148  -3739690.52045  21335284.3284   21335282.4924
      1771.8614
  -4043294.51647  -3142461.08242  23577621.1254   23577619.3284
      3148.1994
   3302462.80949   2557428.89545  20941803.0004   20941799.9024
     -1910.5204
  -4518819.86347  -3508351.33643  22895672.3204   22895668.4264
      1389.0814
   8038500.34446   6222226.83242  23780798.7664   23780795.8874
     -3542.9744
  -1646029.64849  -1279372.07046  20834687.5164   20834684.7664
       481.7984
 04  9  7 22  9 45.0000000  0  7G10G 8G28G13G19G23G27
  -4047369.92246  -3144745.88742  23404954.0864   23404952.3874
      1109.3904
  -4851777.95348  -3760363.55545  21330236.1414   21330233.3554
      1768.6934
  -4090475.55147  -3179225.41442  23568642.3674   23568640.8984
      3145.4024
   3331224.96549   2579840.94945  20947276.0784   20947273.7034
     -1917.4774
  -4539545.96947  -3524501.50044  22891728.5784   22891724.6644
      1381.7404
   8091682.62946   6263667.51242  23790918.5474   23790915.4804
     -3545.4864
  -1653213.98848  -1284970.25846  20833320.6024   20833317.2344
       478.9564
 04  9  7 22 10  0.0000000  0  7G10G 8G28G13G19G23G27
  -4063875.10246  -3157607.07442  23401813.3754   23401811.6024
      1100.3454
  -4878257.58248  -3780997.02045  21325196.9304   21325194.3094
      1765.3094
  -4137611.04747  -3215954.27342  23559672.9454   23559671.1094
      3142.3664
   3360094.69549   2602336.84846  20952769.8914   20952767.2114
     -1924.6494
  -4560158.56247  -3540563.24243  22887806.3524   22887801.8634
      1374.1734
   8144905.80946   6305140.05142  23801046.2114   23801043.7074
     -3548.2124
  -1660352.57449  -1290532.78146  20831961.9144   20831958.6094
       475.9064
 04  9  7 22 10 15.0000000  0  7G10G 8G28G13G19G23G27
  -4080248.66046  -3170365.66442  23398697.5164   23398695.4144
      1091.5714
  -4904690.35549  -3801593.97745  21320166.9224   21320163.9654
      1762.1854
  -4184704.87547  -3252650.71942  23550710.5234   23550709.3914
      3139.5894
   3389067.84849   2624913.30146  20958283.3754   20958280.5824
     -1931.5434
  -4580661.41448  -3556539.48443  22883903.6884   22883899.7854
      1366.8574
   8198165.55546   6346641.06342  23811181.6954   23811179.8404
     -3550.6504
  -1667449.39848  -1296062.77346  20830611.6254   20830608.5664
       473.1224
 04  9  7 22 10 30.0000000  0  7G10G 8G28G13G19G23G27
  -4096489.27046  -3183020.69142  23395607.3364   23395604.9924
      1082.7074
  -4931075.13749  -3822153.54345  21315145.7894   21315143.7624
      1758.9854
  -4231755.80547  -3289313.72342  23541756.7194   23541755.9924
      3136.7294
   3418145.37549   2647571.10246  20963817.3674   20963814.2114
     -1938.5024
  -4601053.18047  -3572429.14543  22880023.4304   22880019.5744
      1359.4514
   8251462.70346   6388171.23442  23821323.4144   23821321.3204
     -3553.1434
  -1674503.32449  -1301559.33646  20829268.6644   20829266.1024
       470.2624
 04  9  7 22 10 45.0000000  0  7G10G 8G28G13G19G23G27
  -4112596.87147  -3195572.07442  23392542.8134   23392540.3134
      1073.8404
  -4957412.00448  -3842675.75845  21310134.2274   21310131.8094
      1755.7914
  -4278763.69547  -3325943.18442  23532811.6024   23532810.7854
      3133.8594
   3447327.06649   2670310.05946  20969369.8364   20969367.0744
     -1945.4464
  -4621333.68047  -3588232.09043  22876164.3284   22876160.5314
      1352.0334
   8304796.98446   6429730.33642  23831473.3444   23831471.3204
     -3555.6194
  -1681514.49249  -1307022.58246  20827934.5164   20827931.9024
       467.4114
 04  9  7 22 11  0.0000000  0  7G10G 8G28G13G19G23G27
  -4128570.75847  -3208019.28142  23389502.8524   23389499.6644
      1064.9264
  -4983700.24248  -3863160.09845  21305132.0704   21305129.2974
      1752.5494
  -4325727.82447  -3362538.52342  23523875.0234   23523873.9024
      3130.9424
   3476613.39549   2693130.56646  20974943.1724   20974939.9804
     -1952.4224
  -4641502.11347  -3603947.73043  22872326.1024   22872323.2814
      1344.5624
   8358168.68846   6471318.60942  23841630.3284   23841626.7814
     -3558.1144
  -1688482.21949  -1312451.98446  20826609.0394   20826606.3794
       464.5154
 04  9  7 22 11 15.0000000  0  7G10G 8G28G13G19G23G27
  -4144409.66846  -3220361.25842  23386488.2734   23386485.5514
      1055.9274
  -5009938.56648  -3883605.52045  21300138.9144   21300136.6954
      1749.2224
  -4372646.88747  -3399098.73842  23514946.4064   23514945.1524
      3127.9384
   3506005.50849   2716033.51245  20980536.1884   20980533.0474
     -1959.4744
  -4661556.94147  -3619574.85243  22868510.4064   22868506.8954
      1336.9894
   8411578.81346   6512936.83642  23851793.3444   23851790.6134
     -3560.6754
  -1695405.15649  -1317846.46546  20825291.5314   20825288.7344
       461.5294
 04  9  7 22 11 30.0000000  0  7G10G 8G28G13G19G23G27
  -4160113.67646  -3232598.13742  23383499.6564   23383497.4064
      1046.9344
  -5036127.17248  -3904012.22345  21295155.1024   21295152.6454
      1745.9074
  -4419520.71147  -3435623.75842  23506027.1254   23506025.0824
      3124.9224
   3535503.10548   2739018.63746  20986149.3364   20986146.3714
     -1966.5074
  -4681498.09848  -3635113.39543  22864715.7894   22864712.0824
      1329.4104
   8465026.99646   6554584.69542  23861964.7114   23861961.3014
     -3563.2124
  -1702283.64149  -1323206.32446  20823982.3444   20823979.8164
       458.5664
 04  9  7 22 11 45.0000000  0  7G10G 8G28G13G19G23G27
  -4175687.07046  -3244733.24242  23380535.7504   23380533.6764
      1038.2264
  -5062270.45349  -3924383.60545  21290180.2424   21290177.6094
      1742.8854
  -4466353.69147  -3472116.99242  23497114.7114   23497113.6054
      3122.1994
   3565101.56349   2762082.35245  20991782.0164   20991778.8404
     -1973.2304
  -4701329.88348  -3650566.71543  22860941.7034   22860937.8324
      1322.1194
   8518508.73446   6596258.66842  23872141.6884   23872139.1524
     -3565.4494
  -1709121.96948  -1328534.89146  20822681.2034   20822678.4024
       455.8894
 04  9  7 22 12  0.0000000  0  7G10G 8G28G13G19G23G27
  -4191129.10946  -3256765.99242  23377598.2274   23377595.7664
      1029.4694
  -5088367.63748  -3944719.05545  21285213.9064   21285211.9534
      1739.8124
  -4513145.06247  -3508577.71942  23488209.6174   23488209.3054
      3119.4254
   3594801.39549   2785225.07045  20997433.2974   20997430.8014
     -1979.9894
  -4721051.43447  -3665934.12543  22857188.2734   22857184.1844
      1314.7704
   8572024.17646   6637958.95342  23882325.5784   23882323.6214
     -3567.6964
  -1715919.64548  -1333831.77346  20821387.3834   20821384.9574
       453.1784
 04  9  7 22 12 15.0000000  0  7G10G 8G28G13G19G23G27
  -4206438.11746  -3268695.08242  23374684.3914   23374683.1764
      1020.6014
  -5114417.22348  -3965017.41845  21280257.1884   21280254.3164
      1736.6394
  -4559893.08247  -3545004.66442  23479314.1884   23479313.3404
      3116.5354
   3624604.17649   2808448.00846  21003104.7194   21003101.8554
     -1986.8524
  -4740660.88748  -3681214.19943  22853457.6094   22853453.1684
      1307.2974
   8625574.69545   6679686.61342  23892515.6804   23892513.5274
     -3570.0354
  -1722674.88749  -1339095.59446  20820102.2814   20820099.2344
       450.3494
 04  9  7 22 12 30.0000000  0  7G10G 8G28G13G19G23G27
  -4221612.72746  -3280519.46942  23371797.2344   23371795.6374
      1011.6414
  -5140417.93449  -3985277.69945  21275309.3444   21275306.5124
      1733.3814
  -4606596.20747  -3581396.62542  23470427.2114   23470425.4844
      3113.5424
   3654511.14549   2831752.12546  21008796.0004   21008792.7664
     -1993.7984
  -4760156.79747  -3696405.79343  22849747.5394   22849742.8054
      1299.7274
   8679161.42245   6721442.44141  23902712.2194   23902710.0474
     -3572.4484
  -1729386.43448  -1344325.37146  20818824.6484   20818821.7544
       447.4364
 04  9  7 22 12 45.0000000  0  7G10G 8G28G13G19G23G27
  -4236654.03546  -3292239.96542  23368934.2974   23368931.9144
      1002.7544
  -5166370.89548  -4005500.77745  21270370.9534   21270368.5044
      1730.1974
  -4653255.32047  -3617754.30142  23461548.2974   23461546.1994
      3110.6084
   3684520.95349   2855136.38345  21014506.0864   21014503.7504
     -2000.6544
  -4779539.93047  -3711509.49643  22846058.9614   22846055.3244
      1292.2094
   8732783.06345   6763225.44942  23912915.9774   23912913.0984
     -3574.7764
  -1736055.45349  -1349522.01246  20817556.0394   20817553.0594
       444.6014
 04  9  7 22 13  0.0000000  0  7G10G 8G28G13G19G23G27
  -4251560.06246  -3303855.06642  23366097.6334   23366095.0434
       993.7354
  -5192274.07848  -4025685.06645  21265441.3754   21265438.4614
      1726.8794
  -4699868.38747  -3654076.14142  23452677.6564   23452676.3014
      3107.5384
   3714635.33249   2878602.10245  21020237.4844   21020233.7894
     -2007.6254
  -4798808.22747  -3726523.76643  22842391.9844   22842388.2424
      1284.5534
   8786441.30945   6805036.96942  23923127.5704   23923125.1484
     -3577.2164
  -1742679.96548  -1354683.95346  20816295.8204   20816292.2584
       441.6344
 04  9  7 22 13 15.0000000  0  7G10G 8G28G13G19G23G27
  -4266331.62546  -3315365.35242  23363286.6724   23363284.1724
       984.7714
  -5218128.37949  -4045831.27345  21260521.5944   21260518.8834
      1723.6204
  -4746436.33647  -3690362.78942  23443815.6334   23443814.5474
      3104.5304
   3744853.16049   2902148.45345  21025987.5784   21025984.1954
     -2014.5224
  -4817962.49648  -3741449.12943  22838747.0084   22838743.2074
      1276.9514
   8840134.78546   6846875.93442  23933345.3054   23933342.9454
     -3579.5654
  -1749260.97348  -1359812.01246  20815042.8834   20815040.3014
       438.7344
 04  9  7 22 13 30.0000000  0  7G10G 8G28G13G19G23G27
  -4280969.76646  -3326771.70742  23360501.7664   23360498.5204
       975.8764
  -5243934.94949  -4065940.27745  21255611.2344   21255608.8014
      1720.4384
  -4792960.22347  -3726615.09442  23434962.6414   23434961.1604
      3101.5924
   3775173.10249   2925774.38745  21031756.9774   21031754.0784
     -2021.3294
  -4837003.70348  -3756286.41843  22835123.8674   22835120.2304
      1269.4144
   8893862.07046   6888741.31342  23943568.6334   23943566.3714
     -3581.8194
  -1755799.60548  -1364907.04746  20813798.5084   20813795.8794
       435.9094
 04  9  7 22 13 45.0000000  0  7G10G 8G28G13G19G23G27
  -4295470.77746  -3338071.20742  23357742.5084   23357738.9104
       966.7344
  -5269690.26249  -4086009.33645  21250709.9224   21250706.9654
      1717.0214
  -4839436.27347  -3762830.14542  23426118.7424   23426117.8134
      3098.4034
   3805598.65249   2949482.58245  21037546.6884   21037544.0164
     -2028.3704
  -4855927.92648  -3771032.55144  22831522.5784   22831518.8594
      1261.6154
   8947626.73046   6930635.75442  23953800.2504   23953797.9494
     -3584.3114
  -1762292.27749  -1369966.26646  20812563.0084   20812560.2154
       432.8454
 04  9  7 22 14  0.0000000  0  7G10G 8G28G13G19G23G27
  -4309835.60947  -3349264.56242  23355008.8444   23355005.1684
       957.6554
  -5295394.80549  -4106038.84845  21245818.8364   21245815.9414
      1713.6364
  -4885865.14147  -3799008.42642  23417283.6644   23417282.1764
      3095.2584
   3836128.87549   2973272.34845  21043356.5164   21043353.8324
     -2035.3484
  -4874735.92248  -3785688.10544  22827943.8054   22827939.7234
      1253.8664
   9001427.60246   6972558.43042  23964039.0864   23964035.5784
     -3586.7254
  -1768739.81648  -1374990.32046  20811336.2584   20811333.3914
       429.8364
 04  9  7 22 14 15.0000000  0  7G10G 8G28G13G19G23G27
  -4324063.37547  -3360351.13342  23352301.5164   23352297.2774
       948.5184
  -5321048.00048  -4126028.33645  21240936.5554   21240933.8834
      1710.2134
  -4932245.91846  -3835149.22342  23408457.3594   23408456.0554
      3092.0524
   3866764.33249   2997144.12945  21049186.3984   21049183.4574
     -2042.3644
  -4893426.65247  -3800252.29743  22824386.8364   22824382.7664
      1246.0494
   9055265.14545   7014509.70342  23974283.2194   23974281.2544
     -3589.1704
  -1775141.48849  -1379978.63746  20810118.1884   20810115.2584
       426.7784
 04  9  7 22 14 30.0000000  0  7G10G 8G28G13G19G23G27
  -4338156.27046  -3371332.61342  23349619.8984   23349618.0044
       939.5264
  -5346652.22349  -4145979.66045  21236064.4384   21236061.2384
      1706.9484
  -4978580.74247  -3871254.25042  23399640.2274   23399639.4924
      3088.9884
   3897502.64149   3021096.03145  21055035.8134   21055032.8524
     -2049.2214
  -4912002.37548  -3814726.84843  22820851.8594   22820847.7544
      1238.3824
   9109136.75445   7056487.51242  23984534.2974   23984532.9844
     -3591.4414
  -1781499.55148  -1384932.96946  20808907.9454   20808905.1054
       423.8714
 04  9  7 22 14 45.0000000  0  7G10G 8G28G13G19G23G27
  -4352115.22346  -3382209.75042  23346963.9844   23346960.9224
       930.5974
  -5372208.32049  -4165893.50445  21231201.1094   21231198.7114
      1703.7404
  -5024870.39547  -3907324.05542  23390831.4774   23390830.5864
      3085.9774
   3928342.61749   3045127.17245  21060903.9924   21060901.1724
     -2055.9984
  -4930463.59048  -3829112.19143  22817338.3054   22817334.1994
      1230.7484
   9163041.28945   7098490.93842  23994791.8284   23994790.1804
     -3593.6364
  -1787814.95349  -1389854.06246  20807706.5234   20807703.7424
       421.0274
 04  9  7 22 15  0.0000000  0  7G10G 8G28G13G19G23G27
  -4365937.72346  -3392980.48842  23344333.0474   23344331.0234
       921.5004
  -5397713.62949  -4185767.75445  21226347.7814   21226345.3404
      1700.3544
  -5071112.17247  -3943356.56642  23382032.8754   23382031.1134
      3082.7854
   3959286.55549   3069239.31645  21066792.7894   21066789.8054
     -2062.9294
  -4948807.69948  -3843406.28544  22813848.2344   22813844.0434
      1222.9414
   9216980.96945   7140521.77742  24005056.7734   24005054.3204
     -3595.9794
  -1794085.23049  -1394739.98846  20806513.5474   20806510.9884
       418.0184
 04  9  7 22 15 15.0000000  0  7G10G 8G28G13G19G23G27
  -4379620.50046  -3403642.39142  23341729.3984   23341728.4654
       912.1854
  -5423165.24649  -4205600.17645  21221503.9924   21221501.2664
      1696.7744
  -5117303.07447  -3979349.39842  23373242.1484   23373240.8094
      3079.3934
   3990337.44549   3093434.80145  21072701.6954   21072698.6024
     -2070.0594
  -4967031.51248  -3857606.63744  22810380.8984   22810376.2584
      1214.9214
   9270958.69946   7182582.28542  24015328.8444   24015325.4924
     -3598.5154
  -1800307.33648  -1399588.38346  20805329.0004   20805326.5434
       414.8074
 04  9  7 22 15 30.0000000  0  7G10G 8G28G13G19G23G27
  -4393167.49646  -3414198.44942  23339151.0704   23339150.4024
       903.1334
  -5448567.11749  -4225393.83245  21216670.3674   21216667.9104
      1693.4584
  -5163446.66847  -4015305.37542  23364461.4064   23364460.0044
      3076.2404
   4021491.32849   3117710.53545  21078629.6484   21078626.7894
     -2076.9264
  -4985138.68748  -3871716.10243  22806934.1884   22806930.3244
      1207.1454
   9324970.19546   7224669.12542  24025607.5234   24025603.7624
     -3600.7664
  -1806485.11748  -1404402.23046  20804153.2664   20804151.1914
       411.8524
 04  9  7 22 15 45.0000000  0  7G10G 8G28G13G19G23G27
  -4406576.36746  -3424646.92642  23336599.6174   23336598.0044
       893.9254
  -5473916.75049  -4245146.78145  21211847.1334   21211843.6564
      1689.9764
  -5209540.60248  -4051222.66842  23355690.1334   23355688.5664
      3072.9294
   4052750.24249   3142068.10945  21084577.9064   21084575.4494
     -2083.9284
  -5003126.78148  -3885732.77344  22803511.2034   22803507.1374
      1199.2064
   9379017.56345   7266783.89141  24035891.5944   24035888.7664
     -3603.1584
  -1812616.29748  -1409179.77046  20802986.5634   20802984.4734
       408.7454
 04  9  7 22 16  0.0000000  0  7G10G 8G28G13G19G23G27
  -4419848.77746  -3434989.04742  23334073.9534   23334072.9264
       884.8274
  -5499215.77349  -4264860.31245  21207032.2734   21207029.7194
      1686.6024
  -5255586.56647  -4087102.61742  23346927.9454   23346926.0004
      3069.7314
   4084112.21149   3166505.99245  21090546.4224   21090543.1524
     -2090.7984
  -5020997.29748  -3899657.83644  22800110.6644   22800107.1644
      1191.3684
   9433098.71544   7308925.01641  24046181.7034   24046180.4144
     -3605.4104
  -1818702.60549  -1413922.34846  20801828.5164   20801825.7774
       405.7544
 04  9  7 22 16 15.0000000  0  7G10G 8G28G13G19G23G27
  -4432983.33646  -3445223.75442  23331574.0474   23331573.1174
       875.6374
  -5524463.14549  -4284533.57445  21202228.1254   21202224.8984
      1683.1584
  -5301583.13747  -4122944.02042  23338175.0394   23338173.2384
      3066.4384
   4115578.55549   3191025.19545  21096533.9614   21096531.1454
     -2097.7564
  -5038748.82048  -3913490.16444  22796733.4614   22796729.4614
      1183.4354
   9487214.79754   7351093.24251  24056480.1564   24056479.6254
     -3607.6624
  -1824742.91849  -1418629.08246  20800679.1024   20800676.5944
       402.6884
 04  9  7 22 16 30.0000000  0  7G10G 8G28G13G19G23G27
  -4445981.32047  -3455352.05542  23329101.1724   23329099.2234
       866.5324
  -5549659.96549  -4304167.43745  21197433.3524   21197429.8524
      1679.7884
  -5347531.32447  -4158747.77742  23329431.2734   23329429.3134
      3063.2134
   4147147.69149   3215624.51245  21102541.2734   21102538.9414
     -2104.6094
  -5056382.34448  -3927230.56644  22793377.5864   22793373.5004
      1175.5684
   9541364.11344   7393287.48441  24066786.0554   24066783.7664
     -3609.9544
  -1830738.35948  -1423300.84846  20799538.1884   20799535.5084
       399.6964
 04  9  7 22 16 45.0000000  0  7G10G 8G28G13G19G23G27
  -4458841.31246  -3465372.83643  23326653.7114   23326652.3284
       857.3334
  -5574804.97349  -4323760.94945  21192648.3364   21192645.7934
      1676.3344
  -5393429.73848  -4194512.72343  23320697.9534   23320695.3324
      3059.8944
   4178820.75849   3240304.81345  21108568.5704   21108565.9064
     -2111.5384
  -5073896.37148  -3940877.83644  22790044.0634   22790040.8164
      1167.6024
   9595547.85553   7435508.51651  24077094.6804   24077094.0594
     -3612.2464
  -1836687.56249  -1427936.59446  20798405.8054   20798403.5944
       396.6144
 04  9  7 22 17  0.0000000  0  7G10G 8G28G13G19G23G27
  -4471564.24646  -3475286.81242  23324233.2114   23324230.8984
       848.1964
  -5599899.02749  -4343314.73445  21187872.8204   21187870.6024
      1672.9374
  -5439279.06247  -4230239.44143  23311972.3984   23311971.5474
      3056.6224
   4210596.87549   3265065.41445  21114615.3524   21114612.5554
     -2118.4084
  -5091291.73447  -3954432.64544  22786733.8674   22786729.8954
      1159.6914
   9649764.87554   7477755.47351  24087413.7734   24087410.9924
     -3614.5384
  -1842591.50849  -1432537.07446  20797282.3524   20797280.0004
       393.5964
 04  9  7 22 17 15.0000000  0  7G10G 8G28G13G19G23G27
  -4484149.80546  -3485093.73842  23321837.5394   23321836.5434
       839.0374
  -5624941.96149  -4362828.69945  21183107.2114   21183104.4224
      1669.5294
  -5485078.94947  -4265927.58643  23303256.7734   23303256.0514
      3053.3264
   4242475.93048   3289906.21145  21120682.0164   21120679.3164
     -2125.2704
  -5108567.92248  -3967894.59844  22783447.4454   22783442.8324
      1151.7464
   9704015.09445   7520028.32441  24097737.5004   24097734.4454
     -3616.6814
  -1848449.91849  -1437102.07046  20796168.0314   20796165.3094
       390.5614
 04  9  7 22 17 30.0000000  0  7G10G 8G28G13G19G23G27
  -4496596.95746  -3494792.80942  23319469.3914   23319467.1374
       829.8104
  -5649932.73849  -4382302.02345  21178351.9614   21178349.0084
      1666.0524
  -5530828.35547  -4301576.40642  23294550.2894   23294549.5434
      3049.9604
   4274458.71549   3314827.85245  21126767.9614   21126765.3244
     -2132.1864
  -5125723.71148  -3981262.72743  22780181.7114   22780177.9654
      1143.7194
                                  24108066.7194   24108064.3364
     -3618.8244
  -1854261.87149  -1441630.85246  20795062.2194   20795059.2274
       387.4644
 04  9  7 22 17 45.0000000  0  7G10G 8G28G13G19G23G27
  -4508905.25846  -3504383.69942  23317127.3364   23317124.6334
       820.5534
  -5674870.58649  -4401734.10545  21173606.3984   21173604.2464
      1662.5234
  -5576526.67248  -4337185.46543  23285855.5084   23285852.9574
      3046.5544
   4306545.55149   3339830.55945  21132874.3444   21132871.1414
     -2139.1224
  -5142758.55548  -3994536.59844  22776940.1414   22776935.7894
      1135.6564
   9812617.90245   7604653.72741  24118404.1484   24118401.0234
     -3621.2334
  -1860026.79349  -1446122.99646  20793964.7274   20793962.0474
       384.3284
 04  9  7 22 18  0.0000000  0  7G10G 8G28G13G19G23G27
  -4521074.37546  -3513866.12942  23314810.8364   23314809.1644
       811.2744
  -5699755.55149  -4421124.96545  21168870.9774   21168867.5784
      1658.9984
  -5622173.62547  -4372754.48043  23277167.8674   23277167.1844
      3043.1304
   4338736.51649   3364914.39845  21139000.0314   21138997.2504
     -2146.0644
  -5159672.07048  -4007715.93744  22773721.8054   22773718.1644
      1127.5684
   9866970.43445   7647006.23441  24128746.6254   24128744.1294
     -3623.5024
  -1865744.65649  -1450578.48046  20792876.8364   20792873.6844
       381.1914
 04  9  7 22 18 15.0000000  0  7G10G 8G28G13G19G23G27
  -4533104.92246  -3523240.59442  23312521.9064   23312520.4774
       802.0364
  -5724588.07849  -4440474.98046  21164145.0314   21164142.8054
      1655.5024
  -5667769.56647  -4408283.74643  23268491.6024   23268490.4924
      3039.7294
   4371030.94949   3390078.89145  21145144.8364   21145142.6024
     -2152.9624
  -5176464.65248  -4020801.04744  22770526.1804   22770522.8984
      1119.5054
   9921356.10514                  24139096.141
     -3625.771
  -1871415.86348  -1454997.60246  20791797.3674   20791794.7894
       378.0804
 04  9  7 22 18 30.0000000  0  7G10G 8G28G13G19G23G27
  -4544997.68046  -3532507.66442  23310258.6804   23310257.3634
       792.8514
  -5749369.01648  -4459784.79345  21159429.4924   21159426.8134
      1652.0634
  -5713315.17647  -4443773.77742  23259824.2034   23259823.3054
      3036.3744
   4403427.73049   3415323.11345  21151310.1484   21151307.7544
     -2159.7854
  -5193137.02748  -4033792.50044  22767353.1724   22767349.7704
      1111.4924
   9975774.051 3                  24149451.320
     -3627.863
  -1877041.31248  -1459381.05946  20790726.4614   20790724.5744
       375.0304
 04  9  7 22 18 45.0000000  0  7G10G 8G28G13G19G23G27
  -4556753.67646  -3541668.18042  23308021.5554   23308020.6684
       783.7334
  -5774099.59849  -4479055.36745  21154723.4064   21154720.5944
      1648.7054
  -5758811.56247  -4479225.44142  23251166.6804   23251165.0164
      3033.0924
   4435925.56648   3440646.08645  21157494.3364   21157491.6884
     -2166.5224
  -5209690.14147  -4046691.00844  22764202.9774   22764199.6644
      1103.5414
  10030222.703 4                  24159813.828
     -3629.910
  -1882622.19549  -1463729.80146  20789665.1724   20789662.5634
       372.0594
 04  9  7 22 19  0.0000000  0  7G10G 8G28G13G19G23G27
  -4568372.33246  -3550721.68042  23305810.6884   23305809.1954
       774.5774
  -5798778.87949  -4498285.96945  21150027.3594   21150024.7544
      1645.2854
  -5804257.87547  -4514638.10942  23242518.5164   23242517.1604
      3029.7544
   4468525.09049   3466048.29345  21163697.3984   21163695.0784
     -2173.3024
  -5226123.05948  -4059495.85944  22761076.6484   22761072.8984
      1095.5284
                                  24170181.281
     -3631.957
  -1888157.76249  -1468043.22746  20788611.8834   20788609.0274
       369.0384
 04  9  7 22 19 15.0000000  0  6G10G 8G28G13G19G27
  -4579852.56647  -3559667.28543  23303626.1174   23303624.9184
       765.3494
  -5823406.11349  -4517476.00845  21145341.3674   21145337.9654
      1641.8164
  -5849653.05147  -4550010.92642  23233879.9224   23233879.2894
      3026.3454
   4501226.88749   3491530.19545  21169920.7664   21169917.7544
     -2180.1204
  -5242434.69148  -4072206.19544  22757972.4454   22757969.3444
      1087.4424
  -1893647.18749  -1472320.70346  20787567.3914   20787564.7464
       365.9624
 04  9  7 22 19 30.0000000  0  6G10G 8G28G13G19G27
  -4591195.49646  -3568505.95742  23301467.3914   23301466.4534
       756.1954
  -5847982.23449  -4536626.22345  21140664.1724   21140661.1644
      1638.4084
  -5894997.99247  -4585344.58642  23225250.9924   23225250.1564
      3022.9964
   4534029.72349   3517090.84045  21176162.8834   21176160.4804
     -2186.8564
  -5258625.93748  -4084822.72744  22754891.1094   22754887.7544
      1079.4164
  -1899091.43749  -1476562.96546  20786530.8134   20786528.4024
       362.9504
 04  9  7 22 19 45.0000000  0  6G10G 8G28G13G19G27
  -4602401.60547  -3577237.96542  23299335.0234   23299334.5234
       747.0744
  -5872507.80549  -4555737.03545  21135997.4454   21135994.4224
      1635.0384
  -5940293.18446  -4620639.46942  23216631.1174   23216630.2974
      3019.6794
   4566933.02749   3542729.75845  21182423.8284   21182421.1644
     -2193.5544
  -5274697.16847  -4097345.74643  22751833.0234   22751829.2464
      1071.4154
  -1904491.05149  -1480770.46146  20785503.4304   20785500.4924
       359.9744
 04  9  7 22 20  0.0000000  0  6G10G 8G28G13G19G27
  -4613468.93047  -3585861.84042  23297229.3364   23297227.1844
       737.8224
  -5896980.91049  -4574806.97745  21131340.0234   21131337.3244
      1631.5404
  -5985536.39547  -4655893.86742  23208021.5634   23208020.8014
      3016.2144
   4599938.50449   3568448.28945  21188705.0944   21188702.1134
     -2200.3654
  -5290646.23847  -4109773.54343  22748797.1644   22748793.3794
      1063.2714
  -1909844.13748  -1484941.68446  20784484.5394   20784482.1484
       356.8724
 04  9  7 22 20 15.0000000  0  6G10G 8G28G13G19G27
  -4624395.30546  -3594375.90642  23295149.2664   23295148.2934
       728.4254
  -5921399.10949  -4593834.13345  21126693.9454   21126690.3674
      1627.8804
  -6030725.37147  -4691106.03143  23199422.0704   23199422.6414
      3012.5984
   4633048.16849   3594248.00845  21195005.4384   21195002.5824
     -2207.3114
  -5306470.87147  -4122104.42244  22745785.6564   22745782.8874
      1054.9764
  -1915148.37149  -1489074.86346  20783475.6414   20783473.0084
       353.6164
 04  9  7 22 20 30.0000000  0  6G10G 8G28G13G19G27
  -4635179.63347  -3602779.26642  23293097.7734   23293096.4184
       718.9554
  -5945761.58649  -4612817.88346  21122057.2584   21122054.5124
      1624.1654
  -6075859.07047  -4726275.09443  23190834.0944   23190833.8404
      3008.9134
   4666262.83249   3620129.55145  21201326.3134   21201322.9964
     -2214.3114
  -5322169.90247  -4134337.40244  22742798.7504   22742795.3054
      1046.6024
  -1920402.82449  -1493169.23446  20782475.6174   20782472.8284
       350.2974
 04  9  7 22 20 45.0000000  0  6G10G 8G28G13G19G27
  -4645823.63346  -3611073.29342  23291071.6484   23291070.6914
       709.6004
  -5970069.94949  -4631759.45345  21117431.7894   21117428.9924
      1620.5584
  -6120939.04347  -4761402.29343  23182255.7814   23182254.9224
      3005.3324
   4699580.55949   3646091.41045  21207666.3054   21207663.8484
     -2221.1824
  -5337744.73048  -4146473.62543  22739835.3284   22739831.4574
      1038.3224
  -1925609.16449  -1497226.12946  20781484.9144   20781482.2544
       347.0894
 04  9  7 22 21  0.0000000  0  6G10G 8G28G13G19G27
  -4656324.32846  -3619255.66842  23289074.6804   23289072.3634
       700.0464
  -5994321.39149  -4650656.66446  21112816.4384   21112814.1334
      1616.7634
  -6165962.15247  -4796485.20343  23173687.7664   23173687.3834
      3001.5414
   4733004.17649   3672135.76645  21214026.3914   21214024.2664
     -2228.2414
  -5353192.35547  -4158510.68744  22736895.5634   22736891.9144
      1029.8424
  -1930764.57449  -1501243.31646  20780503.6484   20780501.1454
       343.6944
 04  9  7 22 21 15.0000000  0  6G10G 8G28G13G19G27
  -4666683.34446  -3627327.62942  23287103.2664   23287099.9614
       690.6014
  -6018517.60249  -4669510.85246  21108212.4844   21108209.2734
      1613.0814
  -6210930.02348  -4831525.05943  23165132.1094   23165129.3164
      2997.8584
   4766531.85249   3698261.21945  21220406.8674   21220404.3484
     -2235.1784
  -5368514.23447  -4170449.80944  22733980.2664   22733976.2154
      1021.4594
  -1935870.61349  -1505222.05546  20779532.0314   20779529.5704
       340.4034
 04  9  7 22 21 30.0000000  0  6G10G 8G28G13G19G27
  -4676902.65646  -3635290.73842  23285158.5474   23285155.9414
       681.2884
  -6042660.41049  -4688323.40645  21103618.5084   21103615.3754
      1609.5214
  -6255844.45748  -4866523.30143  23156584.7734   23156582.6454
      2994.2964
   4800161.49249   3724466.12145  21226806.1884   21226803.6214
     -2241.9764
  -5383712.28948  -4182292.41444  22731087.8134   22731084.2974
      1013.2044
  -1940929.27348  -1509163.85946  20778569.5784   20778566.7074
       337.2444
 04  9  7 22 21 45.0000000  0  6G10G 8G28G13G19G27
  -4686980.62546  -3643143.68442  23283239.5944   23283238.2624
       671.8654
  -6066747.93749  -4707092.90645  21099034.4454   21099031.5634
      1605.8354
  -6300703.66047  -4901478.48042  23148047.7194   23148045.6564
      2990.6144
   4833894.48449   3750751.54745  21233225.8444   21233222.7274
     -2248.8664
  -5398784.62148  -4194037.10943  22728220.9064   22728215.4384
      1004.8224
  -1945938.96549  -1513067.51246  20777615.9384   20777613.2664
       333.9794
 04  9  7 22 22  0.0000000  0  6G10G 8G28G13G19G27
  -4696916.56646  -3650885.97342  23281349.7894   23281348.2814
       662.3964
  -6090779.45349  -4725818.75446  21094461.4064   21094459.0164
      1602.1014
  -6345506.93447  -4936390.07442  23139521.5314   23139520.7194
      2986.8854
   4867731.27349   3777117.85945  21239664.6804   21239661.4614
     -2255.7864
  -5413730.51647  -4205683.22743  22725375.4694   22725370.8954
       996.3934
  -1950898.88349  -1516932.38746  20776672.7664   20776669.5704
       330.6614
 04  9  7 22 22 15.0000000  0  6G10G 8G28G13G19G27
  -4706711.77346  -3658518.63342  23279485.8984   23279484.2154
       653.0144
  -6114756.46949  -4744502.12546  21089898.7114   21089896.1954
      1598.4684
  -6390255.51247  -4971259.00443  23131005.7274   23131005.4884
      2983.2394
   4901670.31349   3803563.85545  21246122.6484   21246120.1564
     -2262.6034
  -5428551.11348  -4217231.71544  22722555.7894   22722551.5164
       988.0404
  -1955810.55149  -1520759.65646  20775737.6644   20775734.8794
       327.4454
 04  9  7 22 22 30.0000000  0  6G10G 8G28G13G19G27
  -4716365.74246  -3666041.17242  23277648.2894   23277647.1644
       643.5984
  -6138678.54749  -4763142.69946  21085346.5554   21085343.6804
      1594.8054
  -6434948.80547  -5006084.91443  23122502.2114   23122499.8204
      2979.5534
   4935711.93049   3830089.77045  21252600.5474   21252598.3404
     -2269.4414
  -5443245.72748  -4228682.04744  22719758.7584   22719754.9574
       979.6414
  -1960673.50449  -1524548.96146  20774812.3754   20774809.4064
       324.1974
 04  9  7 22 22 45.0000000  0  6G10G 8G28G13G19G27
  -4725876.05546  -3673451.81242  23275838.2194   23275836.8324
       634.0214
  -6162543.21548  -4781738.53946  21080804.9384   21080802.7424
      1590.9784
  -6479584.07848  -5040865.60942  23114008.2664   23114005.5704
      2975.6854
   4969858.33249   3856697.33245  21259098.4694   21259095.8094
     -2276.4274
  -5457811.81648  -4240032.21543  22716986.9064   22716982.9494
       971.0734
  -1965485.14549  -1528298.29746  20773896.5704   20773893.5744
       320.7764
 04  9  7 22 23  0.0000000  0  6G10G 8G28G13G19G27
  -4735248.07446  -3680754.66042  23274055.2424   23274052.9104
       624.8014
  -6186355.66048  -4800293.68445  21076273.4774   21076271.0124
      1587.4964
  -6524166.58247  -5075605.18743  23105523.2424   23105522.4884
      2972.1674
   5004104.07449   3883382.30545  21265615.4614   21265612.6884
     -2283.0494
  -5472254.50448  -4251286.23843  22714239.0164   22714234.0124
       962.8464
  -1970250.77348  -1532011.77046  20772989.6024   20772987.0354
       317.7094
 04  9  7 22 23 15.0000000  0  6G10G 8G28G13G19G27
  -4744478.88347  -3687947.48843  23272299.0474   23272297.0314
       615.3874
  -6210113.15649  -4818806.01245  21071752.5864   21071749.8834
      1583.8334
  -6568693.44548  -5110301.39843  23097050.7664   23097048.7074
      2968.4584
   5038451.87549   3910146.80945  21272151.6564   21272148.6484
     -2289.8534
  -5486570.77747  -4262441.77344  22711513.6954   22711510.6094
       954.4184
  -1974967.63748  -1535687.24646  20772092.3284   20772089.2424
       314.4584
 04  9  7 22 23 30.0000000  0  6G10G 8G28G13G19G27
  -4753567.84446  -3695029.81642  23270569.6414   23270567.2384
       605.9314
  -6233814.96548  -4837274.94145  21067242.3594   21067240.1414
      1580.1214
  -6613163.81647  -5144953.60543  23088589.0004   23088587.4734
      2964.6914
   5072902.18849   3936991.19545  21278707.1174   21278704.0824
     -2296.6874
  -5500759.98847  -4273498.27044  22708814.2034   22708810.7274
       945.9474
  -1979635.03548  -1539324.17646  20771204.0944   20771201.5354
       311.1604
 04  9  7 22 23 45.0000000  0  6G10G 8G28G13G19G27
  -4762518.43446  -3702004.30142  23268866.3674   23268863.1134
       596.7064
  -6257464.37148  -4855703.03946  21062742.4614   21062739.3914
      1576.6274
  -6657580.96148  -5179564.30943  23080136.3674   23080134.3244
      2961.1434
   5107451.32449   3963912.58245  21285281.8134   21285278.7154
     -2303.2764
  -5514825.24247  -4284458.19543  22706137.7664   22706134.2384
       937.6844
  -1984256.41449  -1542925.25046  20770324.9144   20770321.8874
       308.0924
 04  9  7 22 24  0.0000000  0  6G10G 8G28G13G19G27
  -4771329.05147  -3708869.71542  23267189.4614   23267187.6334
       587.3744
  -6281059.93749  -4874089.18745  21058251.8524   21058249.1134
      1573.0384
  -6701943.22747  -5214132.25442  23071694.5004   23071692.1484
      2957.4844
   5142100.74649   3990912.11345  21291875.2734   21291872.3874
     -2309.9614
  -5528765.00047  -4295320.31643  22703484.6414   22703481.4534
       929.3174
  -1988830.22749  -1546489.25846  20769454.4384   20769451.5394
       304.9214
 04  9  7 22 24 15.0000000  0  6G10G 8G28G13G19G27
  -4779997.32046  -3715624.21942  23265540.0554   23265536.9144
       577.8854
  -6304599.38349  -4892431.60545  21053772.7894   21053770.0944
      1569.2964
  -6746248.25847  -5248655.62543  23063262.9144   23063260.3014
      2953.6694
   5176852.44549   4017991.34845  21298488.6414   21298485.1024
     -2316.7804
  -5542576.57847  -4306082.56644  22700855.9144   22700852.9844
       920.7724
  -1993354.03948  -1550014.30146  20768593.0864   20768590.5044
       301.5884
 04  9  7 22 24 30.0000000  0  6G10G 8G28G13G19G27
  -4788523.92646  -3722268.33642  23263918.2894   23263914.9064
       568.4404
  -6328083.28149  -4910730.73445  21049304.0164   21049301.3554
      1565.5934
  -6790496.51247  -5283134.73843  23054842.6334   23054840.7704
      2949.8844
   5211705.61349   4045149.64545  21305120.3674   21305117.9384
     -2323.5454
  -5556260.61347  -4316745.43444  22698252.6884   22698249.2814
       912.2694
  -1997828.64549  -1553501.00046  20767741.8284   20767739.2934
       298.3074
 04  9  7 22 24 45.0000000  0  6G10G 8G28G13G19G27
  -4796907.88747  -3728801.25842  23262322.7194   23262318.9654
       558.9314
  -6351510.44548  -4928985.66845  21044845.4454   21044842.8984
      1561.8114
  -6834686.72747  -5317568.61743  23046432.8914   23046432.3524
      2946.0144
   5246661.21549   4072387.73845  21311772.8134   21311770.4384
     -2330.3734
  -5569815.91847  -4327307.96544  22695673.1644   22695670.0124
       903.6874
  -2002252.85248  -1556948.43746  20766900.2344   20766897.2704
       294.9474
 04  9  7 22 25  0.0000000  0  6G10G 8G28G13G19G27
  -4805152.74247  -3735225.79742  23260753.6804   23260750.8444
       549.6574
  -6374884.52349  -4947199.23045  21040397.4224   21040395.0434
      1558.2724
  -6878822.61347  -5351960.16843  23038035.4534   23038032.5984
      2942.3924
   5281715.39549   4099702.66845  21318442.4924   21318440.5044
     -2336.9454
  -5583245.94547  -4337772.91844  22693117.2424   22693112.9654
       895.3354
  -2006630.40649  -1560359.53146  20766067.1724   20766064.5434
       291.8374
 04  9  7 22 25 15.0000000  0  6G10G 8G28G13G19G27
  -4813256.21146  -3741540.19142  23259210.2584   23259209.1994
       540.2314
  -6398203.06649  -4965369.51245  21035960.3054   21035957.5944
      1554.5704
  -6922901.75448  -5386307.50443  23029647.1564   23029644.3674
      2938.6094
   5316870.22749   4127096.03545  21325133.1954   21325129.6844
     -2343.6554
  -5596548.17247  -4348138.28144  22690585.8444   22690582.4024
       886.8154
  -2010959.02049  -1563732.46146  20765243.6884   20765240.6954
       288.5744
 04  9  7 22 25 30.0000000  0  6G10G 8G28G13G19G27
  -4821215.86746  -3747742.52742  23257696.2894   23257693.2504
       530.6444
  -6421463.69148  -4983494.66046  21031534.1884   21031531.5784
      1550.7084
  -6966921.33648  -5420608.44543  23021270.3524   23021267.9104
      2934.6394
   5352128.05149   4154569.66845  21331842.1414   21331840.0434
     -2350.5224
  -5609720.05147  -4358402.06243  22688079.9774   22688076.1254
       878.1254
  -2015236.01249  -1567065.18746  20764429.1334   20764426.6294
       285.1334
 04  9  7 22 25 45.0000000  0  6G10G 8G28G13G19G27
  -4829034.26646  -3753834.78142  23256208.4304   23256206.3014
       521.2274
  -6444668.93049  -5001576.65646  21027118.4924   21027115.4844
      1547.0164
  -7010883.82847  -5454864.86742  23012904.3204   23012901.9884
      2930.8334
   5387486.01649   4182121.30145  21338570.3134   21338567.9844
     -2357.1984
  -5622764.06648  -4368566.22744  22685598.3284   22685593.2344
       869.6014
  -2019463.97349  -1570359.69946  20763624.8054   20763622.0274
       281.8644
 04  9  7 22 26  0.0000000  0  6G10G 8G28G13G19G27
  -4836712.47346  -3759817.79342  23254747.5554   23254744.4964
       511.8804
  -6467819.78549  -5019616.28145  21022712.6954   21022709.9344
      1543.3904
  -7054790.34847  -5489077.70742  23004548.9614   23004547.3094
      2927.1014
   5422942.82449   4209749.98045  21345317.8054   21345314.7344
     -2363.7874
  -5635681.17648  -4378631.48844  22683140.0084   22683135.5004
       861.1414
  -2023644.02349  -1573616.88746  20762829.4064   20762827.0084
       278.6704
 04  9  7 22 26 15.0000000  0  6G10G 8G28G13G19G27
  -4844249.55147  -3765690.81642  23253313.7584   23253311.3674
       502.4724
  -6490915.27348  -5037612.76645  21018317.6094   21018315.1884
      1539.6994
  -7098639.74648  -5523246.02042  22996205.0314   22996203.8914
      2923.2934
   5458499.43448   4237456.40245  21352084.0554   21352081.2504
     -2370.4414
  -5648470.19548  -4388596.93744  22680706.3754   22680701.5554
       852.6014
  -2027775.29349  -1576836.05946  20762043.3674   20762040.7504
       275.4184
 04  9  7 22 26 30.0000000  0  6G10G 8G28G13G19G27
  -4851643.67647  -3771452.48042  23251906.1954   23251904.1024
       492.9424
  -6513953.72349  -5055564.80546  21013933.3134   21013931.1174
      1535.8974
  -7142430.04347  -5557368.30942  22987871.5474   22987870.1604
      2919.3534
   5494157.21149   4265241.68045  21358869.2194   21358866.9184
     -2377.1854
  -5661129.24248  -4398461.10544  22678296.7194   22678292.6484
       843.9364
  -2031855.89849  -1580015.75046  20761267.1024   20761264.3094
       272.0404
 04  9  7 22 26 45.0000000  0  6G10G 8G28G13G19G27
  -4858896.72347  -3777104.21542  23250526.0784   23250523.3484
       483.5364
  -6536936.83649  -5073473.69946  21009560.4064   21009557.8554
      1532.2084
  -7186163.14147  -5591445.99243  22979549.3674   22979546.9494
      2915.5404
   5529914.21949   4293104.27045  21365673.6804   21365671.2814
     -2383.8014
  -5673660.03948  -4408225.35244  22675912.5474   22675908.0124
       835.3864
  -2035887.75049  -1583157.44546  20760499.5864   20760496.9224
       268.7904
 04  9  7 22 27  0.0000000  0  6G10G 8G28G13G19G27
  -4866008.93447  -3782646.21142  23249172.6414   23249170.0904
       474.1474
  -6559864.82849  -5091339.66446  21005197.0084   21005194.3014
      1528.5334
  -7229839.07048  -5625479.16043  22971238.3364   22971236.1524
      2911.7294
   5565770.05149   4321043.85945  21372497.1334   21372494.2274
     -2390.3894
  -5686062.64548  -4417889.69944  22673553.0864   22673547.7854
       826.8404
  -2039870.98448  -1586261.27046  20759741.6334   20759739.0984
       265.5494
 04  9  7 22 27 15.0000000  0  6G10G 8G28G13G19G27
  -4872979.63347  -3788077.91842  23247845.8674   23247843.9264
       464.7134
  -6582736.87548  -5109162.02346  21000844.6094   21000841.5124
      1524.8034
  -7273456.83247  -5659467.02043  22962937.4614   22962936.0084
      2907.8514
   5601725.28149   4349060.90645  21379338.8674   21379336.6254
     -2397.0154
  -5698336.11348  -4427453.42644  22671216.8444   22671211.9614
       818.2314
  -2043804.80949  -1589326.57446  20758992.9224   20758990.3674
       262.2554
 04  9  7 22 27 30.0000000  0  6G10G 8G28G13G19G27
  -4879806.47747  -3793397.55142  23246547.3444   23246544.1884
       455.1234
  -6605550.74649  -5126939.06646  20996503.8674   20996501.1024
      1520.9254
  -7317014.19147  -5693407.73842  22954649.4534   22954647.8714
      2903.8244
   5637781.94149   4377156.98845  21386200.0634   21386197.6764
     -2403.7774
  -5710478.13348  -4436914.70344  22668905.8444   22668901.5274
       809.4684
  -2047686.95349  -1592351.62946  20758254.7504   20758251.8444
       258.8104
 04  9  7 22 27 45.0000000  0  6G10G 8G28G13G19G27
  -4886491.34046  -3798606.51242  23245274.0314   23245272.5664
       445.6584
  -6628307.91849  -5144671.92246  20992172.9224   20992169.8554
      1517.1454
  -7360512.65248  -5727302.58643  22946371.9694   22946370.7154
      2899.8974
   5673938.09448   4405330.60245  21393080.2974   21393078.3444
     -2410.4104
  -5722490.21548  -4446274.77044  22666620.5004   22666615.8554
       800.8054
  -2051519.18049  -1595337.77046  20757525.2504   20757522.4494
       255.4824
 04  9  7 22 28  0.0000000  0  6G10G 8G28G13G19G27
  -4893032.84047  -3803703.79742  23244029.8914   23244027.6134
       436.1004
  -6651007.21149  -5162359.67646  20987853.2974   20987850.5944
      1513.2864
  -7403950.78148  -5761150.45343  22938105.4924   22938104.2814
      2895.8754
   5710194.83248   4433582.57045  21399979.9924   21399977.7774
     -2417.1164
  -5734371.04348  -4455532.53544  22664359.1804   22664355.2344
       792.0554
  -2055300.16849  -1598284.00046  20756805.4454   20756802.8094
       252.0664
 04  9  7 22 28 15.0000000  0  6G10G 8G28G13G19G27
  -4899432.84446  -3808690.80542  23242811.2734   23242810.6524
       426.6674
  -6673650.32048  -5180003.64546  20983544.5164   20983541.9884
      1509.5414
  -7447330.39147  -5794952.69142  22929850.4224   22929849.0664
      2891.9744
   5746550.27748   4461911.47745  21406898.4844   21406895.6684
     -2423.6964
  -5746122.23448  -4464689.28544  22662123.8444   22662119.4574
       783.4134
  -2059031.69949  -1601191.67646  20756095.5704   20756092.3524
       248.7694
 04  9  7 22 28 30.0000000  0  6G10G 8G28G13G19G27
  -4905690.59046  -3813566.97742  23241621.1804   23241619.5594
       417.1834
  -6696236.67648  -5197603.40245  20979246.3754   20979243.2974
      1505.7574
  -7490650.53947  -5828708.62143  22921606.5234   22921605.3484
      2888.0104
   5783005.04748   4490317.78145  21413834.9774   21413832.8134
     -2430.3184
  -5757742.85548  -4473744.31244  22659911.8834   22659907.8244
       774.7084
  -2062712.97749  -1604060.21146  20755394.8284   20755392.0944
       245.4184
 04  9  7 22 28 45.0000000  0  6G10G 8G28G13G19G27
  -4911806.80547  -3818332.84442  23240456.9774   23240456.4024
       407.7484
  -6718766.85248  -5215159.36746  20974959.6414   20974956.5634
      1502.0124
  -7533911.77748  -5862418.61343  22913375.4534   22913373.8134
      2884.0834
   5819557.93448   4518800.52745  21420791.1884   21420789.0354
     -2436.8594
  -5769233.59848  -4482698.11344  22657726.0634   22657721.3324
       766.0494
  -2066344.77349  -1606890.17246  20754703.5474   20754701.0944
       242.1204
 04  9  7 22 29  0.0000000  0  6G10G 8G28G13G19G27
  -4917780.73447  -3822987.84042  23239320.2274   23239319.2274
       398.2624
  -6741240.16048  -5232671.03546  20970682.4304   20970680.0824
      1498.2214
  -7577113.24648  -5896082.05143  22905154.0864   22905153.4494
      2880.0984
   5856209.64848   4547360.28545  21427765.7344   21427763.0944
     -2443.4484
  -5780593.55148  -4491550.00844  22655564.3914   22655559.3094
       757.3304
  -2069926.15649  -1609680.87146  20754022.3284   20754019.5664
       238.7594
 04  9  7 22 29 15.0000000  0  6G10G 8G28G13G19G27
  -4923612.39846  -3827531.99242  23238210.3674   23238209.7274
       388.7784
  -6763656.37148  -5250138.20746  20966417.0634   20966414.0864
      1494.4144
  -7620254.83647  -5929698.84443  22896943.9774   22896942.4494
      2876.1064
   5892960.00048   4575996.91045  21434759.3754   21434756.9224
     -2450.0234
  -5791822.49248  -4500299.82044  22653426.7114   22653422.6804
       748.5964
  -2073457.24249  -1612432.35546  20753350.4774   20753347.1884
       235.4064
 04  9  7 22 29 30.0000000  0  6G10G 8G28G13G19G27
  -4929304.16846  -3831967.15242  23237127.3914   23237126.3134
       379.4514
  -6786017.84448  -5267562.71946  20962161.7504   20962159.0824
      1490.7654
  -7663338.72748  -5963270.65643  22888746.1414   22888744.0594
      2872.2594
   5929806.44948   4604708.41845  21441771.0314   21441768.5004
     -2456.4304
  -5802922.73448  -4508949.34844  22651314.1414   22651310.5634
       740.0164
  -2076940.19549  -1615146.34846  20752687.6564   20752684.7424
       232.1974
 04  9  7 22 29 45.0000000  0  6G10G 8G28G13G19G27
  -4934853.76647  -3836291.51242  23236071.5004   23236069.9344
       369.9734
  -6808322.08248  -5284942.62546  20957917.7344   20957915.0314
      1486.9494
  -7706362.44148  -5996795.61743  22880559.2034   22880557.1954
      2868.2484
   5966751.15648   4633496.48045  21448801.4614   21448798.8984
     -2462.9804
  -5813891.67248  -4517496.57844  22649227.9924   22649223.1254
       731.2634
  -2080372.81649  -1617821.11746  20752034.4224   20752031.6334
       228.8414
 04  9  7 22 30  0.0000000  0  6G10G 8G28G13G19G27
  -4940261.36347  -3840505.26242  23235042.3754   23235040.6484
       360.5074
  -6830569.31248  -5302278.13346  20953683.7504   20953681.2934
      1483.1494
  -7749326.18048  -6030273.82443  22872383.4224   22872381.2424
      2864.2494
   6003793.84048   4662360.88745  21455850.0864   21455847.6484
     -2469.5124
  -5824729.48048  -4525941.58244  22647165.4224   22647160.6374
       722.5214
  -2083755.29349  -1620456.81246  20751391.2034   20751387.9884
       225.4984
 04  9  7 22 30 15.0000000  0  6G10G 8G28G13G19G27
  -4945527.30947  -3844608.60542  23234040.5394   23234038.2814
       351.0634
  -6852759.81648  -5319569.43446  20949461.1174   20949458.5124
      1479.3674
  -7792230.00047  -6063705.30543  22864217.6804   22864216.4804
      2860.2554
   6040933.89148   4691301.16445  21462918.0704   21462915.3164
     -2476.0034
  -5835436.35948  -4534284.57044  22645127.3834   22645122.9964
       713.7924
  -2087087.63349  -1623053.43746  20750756.5864   20750753.9614
       222.1564
 04  9  7 22 30 30.0000000  0  6G10G 8G28G13G19G27
  -4950652.45746  -3848602.25442  23233065.7504   23233062.9964
       341.6774
  -6874894.28548  -5336817.05546  20945248.9064   20945246.7774
      1475.6314
  -7835074.73048  -6097090.76243  22856065.4384   22856063.1484
      2856.3154
   6078170.23448   4720316.48845  21470004.0704   21470000.7854
     -2482.4234
  -5846013.03948  -4542526.14144  22643114.7664   22643110.7194
       705.1124
  -2090370.93749  -1625611.85546  20750132.0634   20750129.1454
       218.8874
 04  9  7 22 30 45.0000000  0  6G10G 8G28G13G19G27
  -4955637.00847  -3852486.31242  23232116.8594   23232114.5864
       332.3034
  -6896973.08248  -5354021.30546  20941047.6644   20941045.0984
      1471.9204
  -7877860.25048  -6130430.09043  22847923.6564   22847921.6884
      2852.3684
   6115502.50848   4749406.56345  21477107.2734   21477105.2704
     -2488.8184
  -5856459.30148  -4550666.08644  22641126.4534   22641122.3244
       696.4174
  -2093605.18049  -1628132.04346  20749516.3674   20749513.6414
       215.6164
 04  9  7 22 31  0.0000000  0  6G10G 8G28G13G19G27
  -4960478.41846  -3856258.82842  23231195.3134   23231193.5124
       322.7614
  -6918993.27348  -5371179.89846  20936857.3984   20936854.8094
      1468.0134
  -7920583.91448  -6163721.22743  22839793.6884   22839792.0824
      2848.2444
   6152933.20348   4778573.31344  21484230.3204   21484228.0234
     -2495.3804
  -5866772.73848  -4558702.50444  22639164.0704   22639159.9494
       687.5634
  -2096787.88749  -1630612.06646  20748910.6414   20748908.2974
       212.1804
 04  9  7 22 31 15.0000000  0  6G10G 8G28G13G19G27
  -4965177.39146  -3859920.41442  23230301.2424   23230299.5204
       313.2654
  -6940955.79748  -5388293.53946  20932677.9614   20932675.3794
      1464.1684
  -7963246.41048  -6196964.66443  22831675.2034   22831673.9694
      2844.1664
   6190461.22748   4807815.90244  21491372.5314   21491369.4024
     -2501.8684
  -5876953.84848  -4566635.82444  22637227.2114   22637222.5664
       678.7414
  -2099919.63749  -1633052.39546  20748314.6644   20748311.5124
       208.7834
 04  9  7 22 31 30.0000000  0  6G10G 8G28G13G19G27
  -4969739.31647  -3863475.13742  23229433.8284   23229431.3134
       304.1284
  -6962865.92248  -5405366.35546  20928508.6024   20928505.8444
      1460.6754
  -8005852.81248  -6230164.41843  22823566.8674   22823566.0514
      2840.4274
   6228081.17648   4837130.14145  21498530.6094   21498528.4654
     -2507.9974
  -5887007.82848  -4574470.10244  22635313.2814   22635308.5824
       670.2654
  -2103005.80949  -1635457.20346  20747727.5784   20747724.3954
       205.7454
 04  9  7 22 31 45.0000000  0  6G10G 8G28G13G19G27
  -4974158.97746  -3866919.01242  23228592.8594   23228590.9344
       294.6444
  -6984718.07848  -5422394.01246  20924349.8524   20924347.6564
      1456.8104
  -8048397.84448  -6263316.36343  22815471.6724   22815469.6994
      2836.3354
   6265798.09048   4866519.92645  21505707.9384   21505705.4344
     -2514.4614
  -5896929.28948  -4582201.09044  22633425.4534   22633421.7974
       661.4314
  -2106041.17249  -1637822.41446  20747149.9534   20747147.1094
       202.3584
 04  9  7 22 32  0.0000000  0  6G10G 8G28G13G19G27
  -4978438.63747  -3870253.80542  23227777.6254   23227776.0864
       285.3114
  -7006514.70349  -5439378.37946  20920202.3594   20920199.6644
      1453.1084
  -8090883.65648  -6296422.16443  22807386.8444   22807385.1604
      2832.3874
   6303609.54748   4895983.36745  21512903.1024   21512900.9694
     -2520.7644
  -5906720.39848  -4589830.49644  22631562.1954   22631558.0274
       652.7414
  -2109027.77349  -1640149.64146  20746581.4224   20746578.9144
       199.1074
 04  9  7 22 32 15.0000000  0  6G10G 8G28G13G19G27
  -4982579.34447  -3873480.33642  23226990.1334   23226988.5394
       276.0474
  -7028256.63748  -5456320.14546  20916065.1484   20916062.1684
      1449.4624
  -8133311.04348  -6329482.41443  22799312.2034   22799311.4454
      2828.4924
   6341514.31648   4925519.54345  21520116.1094   21520113.4144
     -2526.9854
  -5916382.02348  -4597359.02344  22629724.2194   22629720.1254
       644.1084
  -2111966.66849  -1642439.68046  20746022.2814   20746019.2034
       195.9264
 04  9  7 22 32 30.0000000  0  6G10G 8G28G13G19G27
  -4986580.27047  -3876597.94142  23226227.9774   23226227.1294
       266.7284
  -7049942.99648  -5473218.59846  20911938.0944   20911935.3714
      1445.7574
  -8175678.94148  -6362496.31643  22791251.1094   22791248.3324
      2824.5274
   6379513.11348   4955128.98445  21527346.8444   21527344.3524
     -2533.2534
  -5925913.15248  -4604785.85944  22627909.5004   22627906.1174
       635.4094
  -2114856.90249  -1644691.80546  20745471.8524   20745469.6604
       192.6824
 04  9  7 22 32 45.0000000  0  6G10G 8G28G13G19G27
  -4990440.21547  -3879605.72742  23225493.6804   23225492.4454
       257.3304
  -7071572.62149  -5490072.84446  20907822.3754   20907819.4304
      1441.9754
  -8217986.14848  -6395462.95343  22783199.9304   22783197.5434
      2820.4804
   6417606.82848   4984812.36744  21534596.5944   21534593.6564
     -2539.5814
  -5935312.42248  -4612109.95344  22626121.5704   22626116.9534
       626.6184
  -2117697.40249  -1646905.18046  20744931.5234   20744928.9534
       189.3674
 04  9  7 22 33  0.0000000  0  6G10G 8G28G13G19G27
  -4994156.89547  -3882501.82442  23224786.6884   23224784.5824
       247.7794
  -7093143.20349  -5506881.08646  20903717.3674   20903715.0824
      1438.0394
  -8260230.12947  -6428380.31243  22775160.7974   22775158.9024
      2816.2654
   6455797.66849   5014571.46145  21541864.1884   21541861.3324
     -2546.0564
  -5944577.53548  -4619329.49244  22624358.0314   22624354.4804
       617.6744
  -2120485.66049  -1649077.85246  20744401.1334   20744397.9654
       185.8844
 04  9  7 22 33 15.0000000  0  6G10G 8G28G13G19G27
  -4997730.02746  -3885286.09442  23224107.0474   23224104.1954
       238.2094
  -7114654.16448  -5523642.86746  20899624.2814   20899621.8054
      1434.0644
  -8302410.63348  -6461248.16043  22767134.5004   22767132.5824
      2812.0344
   6494085.64548   5044406.21944  21549149.9064   21549147.0784
     -2552.5324
  -5953708.10548  -4626444.20744  22622620.5634   22622616.9964
       608.7054
  -2123221.46148  -1651209.64146  20743880.1564   20743877.4654
       182.3874
 04  9  7 22 33 30.0000000  0  6G10G 8G28G13G19G27
  -5001161.68046  -3887960.12542  23223454.0234   23223452.7664
       228.7774
  -7136107.47748  -5540359.73046  20895541.7584   20895539.2274
      1430.2214
  -8344529.35248  -6494067.91443  22759119.1484   22759116.6844
      2807.9154
   6532468.72348   5074315.08245  21556454.5164   21556451.1684
     -2558.8724
  -5962705.93048  -4633455.48044  22620908.3674   22620904.9224
       599.8554
  -2125906.64148  -1653301.98846  20743368.9694   20743366.3634
       179.0124
 04  9  7 22 33 45.0000000  0  6G10G 8G28G13G19G27
  -5004453.07046  -3890524.82442  23222826.9774   23222825.4064
       219.4264
  -7157504.35249  -5557032.61346  20891469.9384   20891467.6294
      1426.4584
  -8386587.53948  -6526840.49243  22751115.7344   22751113.0904
      2803.8794
   6570945.36348   5104296.87145  21563775.5634   21563773.4574
     -2565.1094
  -5971571.96948  -4640364.08244  22619221.5004   22619217.6454
       591.0694
  -2128542.45748  -1655355.86746  20742867.7894   20742865.0204
       175.7214
 04  9  7 22 34  0.0000000  0  6G10G 8G28G13G19G27
  -5007601.41847  -3892978.10242  23222228.5784   23222225.8324
       209.8904
  -7178841.89149  -5573659.25046  20887409.5164   20887406.8594
      1422.5034
  -8428582.12948  -6559563.50843  22743124.8834   22743122.8444
      2799.6394
   6609518.27048   5134353.66844  21571115.8834   21571113.0984
     -2571.5274
  -5980303.41848  -4647167.80144  22617559.7664   22617555.6564
       582.0974
  -2131126.00449  -1657369.03146  20742376.7344   20742373.4924
       172.2364
 04  9  7 22 34 15.0000000  0  6G10G 8G28G13G19G27
  -5010609.35247  -3895321.94142  23221655.6564   23221653.9104
       200.5294
  -7200122.78949  -5590241.78546  20883359.9844   20883356.9614
      1418.7274
  -8470515.54748  -6592238.85243  22735144.3054   22735142.8834
      2795.5614
   6648184.75048   5164483.35245  21578473.4224   21578471.6094
     -2577.7654
  -5988902.70348  -4653868.52744  22615923.7974   22615919.5634
       573.2864
  -2133659.85548  -1659343.45746  20741894.0634   20741891.4454
       168.9234
 04  9  7 22 34 30.0000000  0  6G10G 8G28G13G19G27
  -5013472.83247  -3897553.22742  23221110.3914   23221108.9844
       190.8994
  -7221342.75049  -5606776.80946  20879322.1414   20879319.7194
      1414.6644
  -8512383.56248  -6624863.25043  22727177.1644   22727175.0554
      2791.2014
   6686948.52348   5194688.87944  21585850.1174   21585848.1054
     -2584.2524
  -5997365.69548  -4660463.03944  22614312.5944   22614309.2974
       564.1994
  -2136139.72749  -1661275.82446  20741421.9454   20741419.2774
       165.3254
 04  9  7 22 34 45.0000000  0  6G10G 8G28G13G19G27
  -5016192.71547  -3899672.60242  23220593.4924   23220591.5664
       181.3264
  -7242502.44549  -5623264.87946  20875295.4224   20875292.8674
      1410.6464
  -8554186.86348  -6657437.22343  22719221.9614   22719220.2464
      2786.8874
   6725808.72348   5224969.53945  21593245.5234   21593243.0234
     -2590.6804
  -6005692.94948  -4666951.79344  22612728.7734   22612724.2704
       555.1504
  -2138566.64149  -1663166.92646  20740960.7274   20740957.6844
       161.7944
 04  9  7 22 35  0.0000000  0  6G10G 8G28G13G19G27
  -5018765.35547  -3901677.27042  23220103.4534   23220101.9844
       171.5094
  -7263598.42249  -5639703.28946  20871280.8754   20871278.6374
      1406.3984
  -8595921.66048  -6689957.83243  22711280.7034   22711278.3404
      2782.3204
   6764768.67249   5255327.91845  21600659.6414   21600656.6214
     -2597.3304
  -6013880.79747  -4673331.90644  22611169.7504   22611166.2814
       545.8574
  -2140936.68049  -1665013.71546  20740509.4844   20740506.7034
       158.0034
 04  9  7 22 35 15.0000000  0  6G10G 8G28G13G19G27
  -5021195.37147  -3903570.78942  23219641.0784   23219638.9964
       162.0014
  -7284634.85249  -5656095.30546  20867277.9304   20867275.2814
      1402.4294
  -8637592.46948  -6722428.53543  22703350.5944   22703349.0474
      2778.0544
   6803823.80148   5285760.46945  21608090.9144   21608088.7664
     -2603.6754
  -6021933.60947  -4679606.80144  22609637.8524   22609634.1684
       536.8544
  -2143254.48848  -1666819.79746  20740068.5164   20740065.6604
       154.5214
 04  9  7 22 35 30.0000000  0  6G10G 8G28G13G19G27
  -5023484.17647  -3905354.28542  23219205.9534   23219203.6954
       152.5874
  -7305613.08648  -5672441.98046  20863285.8834   20863283.6334
      1398.5494
  -8679200.40248  -6754850.24643  22695433.0944   22695431.0394
      2773.8624
   6842972.23449   5316265.70744  21615541.1174   21615538.5084
     -2609.8964
  -6029852.57048  -4685777.41044  22608131.1094   22608126.7544
       527.9314
  -2145521.27349  -1668586.11346  20739636.7584   20739634.5744
       151.1194
 04  9  7 22 35 45.0000000  0  6G10G 8G28G13G19G27
  -5025626.65247  -3907023.74643  23218798.1334   23218794.9884
       142.8324
  -7326528.11749  -5688739.38746  20859305.6024   20859303.0044
      1394.3354
  -8720740.36748  -6787219.03543  22687528.3134   22687525.3094
      2769.3314
   6882219.03549   5346847.62544  21623009.4454   21623006.5944
     -2616.4534
  -6037632.74247  -4691839.87144  22606650.2114   22606647.0004
       518.6784
  -2147732.08249  -1670308.82446  20739216.5234   20739213.8134
       147.3874
 04  9  7 22 36  0.0000000  0  6G10G 8G28G13G19G27
  -5027623.12147  -3908579.45342  23218418.6644   23218415.1764
       133.0984
  -7347380.05549  -5704987.65246  20855337.7814   20855335.3324
      1390.1294
  -8762212.38348  -6819534.87543  22679636.1884   22679633.9304
      2764.8014
   6921563.89148   5377505.91044  21630496.1024   21630493.9694
     -2622.9904
  -6045274.10947  -4697794.16044  22605195.9064   22605192.7074
       509.4244
  -2149886.96549  -1671987.94546  20738806.1644   20738803.3954
       143.6594
 04  9  7 22 36 15.0000000  0  6G10G 8G28G13G19G27
  -5029476.93447  -3910023.99642  23218065.8914   23218062.4534
       123.5884
  -7368172.12149  -5721189.25046  20851381.4144   20851378.2774
      1386.1384
  -8803619.69548  -6851800.26243  22671756.5634   22671755.3134
      2760.4884
   6961003.27048   5408237.88344  21638001.4774   21637998.9734
     -2629.2924
  -6052779.83248  -4703642.77044  22603767.7814   22603763.4574
       500.3824
  -2151989.12949  -1673626.00846  20738405.8204   20738403.2504
       140.1444
 04  9  7 22 36 30.0000000  0  6G10G 8G28G13G19G27
  -5031187.44947  -3911356.87142  23217740.0634   23217737.5984
       114.0344
  -7388903.59449  -5737343.66046  20847436.0784   20847433.6294
      1382.0984
  -8844961.41048  -6884014.53143  22663890.2814   22663887.8874
      2756.1144
   7000537.64848   5439043.87544  21645524.5634   21645522.0474
     -2635.6254
  -6060149.10247  -4709385.04744  22602365.2424   22602361.1484
       491.2854
  -2154037.93448  -1675222.47346  20738015.9774   20738013.3284
       136.5874
 04  9  7 22 36 45.0000000  0  6G10G 8G28G13G19G27
  -5032757.91847  -3912580.60942  23217441.3834   23217437.7734
       104.6984
  -7409577.56649  -5753453.23846  20843502.0704   20843499.5984
      1378.2654
  -8886240.58648  -6916180.08643  22656033.9224   22656032.3794
      2751.9454
   7040163.62548   5469921.24644  21653064.9304   21653062.4734
     -2641.7324
  -6067384.96548  -4715023.35544  22600987.9614   22600984.4104
       482.3914
  -2156036.46549  -1676779.78146  20737636.2504   20737632.8054
       133.2354
 04  9  7 22 37  0.0000000  0  6G10G 8G28G13G19G27
  -5034183.36347  -3913691.33242  23217170.2344   23217166.5164
        95.0304
  -7430188.85948  -5769513.97346  20839579.7504   20839577.1524
      1374.0864
  -8927452.18048  -6948293.00043  22648191.8914   22648189.8404
      2747.4404
   7079885.97748   5500873.69944  21660624.3674   21660621.8754
     -2648.1574
  -6074482.39548  -4720553.80544  22599637.1414   22599633.0634
       473.1624
  -2157979.71949  -1678294.00046  20737266.4144   20737263.2584
       129.5504
 04  9  7 22 37 15.0000000  0  6G10G 8G28G13G19G27
  -5035465.83246  -3914690.66442  23216926.3524   23216923.0554
        85.4984
  -7450739.48049  -5785527.44546  20835669.1024   20835666.3284
      1370.0414
  -8968597.99248  -6980354.62943  22640362.6804   22640361.1604
      2743.0544
   7119702.42648   5531899.50044  21668200.9224   21668199.0164
     -2654.4304
  -6081443.23847  -4725977.84044  22598312.4064   22598308.8794
       464.0564
  -2159869.59048  -1679766.62146  20736906.3674   20736903.6564
       125.9914
 04  9  7 22 37 30.0000000  0  6G10G 8G28G13G19G27
  -5036607.28945  -3915580.13342  23216707.9924   23216705.9064
        76.0974
  -7471231.35548  -5801495.13746  20831769.4144   20831767.4304
      1366.1254
  -9009679.95348  -7012366.52043  22632544.9534   22632543.5204
      2738.7974
   7159610.85548   5562996.95744  21675795.2734   21675792.6094
     -2660.5624
  -6088269.45348  -4731296.95344  22597014.9614   22597009.9184
       455.0814
  -2161708.14148  -1681199.26646  20736556.7424   20736553.5354
       122.5704
 04  9  7 22 37 45.0000000  0  6G10G 8G28G13G19G27
  -5037605.30947  -3916357.82842  23216518.8444   23216515.9144
        66.5354
  -7491662.07848  -5817415.17646  20827882.0554   20827879.3134
      1362.0484
  -9050695.36348  -7044326.53543  22624740.0944   22624737.1134
      2734.3614
   7199613.60948   5594167.91444  21683407.8834   21683404.8674
     -2666.8504
  -6094958.40248  -4736509.11344  22595741.8444   22595736.7304
       445.9304
  -2163492.56649  -1682589.72346  20736217.2894   20736214.2194
       118.9624
 04  9  7 22 38  0.0000000  0  6G10G 8G28G13G19G27
  -5038460.39847  -3917024.13342  23216356.0474   23216354.2974
        57.0064
  -7512031.83648  -5833287.70746  20824004.9844   20824002.8484
      1357.9844
  -9091644.41448  -7076234.87543  22616947.7424   22616944.7234
      2729.9374
   7239710.09848   5625411.92244  21691037.2424   21691034.9694
     -2673.0994
  -6101510.27347  -4741614.44544  22594494.2974   22594490.9884
       436.7914
  -2165223.39549  -1683938.41846  20735887.4924   20735885.1134
       115.3894
 04  9  7 22 38 15.0000000  0  6G10G 8G28G13G19G27
  -5039174.03147  -3917580.20343  23216219.7734   23216217.7774
        47.5764
  -7532342.06648  -5849113.86746  20820140.4384   20820137.9534
      1354.0154
  -9132528.53548  -7108092.59443  22609166.8284   22609164.6684
      2725.6084
   7279898.64848   5656727.65244  21698685.2194   21698682.5984
     -2679.2374
  -6107926.50048  -4746614.08244  22593273.2194   22593269.8834
       427.7484
  -2166902.02049  -1685246.44546  20735568.3054   20735565.9224
       111.9084
 04  9  7 22 38 30.0000000  0  6G10G 8G28G13G19G27
  -5039744.37947  -3918024.64842  23216112.1564   23216109.0084
        38.0234
  -7552590.73048  -5864892.04346  20816287.5554   20816284.7664
      1349.9114
  -9173345.63348  -7139898.06643  22601399.6334   22601397.3674
      2721.1404
   7320180.93048   5688116.42244  21706351.1174   21706348.3594
     -2685.4854
  -6114205.12947  -4751506.52744  22592079.6484   22592074.6454
       418.5754
  -2168526.40248  -1686512.19946  20735259.0784   20735256.1294
       108.2924
 04  9  7 22 38 45.0000000  0  6G10G 8G28G13G19G27
  -5040172.20746  -3918358.03942  23216030.1024   23216027.5984
        28.5224
  -7572778.21948  -5880622.55546  20812445.7974   20812443.1804
      1345.8334
  -9214096.29348  -7171651.79743  22593645.0944   22593643.3134
      2716.7114
   7360556.02048   5719577.50444  21714034.0634   21714031.6334
     -2691.6734
  -6120346.72747  -4756292.18044  22590910.2734   22590905.8204
       409.4404
  -2170097.27349  -1687736.25046  20734960.1174   20734957.7194
       104.7254
 04  9  7 22 39  0.0000000  0  6G10G 8G28G13G19G27
  -5040457.56646  -3918580.39842  23215975.5314   23215974.3874
        19.0244
  -7592904.71948  -5896305.53546  20808616.1804   20808613.4924
      1341.7674
  -9254780.43748  -7203353.69143  22585902.4384   22585901.2814
      2712.2764
   7401023.82848   5751110.84844  21721735.1094   21721732.2894
     -2697.8544
  -6126351.10548  -4760970.89144  22589767.8364   22589762.9734
       400.2924
  -2171614.48449  -1688918.50846  20734671.9774   20734668.9024
       101.1474
 04  9  7 22 39 15.0000000  0  6G10G 8G28G13G19G27
  -5040602.31247  -3918693.20342  23215948.4694   23215946.2074
         9.6504
  -7612972.11749  -5911942.47346  20804797.3444   20804794.8204
      1337.8274
  -9295399.74648  -7235005.06643  22578174.1254   22578171.1214
      2707.9544
   7441582.36348   5782714.87144  21729453.0004   21729450.8094
     -2703.9024
  -6132220.09447  -4765544.12144  22588650.3674   22588646.7304
       391.2664
  -2173079.94949  -1690060.41446  20734392.9694   20734389.7734
        97.6984
 04  9  7 22 39 30.0000000  0  6G10G 8G28G13G19G27
  -5040605.73846  -3918695.85942  23215947.4774   23215944.5394
         0.2284
  -7632979.29348  -5927532.46546  20800990.0314   20800987.5234
      1333.8124
  -9335953.16048  -7266605.10243  22570455.6724   22570454.2464
      2703.5614
   7482232.19948   5814390.04344  21737187.9384   21737185.9184
     -2709.9894
  -6137952.65247  -4770011.05144  22587560.4924   22587555.2074
       382.1714
  -2174492.57049  -1691161.17246  20734123.9614   20734121.3204
        94.1754
 04  9  7 22 39 45.0000000  0  6G10G 8G28G13G19G27
  -5040464.16447  -3918585.57042  23215974.1334   23215972.1604
        -9.4384
  -7652922.50848  -5943072.61746  20797195.1884   20797192.3164
      1329.5484
  -9376436.92248  -7298150.85243  22562752.6334   22562750.9694
      2698.9174
   7522976.81348   5846139.06344  21744941.4844   21744939.3754
     -2716.3084
  -6143545.08647  -4774368.75444  22586495.3444   22586490.4414
       372.8294
  -2175848.81249  -1692217.97746  20733866.0944   20733862.6884
        90.4164
 04  9  7 22 40  0.0000000  0  6G10G 8G28G13G19G27
  -5040178.43446  -3918362.93442  23216029.5084   23216026.7384
       -19.0494
  -7672802.41448  -5958563.46546  20793411.8204   20793409.4264
      1325.3274
  -9416851.64148  -7329642.82843  22555062.5004   22555059.8874
      2694.3154
   7563815.11747   5877961.10244  21752712.6564   21752710.6844
     -2722.5544
  -6148998.12948  -4778617.86344  22585457.9924   22585452.9844
       363.5364
  -2177149.39149  -1693231.41446  20733618.5004   20733615.3834
        86.7054
 04  9  7 22 40 15.0000000  0  6G10G 8G28G13G19G27
  -5039748.61747  -3918028.03142  23216111.5864   23216109.3324
       -28.6544
  -7692619.10248  -5974005.02346  20789641.4844   20789638.1334
      1321.1134
  -9457197.41848  -7361081.05143  22547384.2274   22547382.4414
      2689.7184
   7604746.97748   5909856.02744  21760502.3984   21760499.3594
     -2728.7914
  -6154311.69947  -4782758.30944  22584446.4694   22584442.3984
       354.2384
  -2178394.09848  -1694201.31646  20733381.5474   20733379.1174
        82.9804
 04  9  7 22 40 30.0000000  0  6G10G 8G28G13G19G27
  -5039172.51647  -3917579.10942  23216221.0164   23216219.0784
       -38.4074
  -7712370.20749  -5989395.50446  20785882.3914   20785879.6564
      1316.7404
  -9497471.73848  -7392463.59843  22539720.8754   22539718.4184
      2684.9554
   7645774.37948   5941825.41044  21768309.8444   21768307.3524
     -2735.1604
  -6159483.43047  -4786788.21544  22583463.0784   22583457.8134
       344.7824
  -2179580.75049  -1695125.97746  20733155.7734   20733153.0394
        79.1104
 04  9  7 22 40 45.0000000  0  6G10G 8G28G13G19G27
  -5038453.02747  -3917018.47742  23216357.3754   23216355.5514
       -47.9664
  -7732058.55148  -6004737.05546  20782135.9844   20782133.1954
      1312.5564
  -9537677.19548  -7423792.50043  22532070.0704   22532067.5474
      2680.3644
   7686894.32448   5973866.88744  21776134.4844   21776131.5354
     -2741.3304
  -6164516.05548  -4790709.74644  22582505.1724   22582499.9264
       335.5084
  -2180712.05149  -1696007.50846  20732940.5634   20732937.5824
        75.4204
 04  9  7 22 41  0.0000000  0  6G10G 8G28G13G19G27
  -5037589.25847  -3916345.45743  23216522.4454   23216520.7074
       -57.5854
  -7751682.91049  -6020028.77046  20778401.7734   20778398.4734
      1308.2914
  -9577812.86748  -7455067.01243  22524432.2424   22524429.4264
      2675.7114
   7728107.49248   6005981.04344  21783977.1644   21783973.9024
     -2747.5454
  -6169408.50848  -4794522.01244  22581574.8054   22581569.9184
       326.1644
  -2181786.98848  -1696845.12546  20732735.8594   20732733.1844
        71.6634
 04  9  7 22 41 15.0000000  0  6G10G 8G28G13G19G27
  -5036579.58247  -3915558.69542  23216714.0784   23216712.4064
       -67.3124
  -7771241.63748  -6035269.32846  20774679.3834   20774676.7154
      1303.9154
  -9617876.82848  -7486285.66043  22516808.8134   22516805.5084
      2670.9314
   7769415.54748   6038169.11344  21791837.2194   21791834.8204
     -2753.8704
  -6174158.89548  -4798223.62144  22580670.3364   22580665.7974
       316.6924
  -2182803.85549  -1697637.48846  20732542.2194   20732539.5044
        67.7914
 04  9  7 22 41 30.0000000  0  6G10G 8G28G13G19G27
  -5035425.46547  -3914659.37142  23216933.9614   23216932.4774
       -76.9414
  -7790735.98449  -6050459.72346  20770969.9614   20770967.1294
      1299.6234
  -9657870.35248  -7517449.40243  22509197.5634   22509195.8204
      2666.2354
   7810816.86348   6070429.84044  21799716.7344   21799713.5474
     -2760.0884
  -6178768.67247  -4801815.66844  22579793.6024   22579788.7154
       307.3184
  -2183763.99649  -1698385.64546  20732359.5164   20732356.8834
        64.0094
 04  9  7 22 41 45.0000000  0  6G10G 8G28G13G19G27
  -5034127.09447  -3913647.62542  23217180.6724   23217178.8164
       -86.5584
  -7810166.09848  -6065600.06246  20767272.6484   20767269.8364
      1295.3414
  -9697793.41848  -7548558.25843  22501600.1484   22501598.0944
      2661.5384
   7852311.14148   6102763.02744  21807611.9304   21807609.9574
     -2766.2854
  -6183237.80947  -4805298.09444  22578942.4454   22578938.4884
       297.9424
  -2184667.38348  -1699089.59846  20732187.3674   20732184.8984
        60.2264
 04  9  7 22 42  0.0000000  0  6G10G 8G28G13G19G27
  -5032682.76247  -3912522.19942  23217455.2814   23217453.4104
       -96.2894
  -7829530.16049  -6080688.93446  20763587.4534   20763585.2774
      1290.9384
  -9737644.16848  -7579610.75443  22494017.4144   22494014.9144
      2656.7174
   7893899.93048   6135169.83644  21815526.0474   21815523.9064
     -2772.5864
  -6187564.54747  -4808669.55544  22578119.2664   22578115.2624
       288.4494
  -2185512.31249  -1699747.98446  20732027.3204   20732024.2034
        56.3294
 04  9  7 22 42 15.0000000  0  6G10G 8G28G13G19G27
  -5031093.31247  -3911283.66042  23217757.7974   23217756.0004
      -105.9634
  -7848828.83249  -6095726.85246  20759914.9064   20759912.2624
      1286.5784
  -9777423.23048  -7610607.39843  22486447.2344   22486445.1884
      2651.9384
   7935582.23448   6167649.53544  21823458.0164   21823455.8984
     -2778.8204
  -6191749.43747  -4811930.50844  22577322.7974   22577318.0664
       278.9934
  -2186299.31649  -1700361.22746  20731877.1094   20731874.3594
        52.4674
 04  9  7 22 42 30.0000000  0  6G10G 8G28G13G19G27
  -5029360.51247  -3909933.44942  23218088.1804   23218085.9454
      -115.5204
  -7868063.59848  -6110714.98446  20756254.9694   20756252.0164
      1282.3184
  -9817132.13748  -7641549.35243  22478891.4454   22478889.4534
      2647.2604
   7977356.15248   6200200.59844  21831407.7274   21831405.3364
     -2784.9284
  -6195794.10547  -4815082.18044  22576553.3204   22576548.7034
       269.6454
  -2187030.10548  -1700930.67646  20731737.4774   20731735.3914
        48.7194
 04  9  7 22 42 45.0000000  0  6G10G 8G28G13G19G27
  -5027480.34047  -3908468.35942  23218445.2504   23218443.6724
      -125.3454
  -7887230.43449  -6125650.17246  20752608.1724   20752604.8324
      1277.7894
  -9856766.80548  -7672433.50443  22471348.9384   22471346.3914
      2642.3114
   8019225.41448   6232825.99244  21839375.0164   21839372.0944
     -2791.2844
  -6199694.49247  -4818121.43444  22575810.8834   22575807.3954
       260.0264
  -2187700.60249  -1701453.14146  20731610.8054   20731608.1024
        44.7004
 04  9  7 22 43  0.0000000  0  6G10G 8G28G13G19G27
  -5025454.89147  -3906890.11342  23218830.8674   23218828.9454
      -135.0304
  -7906331.14149  -6140533.83246  20748972.6094   20748970.1844
      1273.3804
  -9896329.08248  -7703261.20743  22463820.6804   22463818.0864
      2637.4854
   8061187.87548   6265523.98044  21847359.5784   21847357.7974
     -2797.4974
  -6203452.49647  -4821049.74244  22575096.0864   22575091.7234
       250.5344
  -2188312.66449  -1701930.07046  20731494.3754   20731491.3134
        40.8044
 04  9  7 22 43 15.0000000  0  6G10G 8G28G13G19G27
  -5023284.46547  -3905198.87942  23219244.3054   23219242.1134
      -144.6954
  -7925365.77748  -6155366.02346  20745350.3284   20745347.7544
      1268.9764
  -9935818.87548  -7734032.44944  22456305.9694   22456303.4144
      2632.6534
   8103243.22748   6298294.34844  21855363.5944   21855360.5784
     -2803.6904
  -6207068.19146  -4823867.18444  22574407.9304   22574402.6484
       241.0464
  -2188866.52349  -1702361.66046  20731388.4844   20731385.6254
        36.9244
 04  9  7 22 43 30.0000000  0  6G10G 8G28G13G19G27
  -5020968.92247  -3903394.56242  23219684.7894   23219682.5784
      -154.3704
  -7944333.98449  -6170146.43446  20741741.5864   20741738.6054
      1264.5474
  -9975236.02748  -7764747.06643  22448805.0474   22448801.9884
      2627.8104
   8145391.46948   6331137.11344  21863383.6954   21863380.9844
     -2809.8834
  -6210541.29347  -4826573.48044  22573746.8364   22573742.7934
       231.5404
  -2189361.82049  -1702747.59046  20731293.8134   20731291.5044
        33.0204
 04  9  7 22 43 45.0000000  0  6G10G 8G28G13G19G27
  -5018511.62546  -3901479.78942  23220152.2274   23220150.6914
      -163.8204
  -7963239.22748  -6184877.79746  20738143.9774   20738141.0784
      1260.3494
 -10014583.46148  -7795407.38743  22441317.8364   22441314.7114
      2623.1624
   8187629.25848   6364049.65644  21871421.2584   21871418.6254
     -2815.8534
  -6213874.91847  -4829171.09844  22573111.9064   22573107.9414
       222.2424
  -2189801.69948  -1703090.35546  20731210.2734   20731208.0274
        29.3254
 04  9  7 22 44  0.0000000  0  6G10G 8G28G13G19G27
  -5015912.11347  -3899454.19542  23220646.4304   23220645.7194
      -173.3014
  -7982080.82049  -6199559.55546  20734558.1024   20734555.4024
      1256.1064
 -10053860.85948  -7826013.11344  22433843.1414   22433840.3754
      2618.4934
   8229956.59048   6397031.96544  21879475.9224   21879473.2624
     -2821.8224
  -6217068.59047  -4831659.66444  22572505.2894   22572500.7974
       212.9114
  -2190185.67249  -1703389.55946  20731137.7424   20731135.0004
        25.5984
 04  9  7 22 44 15.0000000  0  6G10G 8G28G13G19G27
  -5013168.04347  -3897315.98842  23221168.8914   23221166.8204
      -182.9384
  -8000856.20748  -6214189.71946  20730985.5004   20730982.1564
      1251.6924
 -10093065.57048  -7856562.21144  22426382.9064   22426379.4654
      2613.6474
   8272375.72348   6430085.81344  21887548.3834   21887545.6484
     -2827.9424
  -6220119.93447  -4834037.32844  22571924.1564   22571919.2234
       203.4234
  -2190511.32049  -1703643.30946  20731075.7194   20731073.0274
        21.7104
 04  9  7 22 44 30.0000000  0  6G10G 8G28G13G19G27
  -5010280.24247  -3895065.77042  23221719.2194   23221716.3134
      -192.5204
  -8019566.18449  -6228768.92646  20727425.1254   20727422.1564
      1247.3324
 -10132198.14848  -7887055.09444  22418935.9304   22418933.6334
      2608.8394
   8314885.87548   6463210.59844  21895637.8054   21895635.5204
     -2834.0104
  -6223029.41047  -4836304.45344  22571370.5864   22571366.5664
       193.9654
  -2190779.28549  -1703852.12146  20731024.6334   20731021.9694
        17.8644
 04  9  7 22 44 45.0000000  0  6G10G 8G28G13G19G27
  -5007251.89847  -3892706.00042  23222294.1954   23222292.9144
      -201.8904
  -8038213.54749  -6243299.32446  20723876.7424   20723873.6374
      1243.1584
 -10171261.49248  -7917494.03143  22411502.5474   22411499.7274
      2604.2234
   8357483.72748   6496403.71544  21903743.6484   21903741.1134
     -2839.8574
  -6225800.07848  -4838463.40644  22570842.8984   22570838.8914
       184.7114
  -2190992.48049  -1704018.24646  20730984.4924   20730981.8364
        14.2134
 04  9  7 22 45  0.0000000  0  6G10G 8G28G13G19G27
  -5004080.19947  -3890234.54742  23222898.6024   23222895.2584
      -211.4474
  -8056795.56649  -6257778.82046  20720340.7194   20720337.5554
      1238.8014
 -10210252.78548  -7947876.82444  22404082.5784   22404079.8444
      2599.4204
   8400171.86748   6529667.18044  21911866.0704   21911864.3794
     -2845.8764
  -6228429.10947  -4840511.98044  22570342.8204   22570338.0164
       175.2694
  -2191148.11348  -1704139.52746  20730954.4224   20730951.7384
        10.3764
 04  9  7 22 45 15.0000000  0  6G10G 8G28G13G19G27
  -5000767.23047  -3887653.03942  23223529.4454   23223526.2194
      -220.8654
  -8075314.11749  -6272208.85246  20716816.3204   20716813.7974
      1234.5704
 -10249173.72348  -7978204.79343  22396676.3444   22396673.3054
      2594.7294
   8442948.13748   6562999.30144  21920006.7894   21920004.3404
     -2851.7514
  -6230918.26247  -4842451.56244  22569869.0234   22569864.5984
       165.9434
  -2191247.96949  -1704217.32846  20730935.1884   20730932.7114
         6.6574
 04  9  7 22 45 30.0000000  0  6G10G 8G28G13G19G27
  -4997311.14547  -3884959.95742  23224186.6484   23224184.2234
      -230.4064
  -8093766.93749  -6286587.67646  20713305.0004   20713302.6094
      1230.1884
 -10288022.21148  -8008476.33243  22389283.4774   22389280.6294
      2589.8994
   8485814.36348   6596401.53144  21928163.5554   21928161.6764
     -2857.7484
  -6233265.46547  -4844280.55144  22569422.5164   22569418.3674
       156.4804
  -2191289.97349  -1704250.05946  20730926.8364   20730924.4734
         2.8004
 04  9  7 22 45 45.0000000  0  6G10G 8G28G13G19G27
  -4993714.40246  -3882157.34042  23224871.2034   23224869.1024
      -239.7834
  -8112156.50449  -6300917.20346  20709805.6644   20709802.6684
      1225.9714
 -10326800.70748  -8038693.28543  22381904.0234   22381901.7734
      2585.2334
   8528767.85548   6629871.77044  21936337.8594   21936335.4384
     -2863.5664
  -6235473.24248  -4846000.90244  22569001.9534   22568998.3404
       147.1854
  -2191276.62948  -1704239.66446  20730929.9614   20730926.9454
        -0.8904
 04  9  7 22 46  0.0000000  0  6G10G 8G28G13G19G27
  -4989975.18446  -3879243.65642  23225581.7114   23225579.6604
      -249.2814
  -8130480.89849  -6315195.94546  20706318.3054   20706315.9574
      1221.6264
 -10365507.04348  -8068854.03543  22374538.3054   22374535.1454
      2580.4224
   8571810.30948   6663411.32044  21944528.6024   21944525.9264
     -2869.4974
  -6237539.62948  -4847611.06644  22568609.2344   22568603.7774
       137.7594
  -2191205.88349  -1704184.53946  20730943.6414   20730940.7234
        -4.7164
 04  9  7 22 46 15.0000000  0  6G10G 8G28G13G19G27
  -4986095.16846  -3876220.26642  23226320.6174   23226318.3244
      -258.6684
  -8148741.27749  -6329424.80146  20702843.7504   20702841.2344
      1217.3594
 -10404142.46548  -8098959.53544  22367186.5944   22367183.7154
      2575.6954
   8614940.00048   6697018.85244  21952735.9844   21952733.5744
     -2875.3134
  -6239465.89148  -4849112.01644  22568242.3284   22568237.4804
       128.4174
  -2191079.21949  -1704085.84046  20730967.7274   20730964.3794
        -8.4444
 04  9  7 22 46 30.0000000  0  6G10G 8G28G13G19G27
  -4982071.75446  -3873085.14542  23227085.9694   23227083.7624
      -268.2284
  -8166934.97349  -6343601.70746  20699381.7894   20699378.8324
      1212.9134
 -10442704.37948  -8129007.75444  22359848.9924   22359845.9774
      2570.7944
   8658159.39548   6730696.27344  21960960.5314   21960958.2344
     -2881.2934
  -6241249.36348  -4850501.72344  22567902.2894   22567897.8954
       118.8984
  -2190893.75049  -1703941.32046  20731003.2114   20731000.0984
       -12.3654
 04  9  7 22 46 45.0000000  0  6G10G 8G28G13G19G27
  -4977903.77747  -3869837.40242  23227879.1884   23227877.2934
      -277.8654
  -8185060.73049  -6357725.66846  20695932.1024   20695929.3324
      1208.3844
 -10481191.44948  -8158997.67643  22352525.0314   22352521.5984
      2565.8054
   8701469.50448   6764444.39144  21969201.5634   21969199.8834
     -2887.3414
  -6242888.76648  -4851779.21544  22567591.6804   22567587.6134
       109.2934
  -2190648.36349  -1703750.10946  20731049.5704   20731046.7854
       -16.3594
 04  9  7 22 47  0.0000000  0  6G10G 8G28G13G19G27
  -4973593.01247  -3866478.34842  23228700.3284   23228697.6994
      -287.3844
  -8203120.28549  -6371798.03546  20692495.7114   20692493.2034
      1203.9704
 -10519605.27748  -8188930.48443  22345214.0704   22345211.6994
      2560.9224
   8744868.43048   6798261.69144  21977460.4384   21977458.8244
     -2893.2624
  -6244385.73447  -4852945.68044  22567306.3914   22567302.2194
        99.7984
  -2190344.61748  -1703513.42246  20731107.7194   20731104.4804
       -20.2504
 04  9  7 22 47 15.0000000  0  6G10G 8G28G13G19G27
  -4969142.72347  -3863010.60542  23229547.2814   23229544.2974
      -296.6864
  -8221116.43049  -6385820.99646  20689070.9384   20689068.3524
      1199.7434
 -10557948.70748  -8218808.43744  22337917.6644   22337915.3014
      2556.2294
   8788352.79748   6832145.58644  21985735.7194   21985733.0314
     -2898.9584
  -6245743.34448  -4854003.52344  22567047.5474   22567044.3484
        90.5074
  -2189985.48849  -1703233.57846  20731175.4924   20731173.1764
       -23.9424
 04  9  7 22 47 30.0000000  0  6G10G 8G28G13G19G27
  -4964548.63347  -3859430.78942  23230421.3524   23230418.9614
      -306.2734
  -8239044.80549  -6399791.15646  20685659.8444   20685656.5594
      1195.2254
 -10596217.29348  -8248628.08644  22330635.6094   22330633.0204
      2551.2394
   8831926.75448   6866099.28544  21994027.3204   21994024.8714
     -2904.9304
  -6246957.16048  -4854949.35544  22566817.0944   22566812.9614
        80.9214
  -2189566.62149  -1702907.19146  20731254.9384   20731252.8554
       -27.9244
 04  9  7 22 47 45.0000000  0  6G10G 8G28G13G19G27
  -4959812.84047  -3855740.59442  23231322.2424   23231320.4494
      -315.7204
  -8256907.45749  -6413710.10246  20682260.5234   20682257.6804
      1190.8434
 -10634413.03948  -8278390.96544  22323367.5314   22323365.0904
      2546.3834
   8875588.07048   6900121.05944  22002335.7894   22002333.5744
     -2910.7544
  -6248029.13347  -4855784.62944  22566612.5234   22566608.2584
        71.4654
  -2189089.93049  -1702535.75046  20731346.2424   20731343.3714
       -31.7794
 04  9  7 22 48  0.0000000  0  6G10G 8G28G13G19G27
  -4954938.27747  -3851942.24242  23232249.8984   23232247.0824
      -324.9714
  -8274706.90649  -6427579.80146  20678873.0394   20678870.3554
      1186.6304
 -10672538.56248  -8308099.15644  22316113.0704   22316109.5824
      2541.7024
   8919333.76248   6934208.60944  22010660.3054   22010657.8094
     -2916.3794
  -6248962.10548  -4856511.62944  22566435.7344   22566431.2074
        62.1984
  -2188558.23049  -1702121.43746  20731447.6334   20731444.8164
       -35.4474
 04  9  7 22 48 15.0000000  0  6G10G 8G28G13G19G27
  -4949920.03947  -3848031.92242  23233205.9064   23233201.8634
      -334.5494
  -8292438.09849  -6441396.30946  20675499.1564   20675496.2344
      1182.0794
 -10710588.71548  -8337748.59044  22308871.3754   22308869.2274
      2536.6774
   8963168.63748   6968365.62544  22019001.8674   22018999.4734
     -2922.3254
  -6249750.93047  -4857126.27744  22566284.9144   22566280.3674
        52.5884
  -2187966.29749  -1701660.18746  20731559.7034   20731557.2664
       -39.4624
 04  9  7 22 48 30.0000000  0  6G10G 8G28G13G19G27
  -4944758.71147  -3844010.07842  23234186.8444   23234184.7624
      -344.0894
  -8310101.52349  -6455160.01246  20672137.6564   20672135.3794
      1177.5624
 -10748563.95748  -8367339.64544  22301645.0394   22301642.8984
      2531.6834
   9007091.96948   7002591.59044  22027359.7664   22027357.9804
     -2928.2224
  -6250396.01647  -4857628.93744  22566162.2114   22566158.3954
        43.0064
  -2187314.63749  -1701152.39546  20731684.1334   20731681.3954
       -43.4444
 04  9  7 22 48 45.0000000  0  6G10G 8G28G13G19G27
  -4939455.09847  -3839877.43442  23235196.1884   23235194.6684
      -353.5744
  -8327697.68449  -6468871.29346  20668789.1094   20668786.4694
      1173.0774
 -10786464.76248  -8396872.70744  22294432.6804   22294430.3054
      2526.7204
   9051102.94148   7036885.80944  22035735.3284   22035732.4884
     -2934.0654
  -6250898.05147  -4858020.14144  22566067.0864   22566062.2424
        33.4694
  -2186603.81249  -1700598.51246  20731819.1334   20731816.6054
       -47.3884
 04  9  7 22 49  0.0000000  0  6G10G 8G28G13G19G27
  -4934010.54347  -3835634.91842  23236232.4774   23236230.1954
      -362.9704
  -8345228.01649  -6482531.28546  20665453.1884   20665450.3364
      1168.6894
 -10824292.20348  -8426348.60244  22287234.2734   22287231.8674
      2521.8294
   9095200.03948   7071247.16844  22044126.9844   22044124.7304
     -2939.8074
  -6251258.24647  -4858300.79344  22565998.4454   22565994.3244
        24.0134
  -2185835.02748  -1699999.45746  20731965.6094   20731962.7034
       -51.2524
 04  9  7 22 49 15.0000000  0  6G10G 8G28G13G19G27
  -4928425.21147  -3831282.73442  23237295.6414   23237293.9734
      -372.3554
  -8362692.15649  -6496139.70346  20662129.9454   20662127.2774
      1164.2764
 -10862046.37548  -8455767.40244  22280049.9304   22280047.3554
      2516.9454
   9139382.80148   7105675.26644  22052534.5474   22052532.0784
     -2945.5174
  -6251476.63346  -4858470.94944  22565956.6644   22565952.6604
        14.5594
  -2185008.36748  -1699355.30946  20732122.7194   20732119.9884
       -55.1114
 04  9  7 22 49 30.0000000  0  6G10G 8G28G13G19G27
  -4922697.38747  -3826819.51242  23238385.4064   23238383.3714
      -381.8554
  -8380088.39149  -6509695.19946  20658819.2584   20658817.3794
      1159.7494
 -10899725.23048  -8485127.51243  22272880.4454   22272876.6914
      2511.9244
   9183653.05548   7140171.53944  22060958.1884   22060956.4024
     -2951.3504
  -6251551.28947  -4858529.12544  22565942.3364   22565937.4924
         4.9774
  -2184121.72749  -1698664.42246  20732291.9774   20732288.7664
       -59.1094
 04  9  7 22 49 45.0000000  0  6G10G 8G28G13G19G27
  -4916826.26247  -3822244.60242  23239501.6174   23239500.9574
      -391.4084
  -8397415.68749  -6523196.98446  20655522.5784   20655520.0554
      1155.1534
 -10937327.72748  -8514428.12144  22265724.6724   22265722.0234
      2506.8334
   9228011.45748   7174736.50444  22069399.0554   22069397.4064
     -2957.2274
  -6251481.30947  -4858474.58644  22565954.7974   22565951.1884
        -4.6654
  -2183174.32849  -1697926.19146  20732472.0084   20732469.2854
       -63.1604
 04  9  7 22 50  0.0000000  0  6G10G 8G28G13G19G27
  -4910814.62147  -3817560.22342  23240647.0784   23240644.9024
      -400.7764
  -8414676.49649  -6536646.95746  20652237.9304   20652235.2584
      1150.7214
 -10974856.39548  -8543671.21143  22258582.8444   22258579.9104
      2501.9114
   9272455.09448   7209367.87944  22077856.8834   22077855.1094
     -2962.9094
  -6251269.22347  -4858309.30944  22565996.0314   22565991.4304
       -14.1394
  -2182168.71549  -1697142.59046  20732663.6644   20732660.2854
       -67.0414
 04  9  7 22 50 15.0000000  0  6G10G 8G28G13G19G27
  -4904662.30946  -3812766.21142  23241817.2734   23241815.5824
      -410.1544
  -8431870.53149  -6550044.90246  20648966.2974   20648963.1414
      1146.2694
 -11012310.96148  -8572856.55144  22251455.1484   22251452.8914
      2496.9714
   9316983.97348   7244065.68844  22086330.8914   22086328.4924
     -2968.5924
  -6250914.79747  -4858033.12144  22566063.6484   22566059.6764
       -23.6284
  -2181104.49248  -1696313.33646  20732865.5944   20732863.1294
       -70.9484
 04  9  7 22 50 30.0000000  0  6G10G 8G28G13G19G27
  -4898370.45747  -3807863.49242  23243014.6024   23243013.4224
      -419.4574
  -8448998.76649  -6563391.56646  20645706.7194   20645703.6254
      1141.8824
 -11049692.31648  -8601984.85543  22244342.0164   22244339.6524
      2492.0904
   9361596.94948   7278829.02744  22094820.0314   22094818.0044
     -2974.1984
  -6250418.92647  -4857646.72744  22566157.9614   22566153.5664
       -33.0584
  -2179982.50048  -1695439.05546  20733079.6414   20733076.3284
       -74.7994
 04  9  7 22 50 45.0000000  0  6G10G 8G28G13G19G27
  -4891937.65247  -3802850.92643  23244238.2194   23244237.2464
      -428.8544
  -8466059.48849  -6576685.64146  20642459.7734   20642457.3984
      1137.3824
 -11086998.90648  -8631054.88344  22237242.8364   22237239.9104
      2487.1064
   9406295.28548   7313658.87544  22103326.1804   22103323.1294
     -2979.8894
  -6249780.11346  -4857148.94944  22566279.5704   22566274.3674
       -42.5874
  -2178801.31248  -1694518.64846  20733304.3284   20733301.3284
       -78.7464
 04  9  7 22 51  0.0000000  0  6G10G 8G28G13G19G27
  -4885363.35547  -3797728.10542  23245490.7344   23245487.8404
      -438.2864
  -8483052.08249  -6589926.61746  20639226.6804   20639223.7274
      1132.8404
 -11124229.80948  -8660065.95344  22230157.6334   22230155.3594
      2482.0604
   9451079.40248   7348555.56344  22111848.1174   22111845.4924
     -2985.6084
  -6248997.71148  -4856539.26644  22566429.0864   22566424.0634
       -52.1604
  -2177560.18048  -1693551.53146  20733539.9064   20733537.6644
       -82.7424
 04  9  7 22 51 15.0000000  0  6G10G 8G28G13G19G27
  -4878647.26247  -3792494.78542  23246767.2664   23246765.9264
      -447.7404
  -8499975.96149  -6603114.05546  20636005.7114   20636003.3444
      1128.2594
 -11161384.41448  -8689017.54344  22223087.3524   22223084.5594
      2476.9744
   9495949.63348   7383519.34844  22120387.2504   22120384.8134
     -2991.3494
  -6248071.18048  -4855817.27744  22566605.3524   22566600.4344
       -61.7694
  -2176258.43449  -1692537.18046  20733787.9774   20733785.4064
       -86.7834
 04  9  7 22 51 30.0000000  0  6G10G 8G28G13G19G27
  -4871790.54346  -3787151.87942  23248072.0004   23248071.4144
      -457.1154
  -8516831.83249  -6616248.48846  20632798.1954   20632795.3484
      1123.7254
 -11198463.67648  -8717910.47744  22216031.4844   22216028.7504
      2471.9514
   9540904.59048   7418549.16444  22128941.4454   22128939.7584
     -2996.9974
  -6247001.60548  -4854983.84444  22566808.0164   22566803.8444
       -71.3054
  -2174897.25449  -1691476.52346  20734047.3054   20734044.1484
       -90.7454
 04  9  7 22 51 45.0000000  0  6G10G 8G28G13G19G27
  -4864792.71946  -3781699.05942  23249404.0474   23249401.8794
      -466.5224
  -8533619.18449  -6629329.53946  20629603.9384   20629601.0474
      1119.1574
 -11235466.84448  -8746744.07044  22208990.5784   22208987.1884
      2466.8784
   9585944.70348   7453645.33644  22137512.3984   22137510.6054
     -3002.6744
  -6245788.21148  -4854038.32044  22567039.0164   22567034.9774
       -80.8934
  -2173475.80949  -1690368.90646  20734317.6954   20734314.6374
       -94.7634
 04  9  7 22 52  0.0000000  0  6G10G 8G28G13G19G27
  -4857654.81646  -3776137.04342  23250762.1414   23250760.0944
      -475.8604
  -8550338.95349  -6642357.93046  20626422.3134   20626419.1914
      1114.6514
 -11272394.89848  -8775519.13744  22201963.2194   22201960.4534
      2461.8704
   9631068.89848   7488807.02044  22146099.3444   22146097.2934
     -3008.2804
  -6244431.97348  -4852981.52344  22567297.4454   22567292.8054
       -90.4164
  -2171995.01648  -1689215.04346  20734599.1644   20734596.4104
       -98.7204
 04  9  7 22 52 15.0000000  0  6G10G 8G28G13G19G27
  -4850374.96546  -3770464.47342  23252147.4454   23252145.1644
      -485.3234
  -8566989.27749  -6655332.19946  20623253.6564   20623250.7424
      1110.0224
 -11309245.71948  -8804234.02744  22194949.8674   22194947.6214
      2456.7214
   9676278.73448   7524035.42244  22154702.8204   22154700.4574
     -3013.9894
  -6242930.95748  -4851811.88744  22567583.0164   22567578.0474
      -100.0684
  -2170452.80549  -1688013.31646  20734892.9924   20734889.7814
      -102.8144
 04  9  7 22 52 30.0000000  0  6G10G 8G28G13G19G27
  -4842954.46147  -3764682.24642  23253559.6414   23253557.4734
      -494.7004
  -8583570.95749  -6668252.98046  20620098.3284   20620095.7074
      1105.4454
 -11346020.32448  -8832889.50844  22187951.8984   22187949.6804
      2451.6404
   9721572.90248   7559329.54344  22163321.3674   22163319.7344
     -3019.6114
  -6241286.15648  -4850530.22344  22567895.5554   22567892.1604
      -109.6534
  -2168850.29349  -1686764.60946  20735197.8594   20735194.9414
      -106.8344
 04  9  7 22 52 45.0000000  0  6G10G 8G28G13G19G27
  -4835390.41447  -3758788.19142  23254999.5394   23254996.8714
      -504.2704
  -8600080.64549  -6681117.67246  20616956.4534   20616953.8524
      1100.6464
 -11382715.55148  -8861483.16844  22180969.1884   22180966.9694
      2446.3484
   9766954.23848   7594691.60244  22171958.1174   22171955.0514
     -3025.4224
  -6239494.60948  -4849134.18044  22568236.2814   22568232.8014
      -119.4364
  -2167184.34449  -1685466.47346  20735514.8594   20735512.0004
      -111.0634
 04  9  7 22 53  0.0000000  0  6G10G 8G28G13G19G27
  -4827684.02747  -3752783.21942  23256466.1484   23256462.4224
      -513.7594
  -8616519.44949  -6693927.12146  20613828.0864   20613825.3444
      1095.9204
 -11419332.39848  -8890015.74644  22174001.6484   22173998.6564
      2441.1234
   9812421.35548   7630120.50044  22180609.5704   22180607.0744
     -3031.1414
  -6237557.34448  -4847624.62544  22568605.3134   22568600.5904
      -129.1514
  -2165455.93749  -1684119.66046  20735843.3284   20735840.7704
      -115.2274
 04  9  7 22 53 15.0000000  0  6G10G 8G28G13G19G27
  -4819836.94946  -3746668.60942  23257959.4304   23257956.0864
      -523.1394
  -8632888.87949  -6706682.51246  20610713.2974   20610710.7584
      1091.2954
 -11455872.23048  -8918488.30544  22167048.5084   22167044.9964
      2435.9894
   9857972.59048   7665614.94144  22189277.6254   22189275.3914
     -3036.7494
  -6235475.78948  -4846002.63744  22569002.0704   22568997.1844
      -138.7704
  -2163666.44949  -1682725.25446  20736184.2584   20736181.5274
      -119.2994
 04  9  7 22 53 30.0000000  0  6G10G 8G28G13G19G27
  -4811848.07847  -3740443.55142  23259479.4774   23259476.7624
      -532.5914
  -8649187.79349  -6719382.95746  20607611.6644   20607608.6564
      1086.5944
 -11492333.77048  -8946899.85944  22160109.8674   22160106.6994
      2430.7694
   9903608.84048   7701175.64544  22197962.2734   22197960.1884
     -3042.4174
  -6233248.71148  -4844267.25044  22569426.5864   22569421.1564
      -148.4724
  -2161814.76248  -1681282.38346  20736536.1724   20736533.6094
      -123.4464
 04  9  7 22 53 45.0000000  0  6G10G 8G28G13G19G27
  -4803719.96147  -3734109.96542  23261026.3524   23261023.5164
      -541.8744
  -8665418.12949  -6732029.96946  20604523.1884   20604520.4024
      1082.0224
 -11528719.19148  -8975252.09844  22153185.8364   22153183.4494
      2425.6954
   9949327.78148   7736800.73844  22206662.3984   22206659.7194
     -3047.9294
  -6230878.51647  -4842420.33644  22569876.5864   22569872.7304
      -158.0134
  -2159902.96948  -1679792.68046  20736900.3204   20736897.7704
      -127.4534
 04  9  7 22 54  0.0000000  0  6G10G 8G28G13G19G27
  -4795453.78546  -3727668.77342  23262598.3054   23262596.1564
      -551.0784
  -8681580.93749  -6744624.35946  20601447.3204   20601444.3754
      1077.5214
 -11565029.30948  -9003545.67244  22146276.3914   22146273.2504
      2420.6744
   9995128.09448   7772489.27344  22215377.5704   22215375.6724
     -3053.3544
  -6228366.11746  -4840462.60244  22570354.3134   22570350.0704
      -167.4934
  -2157932.14148  -1678256.95746  20737275.4844   20737272.8714
      -131.3894
 04  9  7 22 54 15.0000000  0  6G10G 8G28G13G19G27
  -4787045.51247  -3721116.83642  23264199.0634   23264195.6374
      -560.5524
  -8697672.02049  -6757162.85946  20598385.2734   20598382.7074
      1072.7394
 -11601260.00048  -9031777.33644  22139381.6024   22139378.5594
      2415.3794
  10041013.52748   7808244.12943  22224108.8674   22224107.4964
     -3059.0294
  -6225707.35947  -4838390.86344  22570860.7734   22570855.9184
      -177.2514
  -2155897.93048  -1676671.86346  20737662.3594   20737659.5634
      -135.6144
 04  9  7 22 54 30.0000000  0  6G10G 8G28G13G19G27
  -4778497.80147  -3714456.28942  23265826.2974   23265823.6954
      -569.8474
  -8713693.81649  -6769647.37946  20595336.4304   20595333.8554
      1068.1204
 -11637413.78548  -9059949.09444  22132501.6334   22132498.6294
      2410.2524
  10086981.33248   7844063.16844  22232855.7664   22232854.5784
     -3064.5204
  -6222904.84848  -4836207.07444  22571394.0944   22571389.1374
      -186.8344
  -2153802.89849  -1675039.36746  20738060.8364   20738058.1804
      -139.6694
 04  9  7 22 54 45.0000000  0  6G10G 8G28G13G19G27
  -4769805.07846  -3707682.75442  23267480.0234   23267477.8054
      -579.5154
  -8729640.41049  -6782073.28546  20592302.0864   20592299.4924
      1063.1064
 -11673484.75848  -9088056.30944  22125637.8364   22125634.9264
      2404.7324
  10133037.11748   7879950.75443  22241621.4614   22241618.8484
     -3070.3864
  -6219952.90248  -4833906.84044  22571955.1884   22571951.2384
      -196.7964
  -2151641.28149  -1673355.00046  20738472.3444   20738469.6684
      -144.1084
 04  9  7 22 55  0.0000000  0  6G10G 8G28G13G19G27
  -4760971.49647  -3700799.47342  23269160.9694   23269158.9614
      -588.9054
  -8745515.74249  -6794443.67646  20589281.2344   20589278.7274
      1058.3554
 -11709476.75448  -9116101.99644  22118788.7114   22118785.6374
      2399.4664
  10179176.59048   7915903.56643  22250400.9064   22250398.3714
     -3075.9654
  -6216855.38748  -4831493.19144  22572544.6334   22572540.5004
      -206.5014
  -2149416.95349  -1671621.76246  20738896.1804   20738892.6054
      -148.2894
 04  9  7 22 55 15.0000000  0  6G10G 8G28G13G19G27
  -4751999.59047  -3693808.39142  23270868.5314   23270865.7854
      -598.1274
  -8761322.16049  -6806760.34846  20586273.0314   20586270.7114
      1053.7614
 -11745392.13348  -9144087.98444  22111954.2974   22111950.5904
      2394.3594
  10225397.18448   7951919.59843  22259196.2974   22259194.0314
     -3081.3734
  -6213614.69547  -4828967.97344  22573161.0944   22573157.0124
      -216.0464
  -2147132.27348  -1669841.49246  20739330.3914   20739327.4534
      -152.3124
 04  9  7 22 55 30.0000000  0  6G10G 8G28G13G19G27
  -4742887.98447  -3686708.45742  23272602.6414   23272600.5164
      -607.4404
  -8777058.10249  -6819022.12546  20583278.9224   20583276.4344
      1049.0634
 -11781229.16048  -9172012.90644  22105134.5314   22105132.1094
      2389.1354
  10271700.20348   7987999.84843  22268007.9144   22268005.0784
     -3086.8684
  -6210229.20747  -4826329.92644  22573805.9144   22573800.9654
      -225.6994
  -2144785.52348  -1668012.85946  20739777.0394   20739774.3754
      -156.4504
 04  9  7 22 55 45.0000000  0  6G10G 8G28G13G19G27
  -4733636.63747  -3679499.62542  23274362.7974   23274361.0984
      -616.7574
  -8792723.21149  -6831228.68746  20580297.8594   20580294.9184
      1044.3414
 -11816987.58248  -9199876.57044  22098329.6884   22098327.2704
      2383.8954
  10318085.53148   8024144.22343  22276834.0554   22276832.4494
     -3092.3554
  -6206698.90648  -4823579.03144  22574478.0784   22574472.9414
      -235.3534
  -2142376.53548  -1666135.70746  20740235.3834   20740232.3794
      -160.5994
 04  9  7 22 56  0.0000000  0  6G10G 8G28G13G19G27
  -4724246.47747  -3672182.62142  23276149.9844   23276147.6254
      -626.0114
  -8808318.25849  -6843380.67246  20577329.8524   20577326.8014
      1039.6704
 -11852668.15248  -9227679.57844  22091540.2194   22091537.5124
      2378.7054
  10364552.18447   8060351.98043  22285676.7344   22285674.7734
     -3097.7774
  -6203024.45348  -4820715.82044  22575176.7034   22575172.4534
      -244.9644
  -2139905.98448  -1664210.62146  20740705.4694   20740703.2234
      -164.7034
 04  9  7 22 56 15.0000000  0  6G10G 8G28G13G19G27
  -4714717.20347  -3664757.25442  23277962.8204   23277961.1804
      -635.2854
  -8823842.57049  -6855477.53946  20574376.0084   20574373.0904
      1034.9544
 -11888270.29348  -9255421.48044  22084765.5234   22084762.9104
      2373.4764
  10411100.39148   8096623.27043  22294534.9224   22294532.5634
     -3103.2144
  -6199205.41448  -4817739.92244  22575903.3674   22575899.0004
      -254.6034
  -2137373.34448  -1662237.13346  20741187.7114   20741185.4774
      -168.8434
 04  9  7 22 56 30.0000000  0  6G10G 8G28G13G19G27
  -4705047.02047  -3657222.03542  23279802.7664   23279800.9144
      -644.6794
  -8839294.25049  -6867517.80146  20571435.6564   20571432.6994
      1030.1124
 -11923791.86748  -9283100.59844  22078005.5004   22078002.9024
      2368.1054
  10457731.82048   8132959.41443  22303408.6954   22303406.2704
     -3108.7624
  -6195239.73048  -4814649.80144  22576658.5554   22576653.1604
      -264.3794
  -2134776.60248  -1660213.70746  20741681.8134   20741679.2814
      -173.1164
 04  9  7 22 56 45.0000000  0  6G10G 8G28G13G19G27
  -4695235.72347  -3649576.88343  23281669.9924   23281668.5474
      -654.0864
  -8854672.80549  -6879501.08246  20568509.1174   20568506.1094
      1025.2374
 -11959232.59448  -9310716.74244  22071261.5554   22071258.5784
      2362.7154
  10504446.53948   8169360.47743  22312297.3204   22312295.6454
     -3114.3154
  -6191127.28148  -4811445.29744  22577441.0864   22577435.9654
      -274.1634
  -2132115.52749  -1658140.14546  20742188.3204   20742185.0744
      -177.4054
 04  9  7 22 57  0.0000000  0  6G10G 8G28G13G19G27
  -4685281.60947  -3641820.43043  23283564.9304   23283563.5744
      -663.6084
  -8869976.23849  -6891425.83246  20565597.1804   20565594.4344
      1020.2294
 -11994590.46548  -9338268.28144  22064532.7424   22064530.4144
      2357.1914
  10551246.21148   8205827.72343  22321203.7664   22321201.0554
     -3119.9784
  -6186866.17648  -4808124.94144  22578251.7894   22578247.6884
      -284.0744
  -2129387.92649  -1656014.73846  20742707.2114   20742704.3284
      -181.8404
 04  9  7 22 57 15.0000000  0  6G10G 8G28G13G19G27
  -4675186.71547  -3633954.30142  23285484.9534   23285484.3634
      -672.9934
  -8885206.19149  -6903293.32446  20562699.0474   20562695.8754
      1015.3304
 -12029867.14848  -9365756.58644  22057820.6414   22057817.3404
      2351.7794
  10598128.73448   8242359.53143  22330125.0394   22330122.7274
     -3125.5024
  -6182458.24248  -4804690.18444  22579089.7974   22579085.7544
      -293.8624
  -2126595.54348  -1653838.85546  20743238.2894   20743235.6764
      -186.1594
 04  9  7 22 57 30.0000000  0  6G10G 8G28G13G19G27
  -4664948.50847  -3625976.45742  23287433.1644   23287431.7034
      -682.5474
  -8900360.07049  -6915101.53146  20559815.4614   20559812.6294
      1010.2594
 -12065060.02348  -9393179.56244  22051123.0704   22051120.4574
      2346.1924
  10645096.52048   8278957.77043  22339062.9454   22339060.5354
     -3131.1864
  -6177900.74648  -4801138.91844  22579957.5554   22579952.8244
      -303.8334
  -2123735.89549  -1651610.55946  20743782.7894   20743779.8244
      -190.6434
 04  9  7 22 57 45.0000000  0  6G10G 8G28G13G19G27
  -4654571.32847  -3617890.35942  23289408.5394   23289406.0824
      -691.8124
  -8915442.17249  -6926853.82046  20556945.0164   20556942.5704
      1005.4734
 -12100173.23848  -9420540.48844  22044441.2424   22044438.3954
      2340.8814
  10692145.20748   8315619.05543  22348016.1954   22348013.4384
     -3136.5794
  -6173198.07848  -4797474.50044  22580853.9064   22580847.5744
      -313.5114
  -2120813.00049  -1649332.98446  20744338.8674   20744336.2544
      -194.8604
 04  9  7 22 58  0.0000000  0  6G10G 8G28G13G19G27
  -4644054.94946  -3609695.78142  23291408.2034   23291407.8164
      -701.0924
  -8930451.73849  -6938549.59446  20554088.9774   20554085.7034
      1000.6384
 -12135205.93448  -9447838.65244  22037774.9144   22037771.5984
      2335.5134
  10739274.91448   8352343.47743  22356984.6334   22356981.9844
     -3141.9804
  -6168349.69948  -4793696.51644  22581775.7894   22581770.2464
      -323.2254
  -2117826.26249  -1647005.65646  20744907.0004   20744904.4384
      -199.1164
 04  9  7 22 58 15.0000000  0  6G10G 8G28G13G19G27
  -4633401.04746  -3601394.07442  23293436.7894   23293434.6914
      -710.2604
  -8945390.18049  -6950189.93046  20551246.6484   20551243.6724
       995.8964
 -12170159.78548  -9475075.39544  22031123.1564   22031120.7344
      2330.2574
  10786483.91048   8389129.68843  22365967.4614   22365965.9024
     -3147.2664
  -6163357.09047  -4789806.17644  22582725.1024   22582720.3834
      -332.8414
  -2114777.09048  -1644629.67646  20745487.3204   20745484.8594
      -203.2784
 04  9  7 22 58 30.0000000  0  6G10G 8G28G13G19G27
  -4622607.91046  -3592983.84842  23295490.9844   23295487.7154
      -719.5424
  -8960255.49649  -6961773.29746  20548417.9064   20548414.7584
       991.0214
 -12205032.70748  -9502249.09844  22024488.0084   22024484.0354
      2324.8614
  10833773.98048   8425979.07043  22374966.8914   22374964.0944
     -3152.6714
  -6158218.38748  -4785801.99244  22583702.3834   22583698.5204
      -342.5804
  -2111663.58649  -1642203.56246  20746080.1724   20746077.1954
      -207.5674
 04  9  7 22 58 45.0000000  0  6G10G 8G28G13G19G27
  -4611673.96947  -3584463.88342  23297570.5704   23297568.1954
      -728.9294
  -8975045.93749  -6973298.29746  20545603.2974   20545600.3164
       986.0294
 -12239822.97348  -9529358.35544  22017866.8834   22017863.9844
      2319.3514
  10881146.54748   8462892.72743  22383981.5004   22383979.3164
     -3158.1714
  -6152931.87148  -4781682.62944  22584708.8204   22584704.4964
      -352.4344
  -2108483.95748  -1639725.94146  20746685.0634   20746682.2384
      -211.9754
 04  9  7 22 59  0.0000000  0  6G10G 8G28G13G19G27
  -4600602.54346  -3575836.82442  23299677.6484   23299675.0164
      -738.0954
  -8989764.71149  -6984767.47346  20542802.2664   20542799.2664
       981.2524
 -12274533.68048  -9556405.61744  22011261.6884   22011258.7544
      2314.0474
  10928597.97748   8499867.84844  22393011.3914   22393009.6684
     -3163.4294
  -6147500.84447  -4777450.66844  22585742.7664   22585738.5354
      -362.0684
  -2105241.43449  -1637199.30146  20747302.2344   20747299.2034
      -216.1684
 04  9  7 22 59 15.0000000  0  6G10G 8G28G13G19G27
  -4589394.85946  -3567103.57842  23301811.7194   23301808.3284
      -747.1794
  -9004412.52049  -6996181.35246  20540014.8364   20540011.9264
       976.5214
 -12309165.56648  -9583391.49644  22004671.0314   22004668.3954
      2308.7924
  10976127.23048   8536903.58243  22402056.2584   22402053.9184
     -3168.6174
  -6141926.14548  -4773106.73444  22586803.3524   22586799.4104
      -371.6474
  -2101936.77048  -1634624.24646  20747931.3364   20747928.7624
      -220.3114
 04  9  7 22 59 30.0000000  0  6G10G 8G28G13G19G27
  -4578049.80947  -3558263.28542  23303969.6254   23303967.8134
      -756.3374
  -9018988.03949  -7007538.89146  20537241.3204   20537238.5434
       971.7014
 -12343717.37948  -9610314.93744  21998095.6724   21998093.7344
      2303.4544
  11023735.47748   8574000.88343  22411115.7734   22411113.6024
     -3173.8834
  -6136206.56648  -4768649.91444  22587891.6884   22587887.8094
      -381.3054
  -2098568.66048  -1631999.74246  20748571.9924   20748569.1094
      -224.5414
 04  9  7 22 59 45.0000000  0  6G10G 8G28G13G19G27
  -4566566.27047  -3549315.10942  23306155.4774   23306152.8754
      -765.5694
  -9033490.02349  -7018839.13746  20534481.5864   20534478.5084
       966.7994
 -12378187.84848  -9637175.01644  21991536.0784   21991533.9024
      2298.0314
  11071423.32448   8611160.23043  22420190.4924   22420187.8634
     -3179.1904
  -6130340.96948  -4764079.31244  22589008.1334   22589003.6374
      -391.0404
  -2095135.85548  -1629324.82846  20749224.8284   20749222.3674
      -228.8544
 04  9  7 23  0  0.0000000  0  6G10G 8G28G13G19G27
  -4554947.37547  -3540261.41042  23308366.2344   23308363.9734
      -774.5934
  -9047921.19549  -7030084.19146  20531735.7814   20531732.5044
       962.0784
 -12412579.62148  -9663973.77344  21984992.0164   21984989.1094
      2292.7854
  11119187.85947   8648379.32043  22429279.0394   22429277.4304
     -3184.3024
  -6124332.12548  -4759397.08644  22590151.1884   22590146.8364
      -400.5904
  -2091641.00048  -1626601.56646  20749890.3594   20749887.6094
      -232.9904
 04  9  7 23  0 15.0000000  0  6G10G 8G28G13G19G27
  -4543192.75447  -3531101.96142  23310603.4774   23310601.1884
      -783.6414
  -9062280.85949  -7041273.53946  20529002.6644   20528999.3754
       957.3114
 -12446892.21948  -9690710.84844  21978462.4064   21978460.0164
      2287.5074
  11167029.45348   8685658.42643  22438383.7424   22438381.3094
     -3189.4404
  -6118179.62948  -4754602.91844  22591321.7114   22591318.2114
      -410.1664
  -2088083.59449  -1623829.56646  20750567.0784   20750564.4734
      -237.1604
 04  9  7 23  0 30.0000000  0  6G10G 8G28G13G19G27
  -4531302.26646  -3521836.64542  23312865.2584   23312864.0864
      -792.6994
  -9076568.75049  -7052406.95746  20526283.5864   20526280.7304
       952.5264
 -12481125.18748  -9717385.86744  21971948.5554   21971945.3714
      2282.1984
  11214948.05148   8722997.57843  22447502.0944   22447500.0554
     -3194.5734
  -6111883.18048  -4749696.59444  22592520.0704   22592516.3094
      -419.7634
  -2084463.30149  -1621008.55946  20751255.8914   20751253.1254
      -241.3534
 04  9  7 23  0 45.0000000  0  6G10G 8G28G13G19G27
  -4519275.88347  -3512465.46542  23315153.5864   23315152.7704
      -801.7594
  -9090784.61349  -7063484.25446  20523578.8594   20523575.7424
       947.7244
 -12515278.18448  -9743998.56644  21965449.0944   21965446.3444
      2276.8664
  11262943.62548   8760396.69543  22456635.3594   22456633.2544
     -3199.7054
  -6105442.59448  -4744677.96544  22593746.0004   22593742.2704
      -429.3724
  -2080779.73849  -1618138.26246  20751957.1254   20751954.2974
      -245.5714
 04  9  7 23  1  0.0000000  0  6G10G 8G28G13G19G27
  -4507111.89146  -3502987.05942  23317467.9304   23317465.3874
      -810.9334
  -9104926.41449  -7074503.82446  20520887.1484   20520885.0864
       942.7874
 -12549349.18448  -9770547.37544  21958965.8364   21958962.6644
      2271.4004
  11311017.93848   8797857.16843  22465783.4614   22465782.0234
     -3204.9544
  -6098856.04748  -4739545.58244  22594999.4844   22594994.9454
      -439.1034
  -2077030.97348  -1615217.14546  20752670.5944   20752667.6214
      -249.9184
 04  9  7 23  1 15.0000000  0  6G10G 8G28G13G19G27
  -4494811.46946  -3493402.28942  23319808.8984   23319807.0664
      -820.0284
  -9118994.81249  -7085466.21146  20518210.2664   20518207.6644
       937.8934
 -12583339.24248  -9797033.10944  21952497.6884   21952494.3364
      2266.0044
  11359169.62548   8835377.93443  22474946.1334   22474944.2704
     -3210.1124
  -6092124.55948  -4734300.25444  22596280.1484   22596274.7704
      -448.7664
  -2073217.98449  -1612245.99646  20753396.1564   20753393.5354
      -254.1994
 04  9  7 23  1 30.0000000  0  6G10G 8G28G13G19G27
  -4482376.67246  -3483712.87542  23322175.0004   23322175.0474
      -828.9864
  -9132991.71149  -7096372.88346  20515546.9144   20515544.1454
       933.1274
 -12617250.10248  -9823457.12544  21946044.3204   21946041.9614
      2260.7244
  11407396.60248   8872957.35243  22484123.9924   22484122.1484
     -3215.1324
  -6085249.90248  -4728943.39543  22597588.4774   22597583.4304
      -458.3104
  -2069342.53548  -1609226.16446  20754133.1094   20754130.5944
      -258.3634
 04  9  7 23  1 45.0000000  0  6G10G 8G28G13G19G27
  -4469805.07047  -3473916.81642  23324567.8364   23324566.6454
      -838.1074
  -9146914.41849  -7107221.74646  20512897.5004   20512894.7974
       928.1804
 -12651078.95748  -9849817.23844  21939607.6954   21939603.7074
      2255.2574
  11455701.31347   8910597.36343  22493316.4064   22493313.7894
     -3220.3144
  -6078229.57448  -4723472.98844  22598924.1254   22598919.8284
      -468.0224
  -2065401.81648  -1606155.47346  20754883.3134   20754880.6254
      -262.7154
 04  9  7 23  2  0.0000000  0  6G10G 8G28G13G19G27
  -4457097.32047  -3464014.68042  23326986.4454   23326985.0634
      -847.1834
  -9160763.56249  -7118013.28546  20510262.0864   20510259.1214
       923.2764
 -12684826.39548  -9876113.93444  21933185.4774   21933182.3794
      2249.8294
  11504082.77747   8948297.20343  22502521.5944   22502520.5004
     -3225.4314
  -6071064.21948  -4717889.60244  22600287.2504   22600283.7344
      -477.6904
  -2061396.53948  -1603034.48046  20755645.2974   20755642.7774
      -267.0184
 04  9  7 23  2 15.0000000  0  6G10G 8G28G13G19G27
  -4444254.68047  -3454007.44542  23329430.5704   23329428.9494
      -856.1764
  -9174539.97749  -7128748.13746  20507640.1334   20507637.4224
       918.4284
 -12718493.21948  -9902347.78544  21926777.7814   21926776.2424
      2244.4554
  11552539.80947   8986055.88743  22511743.7424   22511741.9804
     -3230.4694
  -6063754.78948  -4712193.93044  22601678.4144   22601673.7854
      -487.2954
  -2057327.45348  -1599863.76646  20756419.7504   20756417.1954
      -271.2724
 04  9  7 23  2 30.0000000  0  6G10G 8G28G13G19G27
  -4431274.63346  -3443893.13742  23331900.2344   23331898.6804
      -865.3364
  -9188240.80549  -7139424.11746  20505033.3984   20505030.4924
       913.3894
 -12752076.75448  -9928516.75844  21920387.6884   21920384.8484
      2238.9024
  11601074.85547   9023875.37143  22520979.4774   22520977.7934
     -3235.6704
  -6056298.62948  -4706383.95344  22603097.5394   22603093.3914
      -497.0774
  -2053191.79748  -1596641.17646  20757206.6564   20757203.8444
      -275.7104
 04  9  7 23  2 45.0000000  0  6G10G 8G28G13G19G27
  -4418158.69547  -3433672.94542  23334396.6644   23334394.3794
      -874.3964
  -9201867.30149  -7150042.16046  20502440.0704   20502437.3364
       908.4334
 -12785578.30148  -9954621.84044  21914012.8444   21914010.1294
      2233.4364
  11649686.37147   9061754.44143  22530229.8754   22530228.3284
     -3240.7684
  -6048697.25448  -4700460.76644  22604543.6724   22604539.5904
      -506.7584
  -2048990.88348  -1593367.74246  20758006.0634   20758003.5554
      -280.0614
 04  9  7 23  3  0.0000000  0  7G10G29G 8G28G13G19G27
  -4404907.60547  -3423347.45742  23336918.2584   23336916.6684
      -883.4064
   -129834.15255    -87277.26652  24362328.1644   24362326.7344

  -9215419.93749  -7160602.65646  20499861.3364   20499858.5004
       903.5094
 -12818998.26248  -9980663.34444  21907653.2584   21907650.0394
      2227.9974
  11698373.52048   9099692.44143  22539495.3134   22539493.6524
     -3245.8104
  -6040951.13348  -4694424.84044  22606019.1334   22606013.8714
      -516.4084
  -2044725.26649  -1590043.87946  20758818.1724   20758815.0394
      -284.3744
 04  9  7 23  3 15.0000000  0  7G10G29G 8G28G13G19G27
  -4391521.62547  -3412916.80142  23339465.1334   23339463.1454
      -892.3994
   -178782.07445   -125418.48042  24353013.8834   24353011.8204
      3263.1954
  -9228898.59049  -7171105.50046  20497296.3524   20497293.5704
       898.5774
 -12852336.50848 -10006641.17244  21901309.3284   21901306.2504
      2222.5504
  11747136.10948   9137689.24243  22548774.3444   22548772.1524
     -3250.8394
  -6033060.29348  -4688276.12944  22607519.3984   22607515.3014
      -526.0564
  -2040394.81649  -1586669.51246  20759641.9924   20759638.8594
      -288.6974
 04  9  7 23  3 30.0000000  0  7G10G29G 8G28G13G19G27
  -4378003.07447  -3402382.91042  23342037.5634   23342035.2664
      -901.2374
   -227695.65245   -163532.89542  24343704.7584   24343704.0004
      3260.9054
  -9242305.41449  -7181552.36346  20494744.9924   20494742.7304
       893.7884
 -12885595.17248 -10032556.98844  21894979.5704   21894977.1684
      2217.2444
  11795971.68848   9175742.91043  22558067.2274   22558065.1844
     -3255.7054
  -6025026.92648  -4682016.36344  22609048.2894   22609043.9614
      -535.5584
  -2036001.47748  -1583246.12146  20760477.8594   20760474.9344
      -292.8894
 04  9  7 23  3 45.0000000  0  7G10G29G 8G28G13G19G27
  -4364355.25847  -3391748.25442  23344634.7424   23344632.6214
      -909.8544
   -276577.69545   -201622.77342  24334404.0394   24334402.2774
      3258.8034
  -9255643.21549  -7191945.45346  20492207.0784   20492203.9574
       889.1874
 -12918777.14148 -10058413.03944  21888665.6174   21888662.0164
      2212.1314
  11844876.86748   9213850.77343  22567374.3594   22567372.1804
     -3260.3454
  -6016854.27048  -4675648.07044  22610603.4304   22610599.4574
      -544.8444
  -2031548.33649  -1579776.14846  20761325.0474   20761322.4694
      -296.8764
 04  9  7 23  4  0.0000000  0  7G10G29G 8G28G13G19G27
  -4350577.08247  -3381012.00842  23347256.7814   23347254.7114
      -918.5454
   -325426.57445   -239686.81642  24325108.2424   24325106.5434
      3256.5924
  -9268910.76249  -7202283.78546  20489682.2344   20489679.1454
       884.5034
 -12951881.11748 -10084208.31644  21882366.1564   21882363.0824
      2206.9324
  11893852.75448   9252013.79743  22576694.5084   22576691.8674
     -3265.0594
  -6008541.00448  -4669170.18044  22612185.9694   22612180.6564
      -554.2184
  -2027034.17649  -1576258.62546  20762184.6414   20762181.5944
      -300.9444
 04  9  7 23  4 15.0000000  0  7G10G29G 8G28G13G19G27
  -4336665.69947  -3370171.99242  23349903.6884   23349901.6564
      -927.4264
   -374239.08246   -277722.48842  24315820.5394   24315817.7894
      3254.1674
  -9282104.89849  -7212564.92246  20487171.4694   20487168.5824
       879.6094
 -12984904.06248 -10109940.46144  21876082.5864   21876078.7344
      2201.5304
  11942902.10247   9290234.03943  22586027.7424   22586025.3164
     -3269.9574
  -6000084.19548  -4662580.46144  22613795.2424   22613790.4924
      -563.7874
  -2022455.77049  -1572691.04346  20763055.3054   20763052.8284
      -305.2274
 04  9  7 23  4 30.0000000  0  7G10G29G 8G28G13G19G27
  -4322621.94147  -3359228.78142  23352576.1644   23352573.9024
      -936.2514
   -423015.46145   -315730.03542  24306538.1414   24306535.9774
      3251.7594
  -9295225.94549  -7222789.12146  20484674.5634   20484671.4964
       874.7364
 -13017846.30948 -10135609.71944  21869813.4144   21869810.4804
      2196.1504
  11992024.19547   9328510.95343  22595375.2274   22595374.1644
     -3274.8064
  -5991484.46148  -4655879.36344  22615431.3444   22615427.1174
      -573.3164
  -2017813.55948  -1569073.73446  20763938.9064   20763936.4184
      -309.4814
 04  9  7 23  4 45.0000000  0  7G10G29G 8G28G13G19G27
  -4308446.35547  -3348182.89542  23355273.8204   23355271.1094
      -945.0394
   -471755.92646   -353709.56642  24297262.8444   24297260.7704
      3249.3644
  -9308274.40249  -7232956.73046  20482191.7734   20482188.7734
       869.8974
 -13050708.43048 -10161216.53944  21863559.9454   21863557.4884
      2190.8084
  12041218.19947   9366843.89843  22604736.8984   22604734.7034
     -3279.6004
  -5982742.19948  -4649067.21944  22617094.7194   22617090.8244
      -582.8174
  -2013107.88749  -1565406.98446  20764834.5234   20764831.8164
      -313.7114
 04  9  7 23  5  0.0000000  0  7G10G29G 8G28G13G19G27
  -4294135.77747  -3337031.79742  23357997.1804   23357994.6414
      -954.0394
   -520456.57046   -391658.10942  24287994.4694   24287992.3834
      3246.7104
  -9321246.81249  -7243065.10246  20479722.9144   20479719.9654
       864.8274
 -13083486.82848 -10186758.12544  21857322.8284   21857319.7544
      2185.2274
  12090487.37148   9405235.43443  22614111.7274   22614110.7584
     -3284.6114
  -5973854.00048  -4642141.33644  22618785.9454   22618781.7274
      -592.5474
  -2008335.32849  -1561688.10246  20765742.4064   20765739.9414
      -318.1714
 04  9  7 23  5 15.0000000  0  7G10G29G 8G28G13G19G27
  -4279692.32847  -3325777.16442  23360745.0314   23360742.8204
      -962.8974
   -569119.02745   -429576.91442  24278734.8984   24278731.8874
      3244.1644
  -9334144.95749  -7253115.59046  20477268.7034   20477265.6884
       859.8764
 -13116183.24248 -10212235.81644  21851100.4304   21851097.2464
      2179.7614
  12139829.53547   9443683.86343  22623500.9064   22623499.9304
     -3289.4784
  -5964821.86348  -4635103.32044  22620505.3284   22620501.1564
      -602.1424
  -2003497.62148  -1557918.46946  20766663.2974   20766660.6604
      -322.5144
 04  9  7 23  5 30.0000000  0  7G10G29G 8G28G13G19G27
  -4265111.19147  -3314415.26642  23363520.4774   23363517.9614
      -972.0764
   -617738.19545   -467461.93042  24269482.8914   24269480.1684
      3241.2784
  -9346963.70749  -7263104.23046  20474829.2584   20474826.3014
       854.5834
 -13148792.61748 -10237645.69544  21844894.9924   21844892.1414
      2173.9584
  12189249.46147   9482192.82043  22632906.6484   22632904.2544
     -3294.6624
  -5955640.97748  -4627949.36744  22622252.0314   22622247.8674
      -612.0594
  -1998589.87548  -1554094.26646  20767597.0784   20767594.7304
      -327.1834
 04  9  7 23  5 45.0000000  0  7G10G29G 8G28G13G19G27
  -4250396.52347  -3302949.30542  23366319.9304   23366318.4924
      -980.9784
   -666317.57445   -505315.93742  24260238.0864   24260234.8754
      3238.6254
  -9359706.94149  -7273034.00446  20472403.9454   20472401.6524
       849.5494
 -13181318.92648 -10262990.83644  21838705.5314   21838702.4574
      2168.4214
  12238742.87947   9520759.11343  22642324.5864   22642322.4384
     -3299.5614
  -5946315.20348  -4620682.51644  22624027.3204   22624021.4884
      -621.7184
  -1993615.83648  -1550218.38346  20768543.6954   20768540.6094
      -331.6034
 04  9  7 23  6  0.0000000  0  7G10G29G 8G28G13G19G27
  -4235547.58247  -3291378.73842  23369145.5234   23369145.3954
      -989.9294
   -714856.05945   -543138.16441  24251002.2274   24250998.5634
      3235.8994
  -9372373.62949  -7282904.15246  20469993.8524   20469990.9574
       844.4464
 -13213761.05148 -10288270.40244  21832532.2034   21832529.0164
      2162.8084
  12288310.50447   9559383.17643  22651757.0864   22651755.1724
     -3304.5084
  -5936843.82048  -4613302.21144  22625829.2814   22625824.8054
      -631.4264
  -1988574.60248  -1546290.14146  20769502.7424   20769500.3524
      -336.0824
 04  9  7 23  6 15.0000000  0  7G10G29G 8G28G13G19G27
  -4220565.57046  -3279704.43042  23371997.1414   23371996.1134
      -998.8014
   -763354.45745   -580929.08242  24241773.0394   24241770.2424
      3233.2274
  -9384964.51649  -7292715.22346  20467597.9304   20467595.3014
       839.3924
 -13246120.00048 -10313485.14544  21826374.2274   21826371.5164
      2157.2634
  12337950.96548   9598064.04343  22661203.2734   22661201.1174
     -3309.3644
  -5927227.71148  -4605809.14544  22627658.8594   22627654.8094
      -641.0744
  -1983466.99648  -1542310.19146  20770474.9454   20770472.5124
      -340.5074
 04  9  7 23  6 30.0000000  0  7G10G29G 8G28G13G19G27
  -4205447.44947  -3267924.09442  23374874.0394   23374871.9654
     -1007.8754
   -811808.94545   -618685.78541  24232553.0864   24232549.8364
      3230.2994
  -9397476.50849  -7302464.82446  20465216.9924   20465214.0394
       834.1334
 -13278392.35248 -10338632.39844  21820232.9694   21820230.1374
      2151.4904
  12387667.43847   9636804.10943  22670663.8444   22670662.2664
     -3314.4324
  -5917463.78948  -4598200.91444  22629517.3204   22629512.3554
      -650.9284
  -1978289.66849  -1538275.91046  20771459.6644   20771457.2664
      -345.1554
 04  9  7 23  6 45.0000000  0  7G10G29G 8G28G13G19G27
  -4190194.87546  -3256038.96142  23377775.7894   23377774.4454
     -1016.8384
   -860219.82455   -656408.33251  24223341.0474   24223337.3364
      3227.3724
  -9409910.74649  -7312153.82446  20462850.8914   20462848.2274
       828.9494
 -13310579.47348 -10363713.25444  21814107.8284   21814105.6094
      2145.8084
  12437458.19947   9675602.07443  22680138.7344   22680137.2114
     -3319.3844
  -5907553.53948  -4590478.60944  22631402.9774   22631399.3914
      -660.6834
  -1973044.02348  -1534188.40246  20772458.5554   20772455.8324
      -349.7104
 04  9  7 23  7  0.0000000  0  7G10G29G 8G28G13G19G27
  -4174808.37946  -3244049.52042  23380704.6954   23380702.8364
     -1025.7664
   -908589.01245   -694098.53541  24214135.8524   24214132.6414
      3224.6134
  -9422267.45749  -7321782.42246  20460498.8364   20460496.6524
       823.7814
 -13342681.55148 -10388727.83644  21807999.5394   21807996.2504
      2140.1394
  12487322.72747   9714457.50843  22689628.2194   22689626.6214
     -3324.3024
  -5897497.20748  -4582642.52044  22633316.6644   22633312.7704
      -670.4224
  -1967730.23848  -1530047.79746  20773469.5164   20773466.9494
      -354.2524
 04  9  7 23  7 15.0000000  0  7G10G29G 8G28G13G19G27
  -4159289.57046  -3231956.93042  23383657.8754   23383656.0274
     -1034.5874
   -956916.78945   -731756.53942  24204939.2664   24204936.3954
      3221.8524
  -9434547.83649  -7331351.55146  20458162.5864   20458159.8834
       818.6924
 -13374700.05548 -10413677.28944  21801906.0634   21801903.3954
      2134.5674
  12537259.26647   9753369.08243  22699130.3204   22699128.4384
     -3329.1034
  -5887296.48048  -4574693.86744  22635257.5784   22635253.2464
      -680.0484
  -1962349.70348  -1525855.17246  20774493.3054   20774490.3754
      -358.7024
 04  9  7 23  7 30.0000000  0  7G10G29G 8G28G13G19G27
  -4143638.03947  -3219760.99642  23386636.8444   23386633.9534
     -1043.4354
  -1005202.07846   -769381.39142  24195751.5314   24195747.4224
      3219.0194
  -9446751.42249  -7340860.83646  20455840.4144   20455837.5634
       813.5724
 -13406634.27348 -10438561.07444  21795829.2034   21795826.1914
      2128.9484
  12587268.22347   9792337.04343  22708646.5554   22708645.0084
     -3333.9304
  -5876950.62148  -4566632.17644  22637226.7274   22637222.6024
      -689.7244
  -1956901.64548  -1521609.91846  20775529.6174   20775527.0274
      -363.2044
 04  9  7 23  7 45.0000000  0  7G10G29G 8G28G13G19G27
  -4127852.16847  -3207460.32842  23389640.0394   23389638.0784
     -1052.3914
  -1053442.84046   -806971.57842  24186571.6804   24186567.6524
      3216.0514
  -9458876.39549  -7350308.86346  20453532.8594   20453530.1054
       808.3324
 -13438482.34848 -10463377.73444  21789769.5314   21789765.8984
      2123.2054
  12637351.09447   9831362.62543  22718176.9774   22718175.4734
     -3338.8584
  -5866458.00048  -4558456.11344  22639223.5004   22639219.5554
      -699.5084
  -1951384.29349  -1517310.69946  20776579.4534   20776577.5394
      -367.8234
 04  9  7 23  8  0.0000000  0  7G10G29G 8G28G13G19G27
  -4111933.82047  -3195056.39142  23392669.7584   23392667.0984
     -1061.2234
  -1101640.38746   -844528.06642  24177399.6254   24177395.7274
      3213.1704
  -9470924.02749  -7359696.62946  20451240.5234   20451238.0164
       803.1764
 -13470245.80548 -10488128.44944  21783724.4224   21783721.4734
      2117.5644
  12687506.03947   9870444.35943  22727722.0634   22727719.4534
     -3343.6634
  -5855820.17248  -4550166.90644  22641247.1724   22641242.6724
      -709.1894
  -1945799.05548  -1512958.55546  20777642.7734   20777640.2344
      -372.3494
 04  9  7 23  8 15.0000000  0  7G10G29G 8G28G13G19G27
  -4095885.18747  -3182550.98442  23395723.0164   23395721.3634
     -1069.9094
  -1149796.49646   -882052.29742  24168235.5554   24168232.5554
      3210.4074
  -9482896.17249  -7369025.56246  20448962.4694   20448959.1414
       798.1434
 -13501926.44548 -10512814.62544  21777695.3914   21777691.6564
      2112.0434
  12737730.81347   9909580.52043  22737279.1254   22737276.8754
     -3348.3184
  -5845039.30948  -4541766.23044  22643298.9454   22643293.8324
      -718.7244
  -1940147.97349  -1508555.12146  20778718.1954   20778715.5554
      -376.7394
 04  9  7 23  8 30.0000000  0  7G10G29G 8G28G13G19G27
  -4079703.76247  -3169942.10942  23398802.6884   23398800.0394
     -1078.7624
  -1197908.12945   -919541.84042  24159080.4224   24159076.8014
      3207.4424
  -9494790.10949  -7378293.56246  20446698.6414   20446696.2344
       792.9294
 -13533521.52048 -10537434.13744  21771683.5394   21771680.5824
      2106.3384
  12788027.78947   9948772.95743  22746850.4844   22746848.7664
     -3353.1324
  -5834112.87148  -4533252.09844  22645378.5864   22645373.6804
      -728.4294
  -1934428.17648  -1504098.13346  20779806.6484   20779804.0434
      -381.3204
 04  9  7 23  8 45.0000000  0  7G10G29G 8G28G13G19G27
  -4063389.26247  -3157229.54342  23401906.9614   23401906.3834
     -1087.6334
  -1245974.43045   -956996.09442  24149933.8364   24149929.9494
      3204.4204
  -9506605.30949  -7387500.20346  20444450.3134   20444447.6884
       787.6804
 -13565030.47748 -10561986.54344  21765687.5634   21765684.3834
      2100.5974
  12838397.30547   9988021.88343  22756436.0554   22756432.8484
     -3357.9684
  -5823040.21548  -4524624.05144  22647485.6254   22647481.3404
      -738.1774
  -1928639.14148  -1499587.19546  20780908.1174   20780905.6484
      -385.9364
 04  9  7 23  9  0.0000000  0  7G10G29G 8G28G13G19G27
  -4046941.17247  -3144412.84042  23405037.0704   23405035.7194
     -1096.5394
  -1293994.28945   -994414.12542  24140795.1024   24140791.8594
      3201.3244
  -9518340.76249  -7396644.72346  20442217.0234   20442214.4344
       782.3644
 -13596452.44548 -10586471.17244  21759707.1644   21759705.0004
      2094.7984
  12888839.95347  10027327.82443  22766034.0394   22766032.3094
     -3362.8434
  -5811820.50448  -4515881.44144  22649620.1804   22649616.1684
      -747.9814
  -1922779.94148  -1495021.58246  20782023.3834   20782020.5204
      -390.6134
 04  9  7 23  9 15.0000000  0  7G10G29G 8G28G13G19G27
  -4030362.73847  -3131494.55542  23408192.0084   23408189.9304
     -1105.2294
  -1341970.55145  -1031798.18742  24131664.8524   24131662.8794
      3198.4174
  -9529999.60949  -7405729.52346  20439998.5704   20439996.1334
       777.2574
 -13627790.45348 -10610890.36744  21753744.2274   21753741.3244
      2089.2014
  12939352.33647  10066688.07843  22775646.7034   22775644.5904
     -3367.4924
  -5800457.16848  -4507026.89144  22651783.1414   22651778.0704
      -757.5564
  -1916853.59448  -1490403.65646  20783150.8754   20783147.8794
      -395.0904
 04  9  7 23  9 30.0000000  0  7G10G29G 8G28G13G19G27
  -4013651.59046  -3118472.89842  23411371.3984   23411369.2114
     -1114.0774
  -1389900.21545  -1069145.94942  24122545.5634   24122542.8954
      3195.3114
  -9541578.85549  -7414752.30946  20437794.9144   20437792.7234
       771.9504
 -13659041.68448 -10635241.96544  21747798.2114   21747794.9534
      2083.4154
  12989936.84047  10106104.56643  22785271.9144   22785270.4494
     -3372.3004
  -5788947.57448  -4498058.37943  22653972.8834   22653968.4844
      -767.3064
  -1910857.25048  -1485731.18746  20784291.8914   20784289.1024
      -399.7564
 04  9  7 23  9 45.0000000  0  7G10G29G 8G28G13G19G27
  -3996808.84847  -3105348.72742  23414578.0704   23414573.1994
     -1122.8494
  -1437783.84046  -1106457.82842  24113433.1174   24113430.6764
      3192.2424
  -9553079.46149  -7423713.82046  20435606.2584   20435603.9264
       766.7074
 -13690207.14848 -10659526.70344  21741867.5084   21741863.3554
      2077.6984
  13040592.32447  10145576.32043  22794911.6564   22794909.5824
     -3377.0324
  -5777292.66848  -4488976.62944  22656190.6024   22656186.3914
      -776.9944
  -1904791.91848  -1481004.94546  20785446.5864   20785443.6994
      -404.3554
 04  9  7 23 10  0.0000000  0  7G10G29G 8G28G13G19G27
  -3979832.08247  -3092120.08642  23417807.3364   23417804.2424
     -1131.7844
  -1485618.66446  -1143731.69542  24104330.0164   24104327.8594
      3188.9884
  -9564498.77049  -7432611.96946  20433433.5084   20433430.6724
       761.2874
 -13721283.99648 -10683742.41444  21735953.7504   21735949.5944
      2071.7904
  13091321.13347  10185105.23843  22804564.6954   22804563.9574
     -3381.9214
  -5765489.93048  -4479779.68444  22658436.4144   22658431.6764
      -786.8494
  -1898654.84449  -1476222.81246  20786614.2894   20786611.3014
      -409.1384
 04  9  7 23 10 15.0000000  0  7G10G29G 8G28G13G19G27
  -3962722.32846  -3078787.82042  23421063.1024   23421059.8364
     -1140.6504
  -1533405.15645  -1180967.91042  24095237.5394   24095234.3164
      3185.7664
  -9575837.34849  -7441447.23446  20431276.1024   20431273.0394
       755.9054
 -13752273.06248 -10707889.72744  21730056.0314   21730052.5984
      2065.9384
  13142122.18047  10224690.43443  22814232.1954   22814230.4534
     -3386.7364
  -5753540.30948  -4470468.30144  22660711.1804   22660706.0984
      -796.6414
  -1892446.72348  -1471385.31646  20787795.8914   20787792.7704
      -413.8754
 04  9  7 23 10 30.0000000  0  7G10G29G 8G28G13G19G27
  -3945482.04746  -3065353.82842  23424343.5944   23424340.8014
     -1149.3524
  -1581145.16046  -1218167.87142  24086153.2034   24086149.6604
      3182.6674
  -9587097.47749  -7450221.35546  20429132.7664   20429130.5394
       750.6754
 -13783176.53548 -10731970.31244  21724175.2034   21724172.1844
      2060.2324
  13192992.97347  10264329.98043  22823913.2734   22823910.2424
     -3391.3864
  -5741445.90648  -4461044.10244  22663011.6174   22663007.5314
      -806.2934
  -1886169.71948  -1466494.14546  20788990.0634   20788987.1214
      -418.4674
 04  9  7 23 10 45.0000000  0  7G10G29G 8G28G13G19G27
  -3928110.67646  -3051817.75042  23427648.9224   23427647.0274
     -1158.0914
  -1628837.73045  -1255330.89142  24077077.0474   24077073.5354
      3179.5054
  -9598278.26649  -7458933.65246  20427005.5634   20427002.7854
       745.3864
 -13813993.55948 -10755983.53944  21718310.5164   21718307.9774
      2054.4684
  13243933.94148  10304024.20743  22833606.7194   22833604.3914
     -3396.0654
  -5729206.19548  -4451506.65244  22665341.6884   22665337.3484
      -815.9814
  -1879823.01248  -1461548.66046  20790198.0004   20790194.9024
      -423.1144
 04  9  7 23 11  0.0000000  0  7G10G29G 8G28G13G19G27
  -3910609.77346  -3038180.68442  23430979.1724   23430976.5664
     -1166.7274
  -1676483.71146  -1292457.60942  24068010.9694   24068006.9654
      3176.3994
  -9609380.80149  -7467584.98046  20424892.5634   20424889.7854
       740.1694
 -13844725.18748 -10779930.23444  21712463.0474   21712459.7624
      2048.7754
  13294943.64848  10343772.00043  22843313.6564   22843311.3444
     -3400.6474
  -5716822.52748  -4441857.04344  22667698.0394   22667693.9104
      -825.5784
  -1873407.77348  -1456549.77046  20791418.1174   20791415.6374
      -427.6834
 04  9  7 23 11 15.0000000  0  7G10G29G 8G28G13G19G27
  -3892979.35546  -3024442.65642  23434333.5944   23434332.1604
     -1175.3614
  -1724082.71946  -1329547.74242  24058953.0704   24058949.5204
      3173.2674
  -9620404.78149  -7476175.10246  20422795.2504   20422792.1764
       734.9324
 -13875371.32848 -10803810.30544  21706631.0784   21706627.6054
      2043.0764
  13346022.02347  10383573.30143  22853033.6414   22853031.2234
     -3405.2254
  -5704294.82448  -4432095.19144  22670082.1804   22670077.2424
      -835.1804
  -1866923.68048  -1451497.23046  20792652.8674   20792649.4144
      -432.2734
 04  9  7 23 11 30.0000000  0  7G10G29G 8G28G13G19G27
  -3875218.08246  -3010602.74642  23437714.1094   23437712.1094
     -1184.0854
  -1771632.95746  -1366599.85241  24049903.5944   24049899.9494
      3170.0164
  -9631348.43449  -7484702.60946  20420712.6024   20420709.6844
       729.5774
 -13905930.28148 -10827622.46144  21700816.0864   21700812.9384
      2037.2644
  13397170.39847  10423429.14842  22862766.1724   22862764.2704
     -3409.8924
  -5691621.63748  -4422219.96544  22672493.3054   22672488.7114
      -844.8794
  -1860369.19148  -1446389.84046  20793899.7894   20793896.6214
      -436.9664
 04  9  7 23 11 45.0000000  0  7G10G29G 8G28G13G19G27
  -3857326.24646  -2996661.06642  23441118.5084   23441116.4574
     -1192.7894
  -1819133.89546  -1403613.59042  24040864.2664   24040860.7624
      3166.7294
  -9642211.82849  -7493167.59046  20418645.5944   20418642.2304
       724.2264
 -13936401.91048 -10851366.57044  21695017.5784   21695014.7664
      2031.4424
  13448388.41447  10463339.24242  22872512.3284   22872511.3364
     -3414.5344
  -5678802.93048  -4412231.38344  22674933.1804   22674928.6334
      -854.5804
  -1853744.21149  -1441227.51246  20795160.0164   20795157.4804
      -441.6654
 04  9  7 23 12  0.0000000  0  7G10G29G 8G28G13G19G27
  -3839303.68446  -2982617.53142  23444548.8364   23444546.8914
     -1201.5044
  -1866585.13346  -1440588.54742  24031835.6024   24031831.3444
      3163.4164
  -9652994.64849  -7501569.78946  20416593.2894   20416590.3244
       718.8554
 -13966786.00048 -10875042.45744  21689235.2974   21689232.3484
      2025.6064
  13499676.18047  10503303.69942  22882273.1724   22882270.7624
     -3419.1844
  -5665838.57448  -4402129.27744  22677400.1024   22677394.9574
      -864.2904
  -1847048.27348  -1436009.90646  20796434.4144   20796431.6524
      -446.3964
 04  9  7 23 12 15.0000000  0  7G10G29G 8G28G13G19G27
  -3821153.13347  -2968474.28142  23448002.5554   23448000.7034
     -1210.0374
  -1913988.73446  -1477526.38742  24022815.0394   24022811.6644
      3160.2404
  -9663699.04749  -7509910.87546  20414556.3284   20414553.3204
       713.6274
 -13997084.85248 -10898651.93044  21683470.4694   21683467.3094
      2019.9234
  13551031.03547  10543320.46142  22892045.5394   22892042.7814
     -3423.6574
  -5652731.04748  -4391915.62144  22679893.6094   22679889.8834
      -873.8354
  -1840283.77349  -1430738.86346  20797721.9144   20797718.9614
      -450.9674
 04  9  7 23 12 30.0000000  0  7G10G29G 8G28G13G19G27
  -3802870.70346  -2954228.22742  23451482.4384   23451478.5124
     -1218.8294
  -1961340.32046  -1514423.69542  24013803.4924   24013801.0474
      3156.7724
  -9674320.85549  -7518187.60246  20412534.9384   20412532.3094
       708.1214
 -14027294.25448 -10922191.69544  21677720.8364   21677717.7854
      2013.9604
  13602456.74647  10583392.42242  22901830.4064   22901829.1054
     -3428.3814
  -5639476.22748  -4381587.17244  22682416.6334   22682411.8794
      -883.6554
  -1833446.51649  -1425411.14146  20799023.1414   20799020.0124
      -455.8174
 04  9  7 23 12 45.0000000  0  7G10G29G 8G28G13G19G27
  -3784459.84047  -2939882.07842  23454985.8364   23454983.4574
     -1227.3914
  -2008642.53946  -1551282.52742  24004802.8444   24004799.2464
      3153.4814
  -9684863.05549  -7526402.29746  20410528.9844   20410526.4534
       702.8134
 -14057417.42248 -10945664.25845  21671989.2034   21671985.8754
      2008.2114
  13653949.97346  10623516.96542  22911629.1954   22911628.7584
     -3432.8824
  -5626077.46948  -4371146.59844  22684966.2274   22684961.1684
      -893.2514
  -1826539.65649  -1420029.16846  20800337.2034   20800334.2344
      -460.4574
 04  9  7 23 13  0.0000000  0  7G10G29G 8G28G13G19G27
  -3765920.91446  -2925436.19143  23458513.7974   23458511.8324
     -1235.9284
  -2055895.57446  -1588103.05142  23995810.6334   23995806.9024
      3150.2024
  -9695325.82049  -7534555.10546  20408538.0474   20408535.1054
       697.5184
 -14087454.43749 -10969069.71145  21666273.4534   21666269.1454
      2002.4684
  13705510.29347  10663693.79343  22921441.5944   22921439.9804
     -3437.3554
  -5612535.10248  -4360594.10244  22687542.8054   22687538.5204
      -902.8244
  -1819563.20748  -1414592.98046  20801665.1414   20801661.8364
      -465.0974
 04  9  7 23 13 15.0000000  0  7G10G29G 8G28G13G19G27
  -3747254.63746  -2910891.05142  23462065.6334   23462063.6094
     -1244.4184
  -2103099.41046  -1624885.28542  23986828.3674   23986824.3834
      3146.9224
  -9705709.47349  -7542646.24646  20406561.9304   20406559.4454
       692.2434
 -14117405.65648 -10992408.30144  21660574.0474   21660570.1054
      1996.7484
  13757136.74647  10703922.18442  22931266.0634   22931263.4804
     -3441.7644
  -5598849.74248  -4349930.18444  22690147.2114   22690143.0434
      -912.3574
  -1812517.63748  -1409102.92646  20803005.6564   20803002.9064
      -469.7054
 04  9  7 23 13 30.0000000  0  7G10G29G 8G28G13G19G27
  -3728460.61346  -2896246.36742  23465641.6804   23465640.3404
     -1252.9354
  -2150253.06246  -1661628.37542  23977856.0474   23977851.4574
      3143.5774
  -9716013.25449  -7550675.16846  20404601.2894   20404598.5204
       686.9194
 -14147270.30948 -11015679.41044  21654890.4694   21654887.0554
      1990.9774
  13808829.98847  10744202.58243  22941102.3444   22941101.3634
     -3446.2164
  -5585020.62948  -4339154.25044  22692779.6644   22692774.5634
      -921.9414
  -1805402.10948  -1403558.35946  20804359.8444   20804357.0234
      -474.3684
 04  9  7 23 13 45.0000000  0  7G10G29G 8G28G13G19G27
  -3709540.18746  -2881503.19142  23469241.5164   23469240.9024
     -1261.3624
  -2197357.52346  -1698333.12542  23968891.6564   23968887.9494
      3140.2974
  -9726238.34849  -7558642.76246  20402655.5704   20402652.6454
       681.6734
 -14177049.57448 -11038884.01645  21649224.0394   21649220.2074
      1985.2844
  13860588.43447  10784533.80942  22950952.1334   22950950.8634
     -3450.5634
  -5571049.18048  -4328267.40244  22695436.9064   22695433.1954
      -931.4304
  -1798217.75048  -1397960.16046  20805726.8834   20805724.0904
      -478.9574
 04  9  7 23 14  0.0000000  0  7G10G29G 8G28G13G19G27
  -3690489.42646  -2866658.45342  23472867.5474   23472865.8714
     -1270.0514
  -2244408.16846  -1734995.93442  23959938.1954   23959934.6214
      3136.7104
  -9736380.41049  -7566545.66846  20400725.4534   20400722.7464
       676.1384
 -14206739.09448 -11062018.68044  21643573.9304   21643570.5984
      1979.3014
  13912416.18047  10824919.02742  22960814.7504   22960812.6294
     -3455.1834
  -5556931.12948  -4317266.33244  22698123.9774   22698118.8404
      -941.2034
  -1790960.25849  -1392304.97746  20807108.0554   20807104.9734
      -483.8334
 04  9  7 23 14 15.0000000  0  7G10G29G 8G28G13G19G27
  -3671310.53546  -2851713.85542  23476517.0864   23476514.8484
     -1278.5934
  -2291406.66446  -1771618.12542  23950995.1414   23950991.4184
      3133.2334
  -9746441.19149  -7574385.23446  20398810.9534   20398808.1954
       670.7194
 -14236340.66848 -11085084.81645  21637940.7274   21637937.7154
      1973.4384
  13964311.03947  10865356.51642  22970690.1884   22970687.8444
     -3459.6574
  -5542668.61748  -4306152.67244  22700838.1334   22700833.7774
      -950.8344
  -1783631.47749  -1386594.23446  20808502.6334   20808499.6094
      -488.5854
 04  9  7 23 14 30.0000000  0  7G10G29G 8G28G13G19G27
  -3652006.65246  -2836671.88342  23480190.8754   23480188.3594
     -1286.9264
  -2338355.64846  -1808201.68042  23942060.1564   23942056.8914
      3129.9324
  -9756423.47749  -7582163.63746  20396911.5234   20396908.6214
       665.4864
 -14265857.19548 -11108084.67645  21632324.1414   21632321.2464
      1967.7684
  14016269.65647  10905843.74642  22980578.1094   22980575.3094
     -3463.9084
  -5528264.57048  -4294928.73044  22703578.7584   22703573.9224
      -960.2704
  -1776234.15248  -1380830.09446  20809910.1884   20809907.3164
      -493.1554
 04  9  7 23 14 45.0000000  0  7G10G29G 8G28G13G19G27
  -3632577.05546  -2821531.90642  23483887.2504   23483885.4694
     -1295.3074
  -2385253.72745  -1844745.57842  23933134.7894   23933133.2544
      3126.5394
  -9766326.05949  -7589879.92246  20395026.8984   20395024.1294
       660.1724
 -14295287.69548 -11131017.50444  21626723.5554   21626720.4104
      1962.0334
  14068292.97347  10946381.34843  22990477.0944   22990475.4614
     -3468.2214
  -5513718.20347  -4283593.91444  22706347.4454   22706342.8754
      -969.7584
  -1768767.27748  -1375011.75446  20811331.1484   20811328.2114
      -497.7924
 04  9  7 23 15  0.0000000  0  7G10G29G 8G28G13G19G27
  -3613020.09845  -2806292.74642  23487608.4774   23487607.7114
     -1303.7974
  -2432098.71946  -1881248.10242  23924220.7584   23924218.6094
      3122.9994
  -9776147.15249  -7597532.72346  20393157.8134   20393154.9774
       654.7404
 -14324630.14148 -11153881.73445  21621140.6174   21621136.5234
      1956.1634
  14120382.54747  10986970.59443  23000389.4144   23000387.8524
     -3472.6384
  -5499027.58248  -4272146.68444  22709143.0704   22709138.4774
      -979.3754
  -1761228.83248  -1369137.64146  20812766.0944   20812762.9964
      -502.5634
 04  9  7 23 15 15.0000000  0  7G10G29G 8G28G13G19G27
  -3593338.07246  -2790956.10942  23491354.5864   23491352.9774
     -1312.1354
  -2478892.52346  -1917710.80542  23915316.5704   23915314.3134
      3119.5874
  -9785888.82449  -7605123.62546  20391304.3754   20391301.4494
       649.4454
 -14353886.64548 -11176678.98045  21615573.1954   21615568.8754
      1950.4344
  14172535.98847  11027609.61343  23010314.2034   23010312.1844
     -3476.8964
  -5484195.07447  -4260588.88744  22711965.4224   22711960.6214
      -988.8344
  -1753621.00448  -1363209.46946  20814213.5474   20814210.7464
      -507.1894
 04  9  7 23 15 30.0000000  0  7G10G29G 8G28G13G19G27
  -3573528.51246  -2775520.12942  23495124.4224   23495122.3164
     -1320.6374
  -2525632.07846  -1954131.20342  23906421.3284   23906419.4024
      3115.9704
  -9795548.04749  -7612650.29346  20389466.6174   20389463.6524
       643.9484
 -14383054.44148 -11199407.09844  21610022.2504   21610018.2544
      1944.5204
  14224755.67648  11068300.25042  23020251.5004   23020249.1844
     -3481.3124
  -5469218.02748  -4248918.44544  22714815.0634   22714810.9024
      -998.4704
  -1745940.84849  -1357224.93446  20815674.7274   20815671.9304
      -512.0104
 04  9  7 23 15 45.0000000  0  7G10G29G 8G28G13G19G27
  -3553594.63346  -2759987.25442  23498918.7664   23498915.8754
     -1328.9254
  -2572319.96946  -1990511.35242  23897537.8204   23897535.3054
      3112.5264
  -9805127.62149  -7620114.89146  20387643.5634   20387640.2974
       638.6384
 -14412136.33648 -11222068.28945  21604488.5784   21604484.4494
      1938.7934
  14277038.44947  11109040.06342  23030199.9064   23030198.2194
     -3485.5184
  -5454099.42648  -4237137.71544  22717692.0394   22717687.4064
     -1007.9074
  -1738191.35548  -1351186.36746  20817149.3284   20817146.8054
      -516.6334
 04  9  7 23 16  0.0000000  0  7G10G29G 8G28G13G19G27
  -3533537.69947  -2744358.48442  23502734.6024   23502732.0944
     -1337.1294
  -2618956.84446  -2026851.74642  23888662.7194   23888661.0314
      3109.1254
  -9814628.76649  -7627518.37146  20385835.6174   20385832.6174
       633.4104
 -14441133.30548 -11244663.31245  21598970.0234   21598966.9614
      1933.1314
  14329383.11347  11149828.05142  23040161.2584   23040159.5474
     -3489.6444
  -5438840.41048  -4225247.57444  22720596.4924   22720591.5234
     -1017.2684
  -1730373.27748  -1345094.36346  20818637.0704   20818634.1994
      -521.2054
 04  9  7 23 16 15.0000000  0  7G10G29G 8G28G13G19G27
  -3513356.49647  -2728632.85542  23506574.8754   23506572.4184
     -1345.4144
  -2665540.99246  -2063151.07042  23879797.7274   23879796.4774
      3105.6104
  -9824049.58249  -7634859.27046  20384042.6564   20384039.8444
       628.0544
 -14470043.77048 -11267190.92645  21593468.3284   21593465.5204
      1927.3644
  14381790.84847  11190665.21142  23050134.2814   23050132.7424
     -3493.8494
  -5423439.65247  -4213246.97344  22723526.1484   22723522.6804
     -1026.7174
  -1722485.05548  -1338947.69545  20820138.1254   20820135.3834
      -525.8824
 04  9  7 23 16 30.0000000  0  7G10G29G 8G28G13G19G27
  -3493051.53546  -2712810.81642  23510439.3674   23510436.1374
     -1353.6644
  -2712072.33247  -2099409.23442  23870944.5704   23870942.2974
      3102.0894
  -9833390.33249  -7642137.76646  20382265.1174   20382262.4104
       622.7174
 -14498868.02748 -11289651.36345  21587983.6024   21587980.3594
      1921.6174
  14434261.13747  11231551.11743  23060118.7974   23060117.2734
     -3498.0194
  -5407897.37548  -4201136.13343  22726485.3204   22726479.4414
     -1036.1524
  -1714526.93448  -1332746.56245  20821652.7894   20821649.2424
      -530.5414
 04  9  7 23 16 45.0000000  0  7G10G29G 8G28G13G19G27
  -3472622.86346  -2696892.36342  23514325.6484   23514323.9344
     -1361.9114
  -2758550.32446  -2135625.84042  23862099.1254   23862097.3204
      3098.5334
  -9842650.84449  -7649353.73846  20380502.7974   20380500.3204
       617.3674
 -14527605.82848 -11312044.43745  21582515.2114   21582511.9534
      1915.8534
  14486793.90246  11272485.69142  23070115.2424   23070114.2464
     -3502.1844
  -5392213.74647  -4188915.09444  22729469.0164   22729464.3284
     -1045.5754
  -1706498.71548  -1326490.80546  20823180.7274   20823177.8484
      -535.2154
 04  9  7 23 17  0.0000000  0  7G10G29G 8G28G13G19G27
  -3452070.12146  -2680877.26242  23518237.3674   23518235.0394
     -1370.1834
  -2804974.27047  -2171800.31242  23853264.5084   23853263.0314
      3094.9304
  -9851830.16049  -7656506.44946  20378756.3054   20378753.2584
       611.9544
 -14556256.50448 -11334369.60944  21577062.4614   21577059.3484
      1910.0454
  14539389.45747  11313469.20742  23080123.0084   23080122.6134
     -3506.3704
  -5376388.19547  -4176583.49244  22732480.1724   22732475.7234
     -1055.0374
  -1698399.64148  -1320179.83646  20824721.0554   20824718.6024
      -539.9384
 04  9  7 23 17 15.0000000  0  7G10G29G 8G28G13G19G27
  -3431396.37947  -2664767.85942  23522172.3054   23522168.9304
     -1378.2494
  -2851346.53547  -2207934.54742  23844440.9224   23844437.8094
      3091.4844
  -9860931.20749  -7663598.17646  20377024.4144   20377021.6564
       606.7364
 -14584822.87148 -11356629.08244  21571627.2344   21571623.2854
      1904.4244
  14592044.60547  11354499.14543  23090144.3834   23090143.4184
     -3510.3434
  -5360423.68047  -4164143.60944  22735517.9454   22735513.8714
     -1064.3014
  -1690232.44148  -1313815.79346  20826275.9694   20826272.9064
      -544.4804
 04  9  7 23 17 30.0000000  0  7G10G29G 8G28G13G19G27
  -3410603.60647  -2648565.74642  23526128.9064   23526125.5664
     -1386.1854
  -2897668.61347  -2244029.66042  23835625.6174   23835623.3524
      3088.1394
  -9869955.60949  -7670630.17246  20375307.0704   20375304.5744
       601.6274
 -14613306.44148 -11378824.03945  21566206.2274   21566203.1174
      1898.9054
  14644757.41847  11395574.03142  23100175.6024   23100173.5704
     -3514.1874
  -5344321.80948  -4151596.69944  22738582.4924   22738577.6134
     -1073.4584
  -1681998.79748  -1307399.96545  20827842.3984   20827839.5514
      -548.9104
 04  9  7 23 17 45.0000000  0  7G10G29G 8G28G13G19G27
  -3389689.26246  -2632268.81642  23530108.5554   23530106.5944
     -1394.2904
  -2943937.14147  -2280083.05942  23826822.0084   23826818.6914
      3084.5684
  -9878900.37149  -7677600.10946  20373605.0164   20373602.6564
       596.3174
 -14641704.35548 -11400952.27044  21560802.0704   21560798.7274
      1893.1944
  14697530.56647  11436695.94142  23110217.2274   23110216.4614
     -3518.2104
  -5328080.07447  -4138940.78144  22741672.3134   22741669.1334
     -1082.7824
  -1673695.70348  -1300930.02346  20829422.7344   20829420.0784
      -553.5404
 04  9  7 23 18  0.0000000  0  7G10G29G 8G28G13G19G27
  -3368655.13346  -2615878.60242  23534110.0084   23534108.1644
     -1402.2754
  -2990153.42247  -2316095.70342  23818027.1884   23818024.4344
      3081.0854
  -9887766.81649  -7684509.03146  20371917.6954   20371914.7154
       591.0964
 -14670018.06649 -11423014.86745  21555414.4534   21555411.2234
      1887.5814
  14750362.28946  11477863.46542  23120270.7424   23120269.4184
     -3522.1154
  -5311700.07847  -4126177.16843  22744789.5394   22744785.0274
     -1092.0004
  -1665324.65648  -1294407.12546  20831015.6884   20831012.8634
      -558.0704
 04  9  7 23 18 15.0000000  0  7G10G29G 8G28G13G19G27
  -3347498.84446  -2599393.17642  23538136.4694   23538134.5514
     -1410.4194
  -3036314.56647  -2352065.40642  23809242.5634   23809240.6804
      3077.4104
  -9896552.14549  -7691354.73046  20370245.9304   20370242.8754
       585.6894
 -14698244.89148 -11445009.77745  21550043.0944   21550039.7584
      1881.7884
  14803254.87547  11519078.44542  23130335.6174   23130334.5474
     -3526.1724
  -5295179.28948  -4113303.81644  22747934.1334   22747929.4264
     -1101.3864
  -1656882.89548  -1287829.13346  20832621.7734   20832618.8914
      -562.7844
 04  9  7 23 18 30.0000000  0  7G10G29G 8G28G13G19G27
  -3326221.10946  -2582813.14842  23542185.8054   23542184.6294
     -1418.5164
  -3082420.76246  -2387992.27042  23800468.7894   23800466.1484
      3073.7464
  -9905256.82849  -7698137.60246  20368589.6174   20368586.7464
       580.3124
 -14726385.25448 -11466937.30945  21544688.1804   21544685.5704
      1876.0244
  14856207.53547  11560340.22742  23140412.9774   23140411.6414
     -3530.1774
  -5278518.33648  -4100321.25443  22751104.3834   22751099.5634
     -1110.7304
  -1648370.83648  -1281196.36746  20834241.7114   20834238.9264
      -567.4714
 04  9  7 23 18 45.0000000  0  7G10G29G 8G28G13G19G27
  -3304821.85245  -2566138.43042  23546257.1954   23546256.9884
     -1426.6174
  -3128471.27746  -2423875.75042  23791705.1334   23791703.2934
      3070.0344
  -9913880.41049  -7704857.26646  20366948.4774   20366945.5784
       574.9054
 -14754438.75848 -11488797.16045  21539349.3984   21539346.6804
      1870.2344
  14909220.41047  11601648.89842  23150500.3054   23150499.3754
     -3534.1924
  -5261716.89148  -4087229.21543  22754301.3674   22754296.8674
     -1120.0964
  -1639788.02748  -1274508.47746  20835874.9144   20835871.9924
      -572.1874
 04  9  7 23 19  0.0000000  0  7G10G29G 8G28G13G19G27
  -3283299.73046  -2549367.93442  23550352.7034   23550352.1804
     -1434.8084
  -3174464.10246  -2459714.27742  23782953.1174   23782951.4414
      3066.1884
  -9922421.12949  -7711512.36746  20365323.6564   20365320.3524
       569.3814
 -14782403.66448 -11510587.97744  21534028.5314   21534024.8794
      1864.3274
  14962295.05147  11643005.70342  23160600.4454   23160599.3984
     -3538.3094
  -5244773.49248  -4074026.56243  22757525.3594   22757520.1644
     -1129.5604
  -1631132.74648  -1267764.09446  20837521.9224   20837518.7774
      -577.0194
 04  9  7 23 19 15.0000000  0  7G10G29G 8G28G13G19G27
  -3261654.49246  -2532501.51242  23554471.9304   23554471.2344
     -1443.0164
  -3220398.62946  -2495507.36742  23774212.2114   23774210.3244
      3062.3024
  -9930878.42649  -7718102.46946  20363713.3524   20363711.0824
       563.8204
 -14810279.49648 -11532309.39144  21528723.4384   21528720.9344
      1858.3894
  15015431.45747  11684410.64842  23170711.6884   23170710.6094
     -3542.4274
  -5227687.77048  -4060713.00443  22760777.3754   22760772.0274
     -1139.0484
  -1622404.50448  -1260962.87146  20839183.1094   20839180.0044
      -581.8834
 04  9  7 23 19 30.0000000  0  7G10G29G 8G28G13G19G27
  -3239886.78146  -2515539.70342  23558614.7734   23558613.7464
     -1451.1814
  -3266274.73846  -2531254.98042  23765481.7664   23765480.6214
      3058.4074
  -9939252.54749  -7724627.75846  20362119.7814   20362117.1484
       558.2754
 -14838066.60548 -11553961.64145  21523435.2894   21523432.5474
      1852.4744
  15068628.97347  11725863.25842  23180835.2974   23180833.7624
     -3546.5014
  -5210460.35248  -4047289.03944  22764055.6954   22764049.7194
     -1148.4954
  -1613603.59448  -1254105.01646  20840858.0234   20840854.6174
      -586.7274
 04  9  7 23 19 45.0000000  0  7G10G29G 8G28G13G19G27
  -3217998.49247  -2498483.86742  23562779.9614   23562778.5784
     -1459.2194
  -3312093.79746  -2566958.10942  23756763.1334   23756761.5594
      3054.6044
  -9947544.86349  -7731089.28946  20360541.8524   20360539.5044
       552.8214
 -14865766.53548 -11575545.99245  21518164.9144   21518160.9344
      1846.6624
  15121885.89147  11767362.08242  23190970.4924   23190968.0394
     -3550.4614
  -5193092.79748  -4033755.87944  22767360.5004   22767356.0864
     -1157.8374
  -1604731.40648  -1247191.62146  20842545.6644   20842543.2774
      -591.4794
 04  9  7 23 20  0.0000000  0  7G10G29G 8G28G13G19G27
  -3195986.49646  -2481331.65242  23566968.3134   23566967.0944
     -1467.4664
  -3357852.21546  -2602614.01242  23748055.4224   23748054.4384
      3050.5614
  -9955752.22749  -7737484.64146  20358980.4614   20358977.6724
       547.1584
 -14893375.89848 -11597059.75845  21512911.4144   21512907.0164
      1840.6244
  15175205.07846  11808909.48442  23201115.0004   23201113.7234
     -3554.6124
  -5175582.03148  -4020111.11744  22770691.9384   22770688.1254
     -1167.3844
  -1595784.59048  -1240220.09446  20844248.9534   20844246.1294
      -596.4544
 04  9  7 23 20 15.0000000  0  7G10G29G 8G28G13G19G27
  -3173852.20746  -2464084.16442  23571179.0784   23571177.9804
     -1475.6194
  -3403550.64846  -2638223.16442  23739359.6254   23739358.2234
      3046.5624
  -9963875.44549  -7743814.41846  20357434.7194   20357431.7894
       541.5484
 -14920895.55548 -11618503.62945  21507674.5004   21507671.0434
      1834.6444
  15228585.29347  11850504.41442  23211274.7584   23211273.0784
     -3558.6814
  -5157929.21547  -4006355.68444  22774051.5474   22774047.5474
     -1176.8544
  -1586764.15648  -1233191.17246  20845965.1254   20845962.4384
      -601.3624
 04  9  7 23 20 30.0000000  0  7G10G29G 8G28G13G19G27
  -3151596.50445  -2446742.10542  23575415.1644   23575412.9804
     -1483.7144
  -3449189.41046  -2673785.80942  23730674.5234   23730672.8204
      3042.5844
  -9971914.99249  -7750078.98846  20355904.7504   20355901.7114
       535.9704
 -14948326.31248 -11639878.21945  21502453.9924   21502450.5234
      1828.7174
  15282025.66847  11892146.21542  23221443.6484   23221442.4144
     -3562.6924
  -5140135.04347  -3992490.10244  22777437.1484   22777433.4304
     -1186.2784
  -1577670.62148  -1226105.30946  20847695.5164   20847692.7424
      -606.2364
 04  9  7 23 20 45.0000000  0  7G10G29G 8G28G13G19G27
  -3129218.74246  -2429304.89842  23579674.2424   23579672.5944
     -1491.8514
  -3494767.49246  -2709301.13342  23722001.3284   23721999.6174
      3038.5394
  -9979869.99649  -7756277.69546  20354391.1884   20354388.0004
       530.3344
 -14975667.17648 -11661182.76645  21497251.2114   21497248.2854
      1822.7244
  15335526.74247  11933835.33242  23231623.8524   23231622.7114
     -3566.7384
  -5122198.80548  -3978513.80544  22780851.3444   22780846.3954
     -1195.7494
  -1568502.96549  -1218961.68746  20849440.0784   20849437.1954
      -611.1774
 04  9  7 23 21  0.0000000  0  7G10G29G 8G28G13G19G27
  -3106717.94547  -2411771.84042  23583955.5784   23583953.9884
     -1500.0534
  -3540283.10946  -2744767.85242  23713339.3444   23713337.7544
      3034.3744
  -9987738.96149  -7762409.35246  20352893.2734   20352890.9654
       524.5984
 -15002916.66048 -11682416.10545  21492065.7814   21492062.7664
      1816.6324
  15389089.57847  11975572.57842  23241817.8674   23241814.9614
     -3570.8564
  -5104119.26247  -3964425.84844  22784291.0314   22784287.6374
     -1205.3034
  -1559259.96548  -1211759.34846  20851198.3134   20851196.5164
      -616.2004
 04  9  7 23 21 15.0000000  0  7G10G29G 8G28G13G19G27
  -3084096.66446  -2394144.85942  23588260.2584   23588257.8204
     -1508.0854
  -3585738.27046  -2780187.44142  23704689.8204   23704687.8014
      3030.3444
  -9995524.09449  -7768475.68046  20351412.4144   20351409.5744
       519.0094
 -15030077.19948 -11703580.12545  21486897.3754   21486894.3794
      1810.7034
  15442711.68047  12017355.96942  23252021.6094   23252019.3594
     -3574.8074
  -5085898.92247  -3950228.20744  22787758.4534   22787754.2704
     -1214.6894
  -1549943.77348  -1204499.98046  20852972.1414   20852968.9924
      -621.0794
 04  9  7 23 21 30.0000000  0  7G10G29G 8G28G13G19G27
  -3061357.59846  -2376426.08642  23592587.3364   23592585.0514
     -1515.9384
  -3631135.15646  -2815561.61742  23696050.5394   23696049.1134
      3026.4594
 -10003227.68749  -7774478.48846  20349946.1484   20349943.3054
       513.5734
 -15057151.10248 -11724676.66445  21481745.8834   21481742.0474
      1804.9274
  15496390.24646  12059183.42242  23262235.3834   23262234.3524
     -3578.5714
  -5067540.41848  -3935922.86744  22791252.8054   22791247.3134
     -1223.9004
  -1540556.69148  -1197185.35946  20854757.6884   20854755.3674
      -625.8054
 04  9  7 23 21 45.0000000  0  7G10G29G 8G28G13G19G27
  -3038499.51646  -2358614.59842  23596936.8054   23596934.5554
     -1523.8724
  -3676471.80546  -2850888.82842  23687423.7504   23687422.4774
      3022.4434
 -10010848.06649  -7780416.43046  20348496.1094   20348493.2624
       508.0254
 -15084136.80148 -11745704.44945  21476610.0784   21476606.9414
      1799.0474
  15550126.63347  12101055.89842  23272461.1484   23272460.4534
     -3582.4264
  -5049042.30947  -3921508.75444  22794772.1024   22794767.1994
     -1233.2074
  -1531097.15248  -1189814.28546  20856557.6334   20856555.3404
      -630.6364
 04  9  7 23 22  0.0000000  0  7G10G29G 8G28G13G19G27
  -3015518.58646  -2340707.37142  23601309.7814   23601307.7704
     -1532.0624
  -3721744.06246  -2886165.89142  23678808.1094   23678807.3984
      3018.1514
 -10018381.24249  -7786286.44146  20347062.6254   20347059.8244
       502.2124
 -15111030.20348 -11766660.34045  21471492.7424   21471488.9844
      1792.8934
  15603924.46147  12142976.24242  23282699.0784   23282697.4384
     -3586.5224
  -5030400.78547  -3906982.88744  22798319.0004   22798315.2154
     -1242.7684
  -1521561.07849  -1182383.58646  20858372.9534   20858369.8404
      -635.7384
 04  9  7 23 22 15.0000000  0  7G10G29G 8G28G13G19G27
  -2992418.56245  -2322707.37142  23605706.3134   23605703.1564
     -1540.0024
  -3766954.80946  -2921395.03942  23670205.7664   23670204.1844
      3014.0504
 -10025830.42649  -7792090.99646  20345645.1644   20345642.3834
       496.6124
 -15137834.74248 -11787546.95745  21466392.3134   21466388.3094
      1786.9694
  15657780.13747  12184941.66442  23292947.5474   23292946.1334
     -3590.3784
  -5011619.18047  -3892347.88743  22801893.3754   22801889.3324
     -1252.1074
  -1511951.65248  -1174895.73045  20860201.0474   20860198.6684
      -640.6284
 04  9  7 23 22 30.0000000  0  7G10G29G 8G28G13G19G27
  -2969201.25046  -2304615.98442  23610124.3674   23610122.5904
     -1547.8214
  -3812105.34846  -2956577.25842  23661613.2114   23661611.8244
      3010.0364
 -10033197.10549  -7797831.27046  20344242.8914   20344240.1054
       491.1124
 -15164551.70348 -11808365.34445  21461307.6174   21461304.2854
      1781.1314
  15711691.90647  12226950.80942  23303206.6644   23303205.8324
     -3594.1184
  -4992699.21547  -3877605.03544  22805493.5004   22805488.9344
     -1261.3314
  -1502270.41448  -1167351.91046  20862043.6724   20862040.8244
      -645.4164
 04  9  7 23 22 45.0000000  0  7G10G29G 8G28G13G19G27
  -2945863.90646  -2286431.05942  23614565.2664   23614563.6454
     -1555.8234
  -3857192.41046  -2991710.00042  23653033.2504   23653031.9224
      3005.8044
 -10040478.24249  -7803504.87546  20342857.5634   20342855.0204
       485.4094
 -15191178.21548 -11829113.25845  21456240.6254   21456237.7234
      1775.1014
  15765662.38347  12269005.65642  23313476.9454   23313475.4924
     -3598.0324
  -4973638.15247  -3862752.25844  22809120.8754   22809117.5004
     -1270.7374
  -1492514.37949  -1159749.80146  20863900.0784   20863897.6054
      -650.4024
 04  9  7 23 23  0.0000000  0  7G10G29G 8G28G13G19G27
  -2922408.71546  -2268154.30542  23619028.8594   23619027.0434
     -1563.6794
  -3902217.55147  -3026794.50042  23644465.5394   23644463.7074
      3001.6764
 -10047675.50849  -7809113.12946  20341487.9614   20341485.4454
       479.8184
 -15217716.07448 -11849792.08645  21451191.0634   21451187.2974
      1769.1914
  15819689.45747  12311104.64843  23323757.7344   23323757.3674
     -3601.8054
  -4954437.96147  -3847791.07844  22812775.0864   22812771.1684
     -1280.0134
  -1482685.10248  -1152090.62946  20865770.2664   20865767.9064
      -655.2854
 04  9  7 23 23 15.0000000  0  7G10G29G 8G28G13G19G27
  -2898833.57846  -2249784.08642  23623514.7344   23623512.9454
     -1571.6764
  -3947177.98447  -3061828.58642  23635909.9144   23635908.5004
      2997.3624
 -10054786.51249  -7814654.16446  20340134.9064   20340132.0864
       474.0674
 -15244162.83248 -11870399.92245  21446157.8204   21446154.9064
      1763.1174
  15873775.24647  12353249.37542  23334050.1024   23334048.6994
     -3605.7194
  -4935096.46947  -3832719.80144  22816455.8754   22816450.8794
     -1289.4334
  -1472780.38349  -1144372.67246  20867655.6094   20867652.9064
      -660.3154
 04  9  7 23 23 30.0000000  0  7G10G29G 8G28G13G19G27
  -2875140.40646  -2231321.92242  23628023.5784   23628022.7894
     -1579.5454
  -3992075.10246  -3096813.32442  23627365.9924   23627365.1604
      2993.1414
 -10061812.78149  -7820129.18446  20338797.6564   20338794.9454
       468.4184
 -15270520.02748 -11890937.95745  21441142.5234   21441138.6454
      1757.1464
  15927917.93047  12395438.43842  23344352.7584   23344352.1724
     -3609.5124
  -4915615.41047  -3817539.75043  22820162.3444   22820157.7664
     -1298.7374
  -1462801.62149  -1136597.01246  20869554.0944   20869551.4224
      -665.2514
 04  9  7 23 23 45.0000000  0  7G10G29G 8G28G13G19G27
  -2851330.34445  -2212768.64842  23632554.2814   23632553.2424
     -1587.3374
  -4036909.43746  -3131749.16042  23618835.0704   23618833.2544
      2988.9564
 -10068754.73849  -7825538.49246  20337476.5784   20337474.0554
       462.7974
 -15296788.48448 -11911406.87945  21436143.6174   21436140.5634
      1751.2304
  15982116.27346  12437670.86742  23354666.2584   23354665.5514
     -3613.2234
  -4895995.80947  -3802251.75443  22823895.9694   22823891.3794
     -1307.9734
  -1452749.60949  -1128764.27746  20871467.0784   20871464.2034
      -670.1344
 04  9  7 23 24  0.0000000  0  7G10G29G 8G28G13G19G27
  -2827404.06646  -2194124.78542  23637108.0004   23637106.0904
     -1595.0854
  -4081681.17246  -3166636.18742  23610315.2034   23610313.4264
      2984.7824
 -10075612.97349  -7830882.55946  20336171.6804   20336168.9224
       457.2164
 -15322968.68048 -11931806.99245  21431162.1564   21431158.9654
      1745.3464
  16036369.68847  12479946.18842  23364990.6414   23364989.9804
     -3616.8944
  -4876238.09847  -3786856.15244  22827655.6724   22827651.2194
     -1317.1814
  -1442624.67248  -1120874.72746  20873394.0474   20873391.2974
      -674.9964
 04  9  7 23 24 15.0000000  0  7G10G29G 8G28G13G19G27
  -2803360.63346  -2175389.65642  23641682.8054   23641680.6374
     -1602.8964
  -4126388.54346  -3201473.06642  23601807.4924   23601805.9304
      2980.4914
 -10082386.13749  -7836160.35246  20334883.0864   20334879.7304
       451.5444
 -15349059.35948 -11952137.36745  21426196.4384   21426193.4344
      1739.3794
  16090678.97747  12522265.10242  23375325.4454   23375324.5354
     -3620.6194
  -4856341.39847  -3771352.22743  22831442.2274   22831437.1524
     -1326.4474
  -1432425.54349  -1112927.34846  20875334.7664   20875332.0904
      -679.9424
 04  9  7 23 24 30.0000000  0  7G10G29G 8G28G13G19G27
  -2779200.22746  -2156563.33242  23646280.4924   23646278.2974
     -1610.6944
  -4171031.38746  -3236259.66842  23593312.3204   23593309.8484
      2976.1904
 -10089074.04349  -7841371.70746  20333609.9384   20333607.2074
       445.8604
 -15375060.25048 -11972397.77745  21421248.8054   21421245.4534
      1733.3934
  16145044.24247  12564627.57442  23385671.1954   23385669.1024
     -3624.3514
  -4836305.64147  -3755739.95743  22835254.9534   22835250.2114
     -1335.7174
  -1422152.09448  -1104922.07045  20877289.6484   20877286.6214
      -684.8974
 04  9  7 23 24 45.0000000  0  7G10G29G 8G28G13G19G27
  -2754924.62146  -2137647.28942  23650899.0634   23650898.0824
     -1618.3744
  -4215610.69146  -3270996.77042  23584829.4844   23584826.9654
      2971.9544
 -10095678.00049  -7846517.63746  20332353.3444   20332350.6334
       440.2644
 -15400972.77048 -11992589.33245  21416318.2034   21416314.3914
      1727.5014
  16199463.47846  12607032.18442  23396025.7584   23396024.7934
     -3627.9494
  -4816132.44148  -3740020.57844  22839093.9144   22839089.7194
     -1344.8804
  -1411805.53149  -1096859.82846  20879258.8524   20879255.7194
      -689.7714
 04  9  7 23 25  0.0000000  0  7G10G29G 8G28G13G19G27
  -2730535.87946  -2118643.09842  23655540.6484   23655539.3954
     -1625.9164
  -4260127.87946  -3305685.48042  23576357.9924   23576354.5634
      2967.8134
 -10102199.52049  -7851599.34846  20331112.4224   20331109.6484
       434.7684
 -15426798.67649 -12012713.38345  21411403.8754   21411399.7464
      1721.7274
  16253934.74246  12649477.25842  23406392.4844   23406390.6954
     -3631.4184
  -4795823.67248  -3724195.54344  22842958.6174   22842953.2384
     -1353.9184
  -1401387.62548  -1088741.96946  20881241.1414   20881238.6684
      -694.5274
 04  9  7 23 25 15.0000000  0  7G10G29G 8G28G13G19G27
  -2706030.46145  -2099547.99642  23660202.6254   23660202.7114
     -1633.6954
  -4304578.89146  -3340322.65642  23567898.5554   23567895.8014
      2963.4014
 -10108634.68049  -7856613.74646  20329887.8444   20329885.1804
       429.0114
 -15452534.16848 -12032766.99645  21406506.2274   21406502.6724
      1715.6994
  16308461.63746  12691965.68042  23416768.4534   23416766.9654
     -3635.1264
  -4775375.70747  -3708262.05943  22846849.5554   22846844.5314
     -1363.1984
  -1390894.40648  -1080565.44946  20883237.6564   20883235.1804
      -699.5484
 04  9  7 23 25 30.0000000  0  7G10G29G 8G28G13G19G27
  -2681408.71146  -2080362.25442  23664889.6644   23664888.0044
     -1641.4504
  -4348963.55546  -3374908.06642  23559452.9694   23559450.1374
      2958.9784
 -10114983.66849  -7861561.00846  20328679.5084   20328676.7544
       423.2664
 -15478179.34848 -12052750.21945  21401625.7894   21401622.4534
      1709.6794
  16363043.66046  12734497.08242  23427155.1024   23427153.9454
     -3638.8024
  -4754788.94148  -3692220.43443  22850766.7344   22850762.0314
     -1372.4514
  -1380326.07049  -1072330.38745  20885249.1024   20885246.2304
      -704.5564
 04  9  7 23 25 45.0000000  0  7G10G29G 8G28G13G19G27
  -2656672.93446  -2061087.60942  23669596.1414   23669593.7234
     -1649.0524
  -4393283.46145  -3409443.02042  23551018.8834   23551016.7664
      2954.6604
 -10121248.20349  -7866442.45746  20327487.7344   20327484.8284
       417.6364
 -15503735.99648 -12072664.46945  21396762.6804   21396759.3834
      1703.7774
  16417678.77347  12777069.85942  23437551.7584   23437550.1724
     -3642.3414
  -4734065.32047  -3676072.14144  22854709.6804   22854705.7774
     -1381.5754
  -1369684.29348  -1064038.10246  20887273.8914   20887271.1094
      -709.4524
 04  9  7 23 26  0.0000000  0  7G10G29G 8G28G13G19G27
  -2631823.67246  -2041724.54342  23674323.8364   23674322.4104
     -1656.6174
  -4437538.47745  -3443927.41842  23542597.1724   23542595.0474
      2950.3344
 -10127428.37549  -7871258.16846  20326311.5704   20326308.9924
       412.0114
 -15529204.37949 -12092509.93445  21391916.0704   21391912.9774
      1697.8924
  16472366.21946  12819683.41442  23447958.5634   23447956.8914
     -3645.8304
  -4713205.24647  -3659817.56644  22858679.7974   22858675.7814
     -1390.6724
  -1358969.37548  -1055688.79746  20889313.0084   20889310.1844
      -714.3284
 04  9  7 23 26 15.0000000  0  7G10G29G 8G28G13G19G27
  -2606860.09846  -2022272.41842  23679075.3134   23679073.7544
     -1664.2384
  -4481727.18745  -3478360.16442  23534188.3364   23534186.2774
      2945.9144
 -10133523.26249  -7876007.42246  20325151.5554   20325149.0904
       406.3264
 -15554583.35548 -12112285.73845  21387086.7504   21387083.1844
      1691.9324
  16527106.87946  12862338.44542  23458375.0394   23458373.6954
     -3649.3774
  -4692207.90648  -3643455.99244  22862675.9924   22862670.7624
     -1399.8234
  -1348180.19949  -1047281.64546  20891366.3594   20891363.2424
      -719.2784
 04  9  7 23 26 30.0000000  0  7G10G29G 8G28G13G19G27
  -2581784.56246  -2002733.05542  23683847.1254   23683845.7034
     -1671.7024
  -4525851.44546  -3512742.66842  23525791.7504   23525789.4414
      2941.6174
 -10139534.67249  -7880691.64146  20324008.2114   20324004.7734
       400.7614
 -15579874.95348 -12131993.45345  21382274.6334   21382270.2344
      1686.1074
  16581898.52745  12905033.18042  23468800.6024   23468800.1054
     -3652.7774
  -4671075.45748  -3626989.17243  22866696.8134   22866692.2114
     -1408.8304
  -1337318.51249  -1038817.99646  20893433.7814   20893429.9574
      -724.1124
 04  9  7 23 26 45.0000000  0  7G10G29G 8G28G13G19G27
  -2556597.19946  -1983106.53142  23688641.0474   23688638.0824
     -1679.1584
  -4569910.72347  -3547074.57442  23517407.7974   23517405.6914
      2937.2854
 -10145462.50049  -7885310.71946  20322879.8204   20322876.7704
       395.1894
 -15605078.95748 -12151632.91845  21377477.7734   21377474.4494
      1680.2674
  16636740.84446  12947767.39542  23479237.9924   23479237.2074
     -3656.1544
  -4649807.92248  -3610417.07044  22870744.1954   22870739.4344
     -1417.8364
  -1326384.35249  -1030297.87546  20895513.9774   20895511.1524
      -728.9444
 04  9  7 23 27  0.0000000  0  7G10G29G 8G28G13G19G27
  -2531299.78546  -1963394.29342  23693454.0084   23693451.9804
     -1686.4944
  -4613906.18046  -3581356.72342  23509035.9774   23509033.6914
      2933.0304
 -10151307.92649  -7889865.59846  20321767.6024   20321764.3914
       389.6954
 -15630196.90248 -12171205.31245  21372698.2584   21372694.3054
      1674.5304
  16691632.19146  12990539.80542  23489683.4844   23489682.0314
     -3659.4234
  -4628406.91448  -3593740.96144  22874817.4384   22874811.6724
     -1426.7344
  -1315379.03948  -1021722.30146  20897608.1724   20897605.7344
      -733.6874
 04  9  7 23 27 15.0000000  0  7G10G29G 8G28G13G19G27
  -2505889.76246  -1943594.32042  23698289.2974   23698288.2274
     -1694.0024
  -4657834.70746  -3615586.72742  23500676.1174   23500674.2624
      2928.5684
 -10157067.92249  -7894353.89846  20320671.2734   20320668.3954
       384.0004
 -15655225.82848 -12190708.34445  21367935.0474   21367931.3444
      1668.5954
  16746575.22746  13033352.54742  23500138.6564   23500137.6604
     -3662.8694
  -4606869.85248  -3576958.81644  22878914.5634   22878910.0664
     -1435.8044
  -1304299.56649  -1013088.95346  20899716.5164   20899713.7814
      -738.6324
 04  9  7 23 27 30.0000000  0  7G10G29G 8G28G13G19G27
  -2480368.55946  -1923707.70342  23703146.8204   23703143.9844
     -1701.4144
  -4701697.04747  -3649765.16442  23492329.8444   23492327.3284
      2924.1564
 -10162743.61349  -7898776.52046  20319591.4844   20319588.3714
       378.3794
 -15680166.79748 -12210142.84445  21363188.9844   21363185.4924
      1662.7314
  16801568.62546  13076204.47742  23510603.7504   23510602.9024
     -3666.2274
  -4585197.98847  -3560071.65244  22883038.1254   22883035.1884
     -1444.7914
  -1293147.00848  -1004398.64546  20901838.7664   20901835.7194
      -743.5044
 04  9  7 23 27 45.0000000  0  7G10G29G 8G28G13G19G27
  -2454736.23446  -1903734.45342  23708024.2974   23708021.5944
     -1708.8224
  -4745492.72747  -3683891.66042  23483995.9694   23483994.0864
      2919.7124
 -10168334.67649  -7903133.18046  20318527.1414   20318524.5314
       372.7384
 -15705019.51648 -12229508.57845  21358459.3914   21358455.6024
      1656.8484
  16856612.22746  13119095.58242  23521077.9144   23521077.5784
     -3669.5734
  -4563391.07448  -3543079.28144  22887188.6644   22887185.1054
     -1453.7944
  -1281920.99649   -995651.12146  20903975.1564   20903971.7774
      -748.4014
 04  9  7 23 28  0.0000000  0  7G10G29G 8G28G13G19G27
  -2428993.61346  -1883675.30942  23712922.6724   23712920.7384
     -1716.1754
  -4789221.83647  -3717966.26642  23475674.4144   23475672.2934
      2915.2744
 -10173841.48849  -7907424.20346  20317479.1174   20317476.7194
       367.1214
 -15729784.66848 -12248806.07045  21353746.9064   21353743.2424
      1651.0104
  16911705.27346  13162025.16842  23531561.2734   23531560.8324
     -3672.8704
  -4541449.96148  -3525982.30143  22891364.2114   22891358.8284
     -1462.7414
  -1270621.96948   -986846.68446  20906125.0084   20906121.8834
      -753.2684
 04  9  7 23 28 15.0000000  0  7G10G29G 8G28G13G19G27
  -2403140.32046  -1863529.90642  23717842.3754   23717839.6994
     -1723.5534
  -4832883.28147  -3751988.14542  23467365.2424   23467363.5514
      2910.7634
 -10179263.06249  -7911648.79746  20316447.6334   20316444.7304
       361.4384
 -15754461.26248 -12268034.55545  21349051.0394   21349048.0164
      1645.1064
  16966848.12946  13204993.57442  23542055.1414   23542053.8014
     -3676.1904
  -4519373.99648  -3508780.23843  22895564.5394   22895560.2504
     -1471.7314
  -1259249.10949   -977984.72745  20908289.3834   20908286.4264
      -758.1914
 04  9  7 23 28 30.0000000  0  7G10G29G 8G28G13G19G27
  -2377177.84446  -1843299.43442  23722783.0314   23722780.7774
     -1730.8324
  -4876478.32047  -3785958.27342  23459069.4224   23459067.2664
      2906.3364
 -10184600.89549  -7915808.14546  20315432.0084   20315428.7344
       355.8554
 -15779050.60948 -12287195.06645  21344371.9304   21344368.2854
      1639.2904
  17022039.19947  13247999.57042  23552557.3984   23552557.2544
     -3679.4054
  -4497164.76647  -3491474.35243  22899790.9144   22899786.7664
     -1480.6154
  -1247803.72349   -969066.25046  20910467.4614   20910464.2704
      -763.0264
 04  9  7 23 28 45.0000000  0  7G10G29G 8G28G13G19G27
  -2351104.13746  -1822982.24242  23727743.9614   23727742.7734
     -1738.2474
  -4920003.81247  -3819874.20742  23450787.3204   23450784.5784
      2901.6994
 -10189852.28549  -7919900.13346  20314432.4384   20314429.6374
       350.0934
 -15803550.28948 -12306285.69945  21339709.9144   21339706.4184
      1633.3124
  17077280.81346  13291044.91842  23563069.5474   23563068.7114
     -3682.7744
  -4474819.97347  -3474062.83643  22904042.2734   22904038.3754
     -1489.6534
  -1236283.27349   -960089.27346  20912659.2584   20912656.5204
      -768.0304
 04  9  7 23 29  0.0000000  0  8G10G29G 8G28G13G19G26G27
  -2324923.30146  -1802581.63342  23732726.6174   23732724.6764
     -1745.3894
  -4963463.51647  -3853738.89142  23442517.4924   23442513.9384
      2897.3144
 -10195020.95349  -7923927.66446  20313449.2814   20313446.2194
       344.5784
 -15827964.10549 -12325309.42645  21335063.7504   21335060.7074
      1627.5884
  17132568.76246  13334126.39842  23573591.6414   23573589.3054
     -3685.8634
  -4452343.52047  -3456548.71944  22908320.4924   22908315.6564
     -1498.4304
   -104431.10955    -72147.32451  23900053.3204   23900050.2734

  -1224691.50448   -951056.74246  20914865.2034   20914862.3444
      -772.7854
 04  9  7 23 29 15.0000000  0  8G10G29G 8G28G13G19G26G27
  -2298634.31245  -1782096.71142  23737729.8754   23737726.5474
     -1752.5994
  -5006855.70746  -3887550.98042  23434260.3524   23434256.6484
      2892.8134
 -10200105.28549  -7927889.47746  20312481.6884   20312478.4774
       338.9554
 -15852290.67649 -12344265.18745  21330434.3754   21330431.3834
      1621.7714
  17187904.08246  13377244.79742  23584120.7584   23584119.9844
     -3689.0214
  -4429734.46148  -3438931.27344  22912623.1804   22912617.8054
     -1507.2714
   -153324.42645   -110245.96141  23890748.6094   23890746.4884
      3259.5544
  -1213026.96549   -941967.48446  20917085.0234   20917081.7814
      -777.6364
 04  9  7 23 29 30.0000000  0  8G10G29G 8G28G13G19G26G27
  -2272240.08645  -1761529.79342  23742752.0704   23742749.7464
     -1759.6154
  -5050182.63746  -3921312.20742  23426014.3984   23426012.0204
      2888.4624
 -10205108.06649  -7931787.75046  20311529.5634   20311526.7194
       333.5194
 -15876532.50048 -12363154.88345  21325821.6254   21325818.5234
      1616.1224
  17243283.93446  13420397.87542  23594659.5554   23594658.1094
     -3691.9904
  -4406995.29748  -3421212.43044  22916950.1484   22916944.6954
     -1515.9444
   -202158.23445   -148298.23041  23881455.5944   23881453.5394
      3255.5874
  -1201292.19549   -932823.51646  20919318.1174   20919314.9454
      -782.3184
 04  9  7 23 29 45.0000000  0  8G10G29G 8G28G13G19G26G27
  -2245739.93445  -1740880.36742  23747794.2034   23747793.1724
     -1766.6774
  -5093443.10947  -3955021.62942  23417783.5164   23417780.4064
      2884.0324
 -10210028.16849  -7935621.58246  20310592.7274   20310590.3794
       328.0074
 -15900688.60248 -12381977.80945  21321224.9064   21321221.1644
      1610.4074
  17298709.04346  13463586.22342  23605206.5084   23605205.1094
     -3695.0074
  -4384125.35247  -3403391.68743  22921301.2504   22921297.2384
     -1524.6634
   -250931.28145   -186303.15241  23872174.7504   23872171.5274
      3251.5364
  -1189486.14148   -923623.98046  20921564.4924   20921561.9924
      -787.0704
 04  9  7 23 30  0.0000000  0  8G10G29G 8G28G13G19G26G27
  -2219135.34045  -1720149.49642  23752857.1484   23752854.9344
     -1773.6404
  -5136637.94546  -3988679.91842  23409563.2194   23409560.1844
      2879.6564
 -10214866.41449  -7939391.64546  20309672.6804   20309669.9304
       322.5504
 -15924760.22348 -12400734.89545  21316643.9304   21316640.3634
      1604.7754
  17354177.91046  13506808.68842  23615761.9224   23615761.6994
     -3697.9244
  -4361126.07048  -3385470.18043  22925679.0634   22925674.4964
     -1533.2854
   -299644.44945   -224261.44142  23862905.1024   23862901.8404
      3247.5454
  -1177609.89848   -914369.78146  20923824.9384   20923821.8484
      -791.7494
 04  9  7 23 30 15.0000000  0  8G10G29G 8G28G13G19G26G27
  -2192429.08546  -1699339.38342  23757938.7194   23757937.4844
     -1780.4174
  -5179769.30947  -4022288.78542  23401355.3444   23401351.9924
      2875.4244
 -10219625.40249  -7943099.94146  20308766.7274   20308764.0634
       317.2664
 -15948749.84448 -12419428.07445  21312079.0314   21312075.3164
      1599.3084
  17409687.79746  13550063.07442  23626325.5004   23626324.5004
     -3700.6594
  -4338000.03547  -3367449.89843  22930078.7114   22930074.7274
     -1541.7364
   -348299.99244   -262174.78541  23853645.4614   23853643.9574
      3243.7034
  -1165665.94149   -905062.79346  20926097.4924   20926094.7774
      -796.2644
 04  9  7 23 30 30.0000000  0  8G10G29G 8G28G13G19G26G27
  -2165618.02746  -1678447.74642  23763041.5864   23763040.0664
     -1787.4044
  -5222833.46547  -4055845.23042  23393160.8524   23393156.4804
      2870.9444
 -10224301.49649  -7946743.64846  20307877.3134   20307874.3244
       311.7404
 -15972653.80948 -12438054.52745  21307530.3204   21307526.8364
      1593.5984
  17465241.81646  13593351.90242  23636897.3364   23636895.2194
     -3703.6014
  -4314743.88748  -3349328.24244  22934504.6564   22934499.8094
     -1550.4104
   -396893.89844   -300040.14841  23844399.0704   23844396.7274
      3239.5944
  -1153650.60249   -895700.18746  20928383.8914   20928381.2704
      -801.0234
 04  9  7 23 30 45.0000000  0  8G10G29G 8G28G13G19G26G27
  -2138702.28145  -1657474.47342  23768163.9924   23768161.4144
     -1794.3834
  -5265829.77047  -4089348.83242  23384978.9844   23384974.7584
      2866.4204
 -10228894.42649  -7950322.54746  20307003.2664   20307000.2624
       306.1954
 -15996472.07448 -12456614.17245  21302997.7034   21302993.9654
      1587.8844
  17520840.00446  13636675.12942  23647476.9144   23647475.0354
     -3706.5464
  -4291357.71948  -3331105.25044  22938955.1724   22938950.4774
     -1559.0784
   -445425.66845   -337857.05141  23835163.1564   23835161.2504
      3235.4514
  -1141563.71148   -886281.84846  20930683.7194   20930681.4454
      -805.7934
 04  9  7 23 31  0.0000000  0  8G10G29G 8G28G13G19G26G27
  -2111681.94546  -1636419.66442  23773304.5864   23773302.5944
     -1801.3564
  -5308757.88747  -4122799.29742  23376809.5314   23376806.2734
      2861.8744
 -10233403.92649  -7953836.43446  20306144.6564   20306141.9884
       300.6334
 -16020204.20749 -12475106.70745  21298481.9224   21298477.9844
      1582.1424
  17576482.38746  13680032.76642  23658065.7344   23658064.5634
     -3709.4924
  -4267841.42248  -3312780.86744  22943430.1024   22943424.9924
     -1567.7534
   -493894.66045   -375625.10942  23825940.5784   23825937.3754
      3231.2664
  -1129404.84048   -876807.39546  20932997.4924   20932995.0124
      -810.5914
 04  9  7 23 31 15.0000000  0  8G10G29G 8G28G13G19G26G27
  -2084558.77345  -1615284.67642  23778465.8834   23778464.1254
     -1808.2114
  -5351618.66847  -4156197.28942  23368654.0784   23368650.1374
      2857.3854
 -10237831.25049  -7957286.29346  20305302.4774   20305299.7424
       295.1554
 -16043851.63749 -12493533.25445  21293981.7194   21293978.5394
      1576.4954
  17632166.98846  13723423.30942  23668661.5704   23668660.8834
     -3712.3074
  -4244196.58648  -3294356.34443  22947929.9304   22947923.9304
     -1576.3224
   -542302.17245   -413345.22742  23816728.9384   23816725.1054
      3227.1674
  -1117175.49648   -867278.05146  20935325.3594   20935322.1644
      -815.2904
 04  9  7 23 31 30.0000000  0  8G10G29G 8G28G13G19G26G27
  -2057332.32845  -1594069.28542  23783647.4064   23783645.6994
     -1815.0964
  -5394411.21947  -4189542.11742  23360510.2974   23360507.3324
      2852.8374
 -10242175.48849  -7960671.41446  20304475.6724   20304473.0904
       289.6164
 -16067413.70349 -12511893.28945  21289498.1484   21289494.3634
      1570.8044
  17687894.43446  13766847.26242  23679266.3754   23679264.9104
     -3715.1634
  -4220422.86348  -3275831.35244  22952453.2584   22952448.7074
     -1584.9154
   -590647.06645   -451016.54741  23807529.6174   23807524.6954
      3222.9934
  -1104874.77348   -857693.07845  20937665.7274   20937662.7034
      -820.0484
 04  9  7 23 31 45.0000000  0  8G10G29G 8G28G13G19G26G27
  -2030004.28545  -1572774.77042  23788847.7114   23788845.3054
     -1821.8704
  -5437136.60947  -4222834.61742  23352379.8914   23352376.6524
      2848.3594
 -10246438.00049  -7963992.84846  20303664.7424   20303661.8984
       284.1674
 -16090891.62549 -12530187.75845  21285030.6484   21285026.6914
      1565.1954
  17743662.98845  13810303.25042  23689878.2974   23689876.9734
     -3717.9044
  -4196521.61747  -3257206.98843  22957001.2344   22956997.2344
     -1593.4164
   -638930.36346   -488639.85242  23798341.3134   23798337.5744
      3218.8864
  -1092504.04748   -848053.54746  20940019.5474   20940016.6724
      -824.7154
 04  9  7 23 32  0.0000000  0  8G10G29G 8G28G13G19G26G27
  -2002572.83245  -1551399.62942  23794066.9844   23794065.9184
     -1828.7644
  -5479792.11747  -4256072.64142  23344262.8444   23344258.4924
      2843.7014
 -10250616.38349  -7967248.72746  20302869.5394   20302866.5354
       278.5594
 -16114283.29748 -12548415.00445  21280579.3914   21280575.3094
      1559.4454
  17799474.85545  13853792.93042  23700499.4304   23700497.8834
     -3720.7914
  -4172490.84448  -3238481.71144  22961574.3984   22961569.6214
     -1602.0524
   -687149.30946   -526213.05142  23789166.4924   23789161.8134
      3214.5964
  -1080060.82849   -838357.55145  20942388.4304   20942384.5124
      -829.5484
 04  9  7 23 32 15.0000000  0  8G10G29G 8G28G13G19G26G27
  -1975034.47345  -1529941.18042  23799308.6724   23799305.9224
     -1835.8914
  -5522374.05547  -4289253.35942  23336159.7974   23336155.5164
      2838.7964
 -10254707.25449  -7970436.41446  20302091.0314   20302087.7704
       272.7254
 -16137585.19548 -12566572.30945  21276144.7584   21276141.3094
      1553.4604
  17855332.86746  13897318.60242  23711129.1414   23711128.2934
     -3723.8674
  -4148327.16448  -3219652.87943  22966172.4614   22966167.2624
     -1610.9124
   -735300.21946   -563733.21142  23780003.2974   23779998.7664
      3210.0614
  -1067541.64849   -828602.34845  20944770.0234   20944766.9844
      -834.6124
 04  9  7 23 32 30.0000000  0  8G10G29G 8G28G13G19G26G27
  -1947389.94146  -1508400.02042  23804569.3594   23804567.5084
     -1842.9694
  -5564882.30147  -4322376.66442  23328071.4224   23328067.4414
      2833.8834
 -10258710.65649  -7973555.94146  20301329.1094   20301326.6094
       266.8934
 -16160797.37148 -12584659.69945  21271727.7114   21271724.3094
      1547.4784
  17911236.78546  13940880.07842  23721766.9694   23721766.3164
     -3726.9284
  -4124031.09047  -3200720.84843  22970795.4534   22970791.0594
     -1619.7384
   -783383.03146   -601200.30942  23770852.9924   23770848.6884
      3205.5214
  -1054946.68049   -818788.08645  20947167.0864   20947163.9574
      -839.6654
 04  9  7 23 32 45.0000000  0  8G10G29G 8G28G13G19G26G27
  -1919640.14545  -1486776.84042  23809850.2114   23809847.7664
     -1849.9864
  -5607317.21547  -4355442.82042  23319995.7344   23319991.7074
      2828.9944
 -10262626.96149  -7976607.59846  20300584.0314   20300581.4184
       261.0874
 -16183920.41848 -12602677.64145  21267327.5784   21267323.5704
      1541.5364
  17967185.70346  13984476.54742  23732414.0784   23732413.6644
     -3729.9284
  -4099603.37548  -3181686.28943  22975445.2344   22975440.3444
     -1628.5144
   -831397.77746   -638614.37942  23761716.0394   23761712.4494
      3200.9834
  -1042276.37548   -808915.12545  20949577.1094   20949575.0784
      -844.6874
 04  9  7 23 33  0.0000000  0  8G10G29G 8G28G13G19G26G27
  -1891786.28945  -1465072.53142  23815149.7114   23815148.2384
     -1856.9244
  -5649679.27747  -4388452.17642  23311934.3054   23311930.8674
      2824.1374
 -10266456.87149  -7979591.94546  20299855.1644   20299852.3404
       255.3274
 -16206955.25448 -12620626.83245  21262943.9534   21262939.8284
      1535.6564
  18023178.49645  14028107.23042  23743068.4614   23743068.5944
     -3732.8534
  -4075045.05148  -3162549.91843  22980117.8284   22980113.2504
     -1637.2224
   -879345.18746   -675975.95742  23752591.6884   23752588.1844
      3196.4944
  -1029531.59048   -798984.12546  20952003.0164   20952000.3674
      -849.6524
 04  9  7 23 33 15.0000000  0  8G10G29G 8G28G13G19G26G27
  -1863824.72745  -1443284.30942  23820471.5084   23820469.0944
     -1864.1044
  -5691964.07847  -4421401.37942  23303888.1954   23303884.9884
      2818.9874
 -10270196.47749  -7982505.91446  20299143.2734   20299140.6484
       249.3074
 -16229897.79349 -12638504.11745  21258578.6174   21258574.7194
      1529.5034
  18079218.68845  14071774.81642  23753733.2974   23753732.8284
     -3736.0134
  -4050352.34047  -3143308.86743  22984816.3674   22984812.1054
     -1646.1814
   -927220.89146   -713281.70742  23743481.8834   23743477.3324
      3191.7144
  -1016708.26649   -788991.93746  20954443.6954   20954440.3984
      -854.8884
 04  9  7 23 33 30.0000000  0  8G10G29G 8G28G13G19G26G27
  -1835757.25845  -1421413.62542  23825811.3524   23825810.1254
     -1871.1654
  -5734173.02747  -4454291.44942  23295856.0944   23295853.0554
      2813.9304
 -10273847.09449  -7985350.54746  20298448.5864   20298445.7624
       243.3744
 -16252749.61748 -12656310.70745  21254229.6094   21254225.6804
      1523.4554
  18135304.70045  14115478.10942  23764405.8834   23764405.0984
     -3739.0684
  -4025527.07848  -3123964.49643  22989540.5234   22989537.0514
     -1655.0174
   -975026.02346   -750532.40642  23734384.0394   23734380.8874
      3187.0094
  -1003807.87548   -778939.68446  20956898.1094   20956895.4264
      -860.0264
 04  9  7 23 33 45.0000000  0  8G10G29G 8G28G13G19G26G27
  -1807584.14146  -1399460.53942  23831172.7034   23831171.3134
     -1878.2084
  -5776305.55546  -4487121.98442  23287837.6174   23287835.3714
      2808.8354
 -10277408.38749  -7988125.57446  20297771.4224   20297768.0394
       237.4204
 -16275510.51648 -12674046.46145  21249898.0314   21249894.6564
      1517.3934
  18191436.31346  14159217.01642  23775087.3594   23775086.2934
     -3742.1074
  -4000569.23048  -3104516.82444  22994289.6804   22994285.2194
     -1663.8574
  -1022760.11746   -787727.77042  23725300.8754   23725297.5594
      3182.2734
   -990830.09848   -768827.14145  20959367.9614   20959364.9454
      -865.1854
 04  9  7 23 34  0.0000000  0  8G10G29G 8G28G13G19G26G27
  -1779307.44946  -1377426.80142  23836554.4454   23836552.2504
     -1885.1134
  -5818363.28547  -4519894.19942  23279835.2344   23279832.1764
      2803.8494
 -10280882.32849  -7990832.54346  20297109.9774   20297107.3164
       231.5964
 -16298182.39549 -12691712.82845  21245583.8524   21245580.5004
      1511.4594
  18247611.19946  14202989.66042  23785777.5164   23785775.3324
     -3744.9924
  -3975480.80947  -3084967.43043  22999064.0164   22999059.2894
     -1672.5614
  -1070424.78146   -824869.04342  23716230.6334   23716227.3794
      3177.6444
   -977776.85548   -758655.77745  20961851.1024   20961848.8364
      -870.2164
